[[{"header":{"parameterUnit":"m.s-1","parameterCategory":1,"la1":30.6,"la2":28.766,"lo1":-90.7593,"lo2":-88.6598,"dy":0.0162,"dx":0.0183,"nx":116,"ny":114,"refTime":"2023-10-05T12:00:00:Z","depth":0,"parameterNumber":2,"parameterNumberName":"U-component_of_WINDS"},"data":[0.0,0.0,0.0,0.0,0.0,0.0,0.0,0.0,0.0,0.0,0.0,0.0,0.0,0.0,0.0,0.0,0.0,0.0,0.0,0.0,0.0,0.0,0.0,0.0,0.0,0.0,0.0,0.0,0.0,0.0,0.0,0.0,0.0,0.0,0.0,0.0,0.0,0.0,0.0,0.0,0.0,0.0,0.0,0.0,0.0,0.0,0.0,0.0,0.0,0.0,0.0,0.0,0.0,0.0,0.0,0.0,0.0,0.0,0.0,0.0,0.0,0.0,0.0,0.0,0.0,0.0,0.0,0.0,0.0,0.0,0.0,0.0,0.0,0.0,0.0,0.0,0.0,0.0,0.0,0.0,0.0,0.0,0.0,0.0,0.0,0.0,0.0,0.0,0.0,0.0,0.0,0.0,0.0,0.0,0.0,0.0,0.0,0.0,0.0,0.0,0.0,0.0,0.0,0.0,0.0,0.0,0.0,0.0,0.0,0.0,0.0,0.0,0.0,0.0,0.0,0.0,0.0,0.0,0.0,0.0,0.0,0.0,0.0,0.0,0.0,0.0,0.0,0.0,0.0,0.0,0.0,0.0,0.0,0.0,0.0,0.0,0.0,0.0,0.0,0.0,0.0,0.0,0.0,0.0,0.0,0.0,0.0,0.0,0.0,0.0,0.0,0.0,0.0,0.0,0.0,0.0,0.0,0.0,0.0,0.0,0.0,0.0,0.0,0.0,0.0,0.0,0.0,0.0,0.0,0.0,0.0,0.0,0.0,0.0,0.0,0.0,0.0,0.0,0.0,0.0,0.0,0.0,0.0,0.0,0.0,0.0,0.0,0.0,0.0,0.0,0.0,0.0,0.0,0.0,0.0,0.0,0.0,0.0,0.0,0.0,0.0,0.0,0.0,0.0,0.0,0.0,0.0,0.0,0.0,0.0,0.0,0.0,0.0,0.0,0.0,0.0,0.0,0.0,0.0,0.0,0.0,0.0,0.0,0.0,0.0,0.0,0.0,0.0,0.0,0.0,0.0,0.0,0.0,0.0,0.0,0.0,0.0,0.0,0.0,0.0,0.0,0.0,0.0,0.0,0.0,0.0,0.0,0.0,0.0,0.0,0.0,0.0,0.0,0.0,0.0,0.0,0.0,0.0,0.0,0.0,0.0,0.0,0.0,0.0,0.0,0.0,0.0,0.0,0.0,0.0,0.0,0.0,0.0,0.0,0.0,0.0,0.0,0.0,0.0,0.0,0.0,0.0,0.0,0.0,0.0,0.0,0.0,0.0,0.0,0.0,0.0,0.0,0.0,0.0,0.0,0.0,0.0,0.0,0.0,0.0,0.0,0.0,0.0,0.0,0.0,0.0,0.0,0.0,0.0,0.0,0.0,0.0,0.0,0.0,0.0,0.0,0.0,0.0,0.0,0.0,0.0,0.0,0.0,0.0,0.0,0.0,0.0,0.0,0.0,0.0,0.0,0.0,0.0,0.0,0.0,0.0,0.0,0.0,0.0,0.0,0.0,0.0,0.0,0.0,0.0,0.0,0.0,0.0,0.0,0.0,0.0,0.0,0.0,0.0,0.0,0.0,0.0,0.0,0.0,0.0,0.0,0.0,0.0,0.0,0.0,0.0,0.0,0.0,0.0,0.0,0.0,0.0,0.0,0.0,0.0,0.0,0.0,0.0,0.0,0.0,0.0,0.0,0.0,0.0,0.0,0.0,0.0,0.0,0.0,0.0,0.0,0.0,0.0,0.0,0.0,0.0,0.0,0.0,0.0,0.0,0.0,0.0,0.0,0.0,0.0,0.0,0.0,0.0,0.0,0.0,0.0,0.0,0.0,0.0,0.0,0.0,0.0,0.0,0.0,0.0,0.0,0.0,0.0,0.0,0.0,0.0,0.0,0.0,0.0,0.0,0.0,0.0,0.0,0.0,0.0,0.0,0.0,0.0,0.0,0.0,0.0,0.0,0.0,0.0,0.0,0.0,0.0,0.0,0.0,0.0,0.0,0.0,0.0,0.0,0.0,0.0,0.0,0.0,0.0,0.0,0.0,0.0,0.0,0.0,0.0,0.0,0.0,0.0,0.0,0.0,0.0,0.0,0.0,0.0,0.0,0.0,0.0,0.0,0.0,0.0,0.0,0.0,0.0,0.0,0.0,0.0,0.0,0.0,0.0,0.0,0.0,0.0,0.0,0.0,0.0,0.0,0.0,0.0,0.0,0.0,0.0,0.0,0.0,0.0,0.0,0.0,0.0,0.0,0.0,0.0,0.0,0.0,0.0,0.0,0.0,0.0,0.0,0.0,0.0,0.0,0.0,0.0,0.0,0.0,0.0,0.0,0.0,0.0,0.0,0.0,0.0,0.0,0.0,0.0,0.0,0.0,0.0,0.0,0.0,0.0,0.0,0.0,0.0,0.0,0.0,0.0,0.0,0.0,0.0,0.0,0.0,0.0,0.0,0.0,0.0,0.0,0.0,0.0,0.0,0.0,0.0,0.0,0.0,0.0,0.0,0.0,0.0,0.0,0.0,0.0,0.0,0.0,0.0,0.0,0.0,0.0,0.0,0.0,0.0,0.0,0.0,0.0,0.0,0.0,0.0,0.0,0.0,0.0,0.0,0.0,0.0,0.0,0.0,0.0,0.0,0.0,0.0,0.0,0.0,0.0,0.0,0.0,0.0,0.0,0.0,0.0,0.0,0.0,0.0,0.0,0.0,0.0,0.0,0.0,0.0,0.0,0.0,0.0,0.0,0.0,0.0,0.0,0.0,0.0,0.0,0.0,0.0,0.0,0.0,0.0,0.0,0.0,0.0,0.0,0.0,0.0,0.0,0.0,0.0,0.0,0.0,0.0,0.0,0.0,0.0,0.0,0.0,0.0,0.0,0.0,0.0,0.0,0.0,0.0,0.0,0.0,0.0,0.0,0.0,0.0,0.0,0.0,0.0,0.0,0.0,0.0,0.0,0.0,0.0,0.0,0.0,0.0,0.0,0.0,0.0,0.0,0.0,0.0,0.0,0.0,0.0,0.0,0.0,0.0,0.0,0.0,0.0,0.0,0.0,0.0,0.0,0.0,0.0,0.0,0.0,0.0,0.0,0.0,0.0,0.0,0.0,0.0,0.0,0.0,0.0,0.0,0.0,0.0,0.0,0.0,0.0,0.0,0.0,0.0,0.0,0.0,0.0,0.0,0.0,0.0,0.0,0.0,0.0,0.0,0.0,0.0,0.0,0.0,0.0,0.0,0.0,0.0,0.0,0.0,0.0,0.0,0.0,0.0,0.0,0.0,0.0,0.0,0.0,0.0,0.0,0.0,0.0,0.0,0.0,0.0,0.0,0.0,0.0,0.0,0.0,0.0,0.0,0.0,0.0,0.0,0.0,0.0,0.0,0.0,0.0,0.0,0.0,0.0,0.0,0.0,0.0,0.0,0.0,0.0,0.0,0.0,0.0,0.0,0.0,0.0,0.0,0.0,0.0,0.0,0.0,0.0,0.0,0.0,0.0,0.0,0.0,0.0,0.0,0.0,0.0,0.0,0.0,0.0,0.0,0.0,0.0,0.0,0.0,0.0,0.0,0.0,0.0,0.0,0.0,0.0,0.0,0.0,0.0,0.0,0.0,0.0,0.0,0.0,0.0,0.0,0.0,0.0,0.0,0.0,0.0,0.0,0.0,0.0,0.0,0.0,0.0,0.0,0.0,0.0,0.0,0.0,0.0,0.0,0.0,0.0,0.0,0.0,0.0,0.0,0.0,0.0,0.0,0.0,0.0,0.0,0.0,0.0,0.0,0.0,0.0,0.0,0.0,0.0,0.0,0.0,0.0,0.0,0.0,0.0,0.0,0.0,0.0,0.0,0.0,0.0,0.0,0.0,0.0,0.0,0.0,0.0,0.0,0.0,0.0,0.0,0.0,0.0,0.0,0.0,0.0,0.0,0.0,0.0,0.0,0.0,0.0,0.0,0.0,0.0,0.0,0.0,0.0,0.0,0.0,0.0,0.0,0.0,0.0,0.0,0.0,0.0,0.0,0.0,0.0,0.0,0.0,0.0,0.0,0.0,0.0,0.0,0.0,0.0,0.0,0.0,0.0,0.0,0.0,0.0,0.0,0.0,0.0,0.0,0.0,0.0,0.0,0.0,0.0,0.0,0.0,0.0,0.0,0.0,0.0,0.0,0.0,0.0,0.0,0.0,0.0,0.0,0.0,0.0,0.0,0.0,0.0,0.0,0.0,0.0,0.0,0.0,0.0,0.0,0.0,0.0,0.0,0.0,0.0,0.0,0.0,0.0,0.0,0.0,0.0,0.0,0.0,0.0,0.0,0.0,0.0,0.0,0.0,0.0,0.0,0.0,0.0,0.0,0.0,0.0,0.0,0.0,0.0,0.0,0.0,0.0,0.0,0.0,0.0,0.0,0.0,0.0,0.0,0.0,0.0,0.0,0.0,0.0,0.0,0.0,0.0,0.0,0.0,0.0,0.0,0.0,0.0,0.0,0.0,0.0,0.0,0.0,0.0,0.0,0.0,0.0,0.0,0.0,0.0,0.0,0.0,0.0,0.0,0.0,0.0,0.0,0.0,0.0,0.0,0.0,0.0,0.0,0.0,0.0,0.0,0.0,0.0,0.0,0.0,0.0,0.0,0.0,0.0,0.0,0.0,0.0,0.0,0.0,0.0,0.0,0.0,0.0,0.0,0.0,0.0,0.0,0.0,0.0,0.0,0.0,0.0,0.0,0.0,0.0,0.0,0.0,0.0,0.0,0.0,0.0,0.0,0.0,0.0,0.0,0.0,0.0,0.0,0.0,0.0,0.0,0.0,0.0,0.0,0.0,0.0,0.0,0.0,0.0,0.0,0.0,0.0,0.0,0.0,0.0,0.0,0.0,0.0,0.0,0.0,0.0,0.0,0.0,0.0,0.0,0.0,0.0,0.0,0.0,0.0,0.0,0.0,0.0,0.0,0.0,0.0,0.0,0.0,0.0,0.0,0.0,0.0,0.0,0.0,0.0,0.0,0.0,0.0,0.0,0.0,0.0,0.0,0.0,0.0,0.0,0.0,0.0,0.0,0.0,0.0,0.0,0.0,0.0,0.0,0.0,0.0,0.0,0.0,0.0,0.0,0.0,0.0,0.0,0.0,0.0,0.0,0.0,0.0,0.0,0.0,0.0,0.0,0.0,0.0,0.0,0.0,0.0,0.0,0.0,0.0,0.0,0.0,0.0,0.0,0.0,0.0,0.0,0.0,0.0,0.0,0.0,0.0,0.0,0.0,0.0,0.0,0.0,0.0,0.0,0.0,0.0,0.0,0.0,0.0,0.0,0.0,0.0,0.0,0.0,0.0,0.0,0.0,0.0,0.0,0.0,0.0,0.0,0.0,0.0,0.0,0.0,0.0,0.0,0.0,0.0,0.0,0.0,0.0,0.0,0.0,0.0,0.0,0.0,0.0,0.0,0.0,0.0,0.0,0.0,0.0,0.0,0.0,0.0,0.0,0.0,0.0,0.0,0.0,0.0,0.0,0.0,0.0,0.0,0.0,0.0,0.0,0.0,0.0,0.0,0.0,0.0,0.0,0.0,0.0,0.0,0.0,0.0,0.0,0.0,0.0,0.0,0.0,0.0,0.0,0.0,0.0,0.0,0.0,0.0,0.0,0.0,0.0,0.0,0.0,0.0,0.0,0.0,0.0,0.0,0.0,0.0,0.0,0.0,0.0,0.0,0.0,0.0,0.0,0.0,0.0,0.0,0.0,0.0,0.0,0.0,0.0,0.0,0.0,0.0,0.0,0.0,0.0,0.0,0.0,0.0,0.0,0.0,0.0,0.0,0.0,0.0,0.0,0.0,0.0,0.0,0.0,0.0,0.0,0.0,0.0,0.0,0.0,0.0,0.0,0.0,0.0,0.0,0.0,0.0,0.0,0.0,0.0,0.0,0.0,0.0,0.0,0.0,0.0,0.0,0.0,0.0,0.0,0.0,0.0,0.0,0.0,0.0,0.0,0.0,0.0,0.0,0.0,0.0,0.0,0.0,0.0,0.0,0.0,0.0,0.0,0.0,0.0,0.0,0.0,0.0,0.0,0.0,0.0,0.0,0.0,0.0,0.0,0.0,0.0,0.0,0.0,0.0,-2.8822,-2.8556,0.0,0.0,0.0,0.0,0.0,0.0,0.0,0.0,0.0,0.0,0.0,0.0,0.0,0.0,0.0,0.0,0.0,0.0,0.0,0.0,0.0,0.0,0.0,0.0,0.0,0.0,0.0,0.0,0.0,0.0,0.0,0.0,0.0,0.0,0.0,0.0,0.0,0.0,-2.4687,-2.4431,-2.4508,-2.4536,-2.4403,-2.4081,0.0,0.0,0.0,0.0,0.0,0.0,0.0,0.0,0.0,0.0,0.0,0.0,0.0,0.0,0.0,0.0,0.0,0.0,0.0,0.0,0.0,0.0,0.0,0.0,0.0,0.0,0.0,0.0,0.0,0.0,0.0,0.0,0.0,0.0,0.0,0.0,0.0,0.0,0.0,0.0,0.0,0.0,0.0,0.0,0.0,0.0,0.0,0.0,0.0,0.0,0.0,0.0,0.0,0.0,0.0,0.0,0.0,0.0,0.0,0.0,0.0,0.0,0.0,0.0,0.0,0.0,0.0,0.0,0.0,0.0,-2.9484,-2.9084,0.0,0.0,0.0,0.0,0.0,0.0,0.0,0.0,0.0,0.0,0.0,0.0,0.0,0.0,0.0,0.0,0.0,0.0,0.0,0.0,0.0,0.0,0.0,0.0,-2.2128,-2.2408,-2.2807,-2.3388,0.0,0.0,0.0,0.0,0.0,0.0,0.0,0.0,0.0,-2.5528,-2.4999,-2.4753,-2.4784,-2.5457,-2.5495,-2.4963,-2.542,0.0,0.0,0.0,0.0,0.0,0.0,0.0,0.0,0.0,0.0,0.0,0.0,0.0,0.0,0.0,0.0,0.0,0.0,0.0,0.0,0.0,0.0,0.0,0.0,0.0,0.0,0.0,0.0,0.0,0.0,0.0,0.0,0.0,0.0,0.0,0.0,0.0,0.0,0.0,0.0,0.0,0.0,0.0,0.0,0.0,0.0,0.0,0.0,0.0,0.0,0.0,0.0,0.0,0.0,0.0,0.0,0.0,0.0,0.0,0.0,0.0,0.0,0.0,-3.1181,-3.1428,-3.1428,-3.1428,-3.1428,-3.1359,-3.0132,-2.9676,-2.9834,-3.0287,0.0,0.0,0.0,0.0,0.0,0.0,0.0,0.0,0.0,0.0,0.0,0.0,0.0,0.0,0.0,0.0,0.0,0.0,0.0,0.0,0.0,-2.2183,-2.2589,-2.4039,-2.3601,-2.3674,0.0,0.0,0.0,0.0,0.0,0.0,0.0,-2.5077,-2.5603,-2.6089,-2.6112,-2.5893,-2.5472,-2.6153,-2.6422,-2.6303,-2.5824,-2.5553,-2.5482,0.0,0.0,0.0,0.0,0.0,0.0,0.0,0.0,0.0,0.0,0.0,0.0,0.0,0.0,0.0,0.0,0.0,0.0,0.0,0.0,0.0,0.0,0.0,0.0,0.0,0.0,0.0,0.0,0.0,0.0,0.0,0.0,0.0,0.0,0.0,0.0,0.0,0.0,0.0,0.0,0.0,-2.5945,-2.6656,0.0,0.0,0.0,0.0,0.0,0.0,0.0,0.0,0.0,0.0,0.0,0.0,0.0,-3.0382,-3.1342,-3.1433,-3.1722,-3.2213,-3.2299,-3.2333,-3.2333,-3.2333,-3.2333,-3.2333,-3.2122,0.0,-3.1021,-3.1421,0.0,0.0,0.0,0.0,0.0,0.0,0.0,0.0,0.0,0.0,0.0,0.0,0.0,0.0,0.0,0.0,0.0,0.0,0.0,0.0,0.0,-2.2084,-2.2695,-2.3409,-2.3489,-2.3667,-2.4104,-2.43,0.0,0.0,0.0,-2.5411,-2.5411,-2.6063,-2.6382,-2.6318,-2.6826,-2.6762,-2.6183,-2.6866,-2.7165,-2.7151,-2.6866,-2.6707,-2.6692,-2.6318,0.0,0.0,0.0,0.0,0.0,0.0,0.0,0.0,0.0,0.0,0.0,0.0,0.0,0.0,0.0,0.0,0.0,0.0,0.0,0.0,0.0,0.0,0.0,0.0,0.0,0.0,0.0,0.0,0.0,0.0,0.0,0.0,0.0,0.0,0.0,0.0,0.0,0.0,0.0,-2.6152,-2.6983,-2.7309,-2.8281,-2.892,0.0,0.0,0.0,0.0,0.0,0.0,0.0,0.0,0.0,-3.1133,-3.1133,-3.1344,-3.1807,-3.1807,-3.2039,-3.2501,-3.2501,-3.2367,-3.2109,-3.2109,-3.1986,-3.1787,-3.2004,-3.1914,-3.1654,-3.2316,-3.2582,-3.2647,0.0,0.0,0.0,0.0,-3.3863,-3.3961,0.0,0.0,0.0,0.0,0.0,0.0,0.0,0.0,0.0,0.0,0.0,0.0,-2.1371,-2.2169,-2.2872,-2.3295,-2.3516,-2.3724,-2.3991,-2.4246,0.0,0.0,0.0,-2.6004,-2.6047,-2.67,-2.6941,-2.6696,-2.7303,-2.7345,-2.6881,-2.736,-2.76,-2.76,-2.76,-2.76,-2.757,-2.7076,-2.6768,-2.6535,0.0,0.0,0.0,0.0,0.0,0.0,0.0,0.0,0.0,0.0,0.0,0.0,0.0,0.0,0.0,0.0,0.0,0.0,0.0,0.0,0.0,0.0,0.0,0.0,0.0,0.0,0.0,0.0,0.0,0.0,0.0,0.0,0.0,0.0,0.0,0.0,0.0,-2.7571,-2.8103,-2.8282,-2.9546,-3.0378,0.0,0.0,0.0,0.0,0.0,0.0,-3.1641,-3.1986,-3.2021,-3.166,-3.1734,-3.1861,-3.1969,-3.2092,-3.2383,-3.284,-3.284,-3.2647,-3.2315,-3.2315,-3.2144,-3.1878,-3.2178,-3.2332,-3.2418,-3.2842,-3.3014,-3.306,-3.3476,-3.3652,-3.3666,-3.3762,-3.3807,-3.3807,0.0,0.0,0.0,0.0,0.0,0.0,0.0,0.0,0.0,0.0,0.0,-2.1386,-2.3091,-2.292,-2.3331,-2.4936,-2.4168,-2.4032,-2.5051,-2.4672,-2.4663,-2.5323,-2.5406,-2.5507,-2.5633,-2.6294,-2.6939,-2.7545,-2.7595,-2.7585,-2.754,-2.7585,-2.76,-2.76,-2.76,-2.76,-2.76,-2.7555,-2.7144,-2.6505,-2.6477,0.0,0.0,0.0,0.0,0.0,0.0,0.0,0.0,0.0,0.0,0.0,0.0,0.0,0.0,0.0,0.0,0.0,0.0,0.0,0.0,0.0,0.0,0.0,0.0,0.0,0.0,0.0,0.0,0.0,0.0,0.0,0.0,0.0,0.0,0.0,0.0,0.0,0.0,-3.0909,-3.1086,0.0,0.0,0.0,0.0,-3.119,-3.121,-3.123,-3.123,-3.1252,-3.1252,-3.123,-3.1603,-3.2004,-3.2467,-3.2921,-3.3332,-3.3734,-3.3734,-3.3721,-3.3707,-3.3707,-3.3694,-3.3662,-3.3694,-3.3707,-3.3634,-3.2856,-3.2534,-3.2583,-3.3045,-3.3229,-3.3273,-3.3666,-3.3807,-3.3807,0.0,0.0,0.0,0.0,0.0,0.0,0.0,0.0,-2.0728,-2.0696,-2.1678,-2.2517,-2.2905,-2.3137,-2.351,-2.4106,-2.3815,-2.3752,-2.4158,-2.4396,-2.463,-2.4865,-2.572,-2.6398,-2.6881,-2.7121,-2.736,-2.76,-2.76,-2.76,-2.76,-2.76,-2.76,-2.76,-2.76,-2.76,-2.76,-2.76,-2.7433,-2.7178,-2.6695,-2.6336,0.0,0.0,0.0,0.0,0.0,0.0,0.0,0.0,0.0,0.0,0.0,0.0,0.0,0.0,0.0,0.0,0.0,0.0,0.0,0.0,0.0,0.0,0.0,0.0,0.0,0.0,0.0,0.0,0.0,0.0,0.0,0.0,0.0,0.0,0.0,0.0,0.0,-3.0584,-3.0958,0.0,-3.119,-3.119,-3.131,-3.1565,-3.186,-3.2179,-3.2467,-3.2727,-3.2743,-3.2501,-3.2632,-3.2793,-3.2952,-3.3124,-3.339,-3.3807,-3.3807,-3.3666,-3.3404,-3.3404,-3.324,-3.2981,-3.327,-3.3404,-3.3404,-3.3361,-3.3328,-3.3343,-3.3522,-3.3578,-3.3592,-3.3748,-3.3807,-3.3807,0.0,0.0,0.0,0.0,0.0,0.0,0.0,0.0,-2.0877,-2.1026,-2.2243,-2.3061,-2.3008,-2.3183,-2.3312,-2.3312,-2.3312,-2.34,-2.3622,-2.4223,-2.4799,-2.5247,-2.6333,-2.7151,-2.7585,-2.76,-2.76,-2.76,-2.76,-2.76,-2.76,-2.76,-2.76,-2.76,-2.76,-2.76,-2.76,-2.76,-2.76,-2.7575,-2.706,-2.6878,-2.6826,0.0,0.0,0.0,0.0,0.0,0.0,0.0,0.0,0.0,0.0,0.0,0.0,0.0,0.0,0.0,0.0,0.0,0.0,0.0,0.0,0.0,0.0,0.0,0.0,0.0,0.0,0.0,0.0,0.0,0.0,0.0,0.0,0.0,0.0,-3.0477,-3.0601,-3.0601,-3.1081,-3.1351,-3.121,-3.1466,-3.1677,-3.1789,-3.223,-3.2632,-3.2952,-3.3211,-3.324,-3.2968,-3.3124,-3.3199,-3.3199,-3.3332,-3.3536,-3.3807,-3.3807,-3.3666,-3.339,-3.339,-3.3225,-3.2965,-3.3273,-3.339,-3.3404,-3.3536,-3.368,-3.3807,-3.3807,-3.3807,-3.3807,-3.3807,-3.3807,-3.3807,0.0,0.0,0.0,0.0,0.0,0.0,0.0,-1.9483,-2.0366,-2.1575,-2.2313,-2.2936,-2.3513,-2.3054,-2.2694,-2.2694,-2.2694,-2.2991,-2.3672,-2.4294,-2.5217,-2.6533,-2.723,-2.7575,-2.7575,-2.76,-2.76,-2.76,-2.76,-2.76,-2.76,-2.76,-2.76,-2.76,-2.76,-2.76,-2.76,-2.76,-2.76,-2.76,-2.7575,-2.7575,-2.76,0.0,0.0,0.0,0.0,0.0,0.0,0.0,0.0,0.0,0.0,0.0,0.0,0.0,0.0,0.0,0.0,0.0,0.0,0.0,0.0,0.0,0.0,0.0,0.0,0.0,0.0,0.0,0.0,0.0,0.0,0.0,0.0,0.0,-3.0414,-3.0838,-3.119,-3.119,-3.1528,-3.164,-3.1249,-3.1968,-3.2299,-3.1844,-3.2247,-3.2534,-3.2534,-3.2534,-3.2534,-3.2534,-3.2983,-3.3214,-3.3214,-3.3606,-3.3807,-3.3844,-3.3844,-3.3844,-3.388,-3.388,-3.388,-3.388,-3.388,-3.388,-3.3853,-3.3466,-3.3524,-3.3862,-3.3812,-3.3793,-3.3807,-3.3807,-3.3807,-3.3807,0.0,0.0,0.0,0.0,0.0,0.0,0.0,-1.9949,-2.1056,-2.2282,-2.2972,-2.325,-2.2972,-2.2785,-2.2694,-2.2694,-2.2694,-2.3165,-2.4295,-2.4946,-2.5675,-2.648,-2.6698,-2.68,-2.68,-2.7331,-2.76,-2.76,-2.76,-2.76,-2.76,-2.76,-2.76,-2.76,-2.76,-2.76,-2.76,-2.76,-2.76,-2.7534,-2.7023,-2.7111,-2.7534,0.0,0.0,0.0,0.0,0.0,0.0,0.0,0.0,0.0,0.0,0.0,0.0,0.0,0.0,0.0,0.0,0.0,0.0,0.0,0.0,0.0,0.0,0.0,0.0,0.0,0.0,0.0,0.0,0.0,0.0,0.0,-3.1075,-3.1151,-3.0975,-3.1112,-3.119,-3.119,-3.131,-3.1312,-3.121,-3.1677,-3.2074,-3.2299,-3.2745,-3.3136,-3.3433,-3.3447,-3.3447,-3.3447,-3.3564,-3.3652,-3.3652,-3.3734,-3.41,-3.4674,-3.4674,-3.5,-3.5605,-3.5605,-3.5605,-3.5605,-3.5605,-3.5605,-3.5605,-3.5487,-3.5502,-3.5449,-3.3949,-3.3536,-3.3807,-3.3807,-3.3807,-3.3807,0.0,0.0,0.0,0.0,0.0,0.0,0.0,-1.9768,-2.089,-2.1794,-2.2659,-2.2972,-2.2346,-2.2058,-2.2011,-2.2253,-2.2555,-2.3263,-2.4578,-2.5477,-2.6003,-2.604,-2.6336,-2.6363,-2.6041,-2.6759,-2.6982,-2.6666,-2.6666,-2.6837,-2.7137,-2.7137,-2.7306,-2.76,-2.76,-2.76,-2.76,-2.76,-2.76,-2.756,-2.7111,-2.7229,-2.7534,-2.7111,-2.7229,-2.76,-2.76,-2.76,-2.76,-2.76,0.0,0.0,0.0,0.0,0.0,0.0,0.0,0.0,0.0,0.0,0.0,0.0,0.0,0.0,0.0,0.0,0.0,0.0,0.0,0.0,0.0,0.0,0.0,0.0,-3.119,-3.119,-3.119,-3.119,-3.119,-3.119,-3.1351,-3.1389,-3.121,-3.175,-3.2109,-3.2196,-3.2648,-3.3014,-3.324,-3.376,-3.4047,-3.4047,-3.4568,-3.4853,-3.4853,-3.4853,-3.5073,-3.5536,-3.5536,-3.5807,-3.6303,-3.6303,-3.6303,-3.6303,-3.6303,-3.6303,-3.627,-3.6087,-3.6117,-3.6142,0.0,0.0,0.0,0.0,-3.3807,-3.3807,0.0,0.0,0.0,0.0,0.0,0.0,0.0,-1.9252,-2.0213,-2.0809,-2.1882,-2.2323,-2.1663,-2.1113,-2.1053,-2.1663,-2.2301,-2.3287,-2.4687,-2.5782,-2.6041,-2.5315,-2.5987,-2.6041,-2.5287,-2.6014,-2.6068,-2.5398,-2.5398,-2.5783,-2.651,-2.651,-2.6878,-2.76,-2.76,-2.76,-2.76,-2.76,-2.76,-2.7625,-2.766,-2.766,-2.76,-2.76,-2.76,-2.76,-2.76,-2.76,-2.7625,-2.7675,0.0,0.0,0.0,0.0,0.0,0.0,0.0,0.0,0.0,0.0,0.0,0.0,0.0,0.0,0.0,0.0,0.0,0.0,0.0,0.0,0.0,0.0,0.0,0.0,-3.119,-3.119,-3.119,-3.119,-3.119,-3.119,-3.1526,-3.1584,-3.123,-3.1932,-3.23,-3.1964,-3.2422,-3.276,-3.2831,-3.3982,0.0,0.0,0.0,-3.6303,-3.6303,-3.6303,-3.634,-3.6431,-3.6431,-3.6468,-3.656,-3.656,-3.656,-3.656,-3.656,-3.656,-3.6531,-3.6124,-3.6149,-3.634,-3.5481,-3.5151,-3.5059,-3.4357,-3.4082,-3.4082,0.0,0.0,0.0,0.0,0.0,0.0,0.0,-1.9141,-1.9831,-2.1323,-2.1736,-2.1653,-2.1053,-2.087,-2.1053,-2.1663,-2.2301,-2.3445,-2.5232,-2.5496,-2.5287,-2.4538,-2.5231,-2.5259,-2.4538,-2.5231,-2.5536,-2.5398,-2.5398,-2.5783,-2.651,-2.651,-2.6878,-2.76,-2.76,-2.76,-2.76,-2.76,-2.76,-2.7635,-2.814,-2.8042,-2.76,-2.76,-2.76,-2.76,-2.76,-2.76,-2.766,-2.8165,-2.8334,-2.8415,-2.8904,-2.9065,0.0,0.0,0.0,0.0,0.0,0.0,0.0,0.0,0.0,0.0,0.0,0.0,0.0,0.0,0.0,0.0,0.0,0.0,0.0,-3.1171,-3.119,-3.119,-3.119,-3.119,-3.119,-3.119,-3.1271,-3.1291,-3.121,-3.164,-3.2175,-3.2743,-3.354,-3.4285,-3.4898,-3.5557,-3.5926,-3.5926,-3.6182,-3.6303,-3.6303,-3.6303,-3.6615,-3.7272,-3.7272,0.0,-3.8248,-3.8248,-3.8248,-3.8248,-3.8248,-3.8248,-3.8215,-3.8135,-3.7766,-3.7199,-3.6376,-3.6046,-3.6028,-3.5862,-3.5826,-3.5826,0.0,0.0,0.0,0.0,0.0,0.0,0.0,-1.8917,-1.9496,-2.0598,-2.1051,-2.1137,-2.082,-2.0795,-2.1053,-2.1663,-2.2605,-2.3977,-2.5882,-2.5627,-2.5063,-2.4321,-2.5007,-2.4866,-2.3708,-2.4452,-2.4639,-2.4237,-2.4639,-2.5231,-2.596,-2.6336,-2.6878,-2.76,-2.76,-2.76,-2.76,-2.76,-2.76,-2.7635,-2.8262,-2.8319,-2.8091,-2.8376,-2.8496,-2.8496,-2.8496,-2.8496,-2.8543,-2.885,-2.8966,-2.8996,-2.9293,-2.9406,-2.9406,0.0,0.0,0.0,0.0,0.0,0.0,0.0,0.0,0.0,0.0,0.0,0.0,0.0,0.0,-3.0838,-3.1151,0.0,-3.119,-3.119,-3.119,-3.119,-3.119,-3.119,-3.119,-3.119,-3.1389,-3.168,-3.2113,-3.2506,-3.309,-3.388,-3.439,-3.4821,-3.518,-3.6057,-3.6549,-3.6549,-3.7171,-3.7496,-3.7496,-3.7496,-3.7698,-3.8102,-3.8102,-3.8303,-3.8707,-3.8707,-3.8707,-3.8707,-3.8707,-3.8707,-3.8707,-3.8707,-3.8469,-3.8065,-3.7661,-3.7019,-3.6303,-3.6303,-3.6303,-3.6303,0.0,0.0,0.0,0.0,0.0,0.0,0.0,-1.8621,-1.9149,-1.9724,-2.0283,-2.0646,-2.0795,-2.0795,-2.1146,-2.2007,-2.297,-2.4283,-2.5956,-2.5508,-2.4922,-2.4321,-2.5007,-2.4753,-2.3365,-2.3972,-2.3914,-2.3108,-2.3738,-2.4538,-2.5398,-2.6014,-2.6774,-2.76,-2.76,-2.76,-2.76,-2.76,-2.7675,-2.7835,-2.8439,-2.8748,-2.8919,-2.9518,-2.9607,-2.9406,-2.9406,-2.9406,-2.9429,-2.954,-2.9563,-2.9585,-2.9717,-2.9761,-2.9761,-2.9761,-2.9761,0.0,0.0,0.0,0.0,0.0,0.0,0.0,0.0,-3.0965,-3.1329,-3.1329,-3.1329,-3.1291,-3.121,-3.119,-3.119,-3.119,-3.119,-3.119,-3.119,-3.1309,-3.141,-3.141,-3.1711,-3.2218,-3.3026,-3.3529,-3.4164,-3.5048,-3.5207,-3.533,-3.5473,-3.6544,-3.7174,-3.7174,-3.8167,-3.8707,-3.8707,-3.8707,-3.8707,-3.8707,-3.8707,-3.8707,-3.8707,-3.8707,-3.8707,-3.8707,-3.8707,-3.8707,-3.8707,-3.8707,-3.8707,-3.8707,-3.8707,-3.7918,-3.6762,-3.6762,-3.6762,-3.6762,0.0,0.0,0.0,0.0,0.0,0.0,0.0,0.0,-1.8653,-1.966,-1.9875,-2.0131,-2.0734,-2.0795,-2.1494,-2.3248,-2.3415,-2.3742,-2.4486,-2.4452,-2.4408,-2.4292,-2.5007,-2.5007,-2.4176,-2.4263,-2.3914,-2.3108,-2.3198,-2.3989,-2.5398,-2.5481,-2.6269,-2.76,-2.76,-2.76,-2.76,-2.76,-2.791,-2.8439,-2.9042,-2.9629,-3.0166,-3.076,-3.0335,-2.9406,-2.9406,-2.9406,-2.9473,-3.0016,-3.0187,-3.0293,-3.0838,-3.0995,-3.0995,-3.0995,-3.0995,-3.1078,-3.142,-3.1844,-3.1969,-3.1181,-3.1319,-3.1625,0.0,-3.1679,-3.1734,-3.1734,-3.1734,-3.1623,-3.1269,-3.119,-3.119,-3.119,-3.119,-3.119,-3.119,-3.1769,-3.2175,-3.2175,-3.2215,-3.2474,-3.304,-3.3723,-3.4628,-3.5792,-3.6323,-3.6868,-3.7536,-3.8152,-3.8499,-3.8499,-3.8621,-3.8707,-3.8707,-3.8707,-3.8707,-3.8707,-3.8707,-3.8707,-3.8707,-3.8707,-3.8707,-3.8707,-3.8707,-3.8707,-3.8707,-3.8707,-3.8707,-3.8707,-3.8707,-3.8597,-3.8432,-3.8432,-3.8432,-3.8432,0.0,0.0,0.0,0.0,0.0,0.0,0.0,0.0,0.0,0.0,-1.9798,-2.0055,-2.0734,-2.1113,-2.21,-2.4085,-2.338,-2.3608,-2.5453,-2.4794,-2.4292,-2.4292,-2.4595,-2.4624,-2.4321,-2.4292,-2.4337,-2.4439,-2.4881,-2.5412,-2.6041,-2.6481,-2.6993,-2.76,-2.76,-2.76,-2.7625,-2.7968,-2.8286,-2.8583,-2.954,-3.0081,-3.0372,-3.0975,-3.0878,-3.0456,-3.0456,-3.0456,0.0,-3.074,-3.0821,-3.0902,-3.1413,-3.1564,-3.1603,-3.1878,-3.1967,-3.1986,-3.2161,-3.235,-3.2417,-3.2056,-3.2074,-3.2213,-3.2213,-3.2213,-3.2127,-3.1861,-3.1807,-3.1752,-3.1584,-3.1564,-3.164,-3.1896,-3.1732,-3.1718,-3.2164,-3.227,-3.2584,-3.3313,-3.3782,-3.414,-3.4359,-3.4869,-3.5717,-3.7005,-3.7321,-3.7721,-3.8332,-3.8578,-3.8707,-3.8707,-3.8707,-3.8707,-3.8707,-3.8707,-3.8707,-3.8707,-3.8707,-3.8707,-3.8707,-3.8707,-3.8707,-3.8707,-3.8707,-3.8707,-3.8707,-3.8707,-3.8707,-3.8707,-3.8707,-3.8707,-3.8707,-3.8707,-3.8707,-3.8707,0.0,0.0,0.0,0.0,0.0,0.0,0.0,0.0,0.0,0.0,-1.9669,-2.0055,-2.0734,-2.1342,-2.2283,-2.3717,-2.2973,-2.3245,-2.5203,-2.4473,-2.406,-2.4292,-2.4292,-2.4292,-2.4292,-2.4509,-2.4766,-2.5091,-2.5837,-2.6283,-2.651,-2.7034,-2.7408,-2.76,-2.76,-2.76,-2.765,-2.8222,-2.8606,-2.885,-2.987,-3.0393,-3.0597,-3.1035,-3.119,-3.121,-3.1329,-3.137,-3.1389,-3.1506,-3.1562,-3.1601,-3.1897,-3.1986,-3.2057,-3.2401,-3.2599,-3.2665,-3.2534,-3.2681,-3.2809,-3.2567,-3.2599,-3.2697,-3.2697,-3.2697,-3.2599,-3.2264,-3.2196,-3.2144,-3.2022,-3.1986,-3.2092,-3.2451,-3.2388,-3.2527,-3.3102,-3.3273,-3.3662,-3.4584,-3.5355,-3.5826,-3.5826,-3.6212,-3.6916,-3.8046,-3.8115,-3.8283,-3.8692,-3.8707,-3.8707,-3.8707,-3.8707,-3.8707,-3.8707,-3.8707,-3.8707,-3.8707,-3.8707,-3.8707,-3.8707,-3.8707,-3.8707,-3.8707,-3.8707,-3.8707,-3.8707,-3.8707,-3.8707,-3.8707,-3.8707,-3.8707,-3.8707,-3.8707,-3.8707,-3.8707,0.0,0.0,0.0,0.0,0.0,0.0,0.0,0.0,0.0,0.0,0.0,0.0,0.0,-2.1342,-2.1708,-2.1678,-2.2128,-2.2405,-2.2441,-2.2866,-2.3484,-2.4263,-2.4292,-2.4292,-2.4292,-2.5007,-2.5035,-2.4321,-2.5063,-2.5783,-2.651,-2.651,-2.6904,-2.76,-2.76,-2.76,-2.765,-2.8222,-2.885,-2.9429,-3.0059,-3.0658,-3.1171,-3.119,-3.119,-3.1252,-3.1641,-3.1789,-3.1861,-3.2316,-3.2467,-3.2467,-3.2467,-3.2484,-3.2484,-3.2501,-3.2809,-3.3075,-3.2616,-3.3118,-3.3564,-3.2713,-3.284,-3.3184,-3.3184,-3.3184,-3.3166,-3.3169,-3.3169,-3.3014,-3.2567,-3.2484,-3.2484,-3.2501,-3.3137,-3.365,-3.3667,-3.4942,-3.5898,-3.5952,-3.6642,-3.7137,-3.7137,-3.7578,-3.808,-3.8627,-3.8692,-3.8673,-3.8707,-3.8707,-3.8707,-3.8707,-3.8707,-3.8707,-3.8707,-3.8707,-3.8707,-3.8707,-3.8707,-3.8707,-3.8707,-3.8707,-3.8707,-3.8707,-3.8707,-3.8707,-3.8707,-3.8707,-3.8707,-3.8707,-3.8707,-3.8707,-3.8707,-3.8707,-3.8707,-3.8707,0.0,0.0,0.0,0.0,0.0,0.0,0.0,0.0,0.0,0.0,0.0,0.0,0.0,0.0,0.0,0.0,-2.1812,-2.2205,-2.2979,-2.2722,-2.2867,-2.3471,-2.3514,-2.3989,-2.5007,-2.5259,-2.5755,-2.6493,-2.6733,-2.6982,-2.7229,-2.7229,-2.7357,-2.76,-2.76,-2.76,-2.7675,-2.867,-2.9203,-2.9496,-3.0497,-3.1015,-3.119,-3.119,-3.137,-3.1658,0.0,-3.2057,-3.1879,-3.235,-3.2501,-3.255,-3.2874,-3.2968,-3.3014,-3.3284,-3.3462,-3.3564,-3.3419,-3.3578,-3.3734,-3.3433,-3.3476,-3.3592,-3.3592,-3.3592,-3.3522,-3.3258,-3.3199,-3.3136,-3.2999,-3.3398,-3.3851,-3.4129,-3.4612,-3.5135,-3.5622,-3.5865,-3.631,-3.7148,-3.7506,-3.7808,-3.8152,-3.772,-3.7649,-3.8115,-3.8167,-3.8316,-3.8692,-3.8707,-3.8707,-3.8707,-3.8707,-3.8707,-3.8707,-3.8707,-3.8707,-3.8707,-3.8707,-3.8707,-3.8707,-3.8707,-3.8707,-3.8707,-3.8707,-3.8707,-3.8707,-3.8707,-3.8707,-3.8707,-3.8707,-3.8707,-3.8707,-3.8707,-3.8707,-3.8707,0.0,0.0,0.0,0.0,0.0,0.0,0.0,0.0,0.0,0.0,0.0,0.0,0.0,0.0,0.0,0.0,0.0,-2.1601,-2.2381,-2.2356,-2.2443,-2.2794,-2.2995,-2.3708,-2.4979,-2.5259,-2.6,-2.7203,-2.7458,-2.76,-2.76,-2.76,-2.76,-2.76,-2.76,-2.771,-2.7993,-2.8973,-2.9518,-2.9805,-3.0797,-3.119,-3.121,-3.1351,-3.1565,0.0,-3.2516,-3.2567,-3.2366,-3.2807,-3.2965,-3.3011,-3.3317,-3.3486,-3.3593,-3.3743,-3.3881,-3.391,-3.3829,-3.3807,-3.3807,-3.3807,-3.3807,-3.3807,-3.3807,-3.3807,-3.3721,-3.3465,-3.364,-3.384,-3.384,-3.4512,-3.5165,-3.5416,-3.5929,-3.6435,-3.693,-3.6973,-3.7266,-3.8077,-3.8183,-3.8316,-3.8676,-3.8118,-3.7861,-3.8167,-3.8183,-3.846,-3.9095,-3.9129,-3.9258,-3.9536,-3.957,-3.9423,-3.9129,-3.9129,-3.8982,-3.8707,-3.8707,-3.8707,-3.8707,-3.8707,-3.8707,-3.8707,-3.8707,-3.8707,-3.8707,-3.8707,-3.8707,-3.8707,-3.8707,-3.8707,-3.8707,-3.8707,-3.8707,-3.8707,0.0,0.0,0.0,0.0,0.0,0.0,0.0,0.0,0.0,0.0,0.0,0.0,0.0,0.0,0.0,0.0,0.0,0.0,-2.0691,-2.1672,-2.2275,-2.2355,-2.2871,-2.3564,-2.4394,-2.5091,-2.581,-2.6563,-2.7255,-2.76,-2.76,-2.76,-2.76,-2.76,-2.76,-2.7959,-2.8535,-2.9134,-2.9739,-3.0335,-3.0975,-3.119,-3.1232,-3.1623,-3.1807,-3.1951,-3.284,-3.3199,-3.3288,-3.368,-3.3807,-3.3807,-3.3807,-3.3974,-3.4135,-3.3863,-3.3986,-3.4123,-3.3863,-3.3807,-3.3807,-3.3807,-3.3807,-3.3788,-3.3815,-3.3802,-3.3807,-3.387,-3.4486,-3.5023,-3.5059,-3.5789,-3.6358,-3.6358,-3.7052,-3.7566,-3.7566,-3.8212,-3.8707,-3.8707,-3.8707,-3.8707,-3.8707,-3.8707,-3.8707,-3.8707,-3.8744,-3.9093,-3.9845,-3.9937,-4.0304,-4.1077,-4.1095,-4.0728,-3.9955,-3.9918,-3.9515,-3.8762,-3.8726,-3.8707,-3.8707,-3.8707,-3.8707,-3.8707,-3.8707,-3.8707,-3.8707,-3.8707,-3.8707,-3.8707,-3.8707,-3.8707,-3.8707,-3.8707,-3.8707,-3.8707,0.0,0.0,0.0,0.0,0.0,0.0,0.0,0.0,0.0,0.0,0.0,0.0,0.0,0.0,0.0,0.0,0.0,0.0,-2.0666,-2.1388,-2.2174,-2.3076,-2.3737,-2.4669,-2.5919,-2.6122,-2.6575,-2.7331,-2.7524,-2.76,-2.76,-2.76,-2.76,-2.76,-2.76,-2.7959,-2.8535,-2.9134,-2.9739,-3.0335,-3.0975,-3.119,-3.121,-3.1312,-3.1769,-3.2349,-3.2599,-3.3105,-3.3666,-3.378,-3.3807,-3.3807,-3.3807,-3.3855,-3.3889,-3.3815,-3.3855,-3.3889,-3.3815,-3.3807,-3.3807,-3.3807,-3.3807,-3.3855,-3.4056,-3.3935,-3.4034,-3.4884,-3.5029,-3.5206,-3.5862,-3.6633,-3.7199,-3.7199,-3.7878,-3.8395,-3.8395,-3.8579,-3.8707,-3.8707,-3.8707,-3.8707,-3.8707,-3.8707,-3.8707,-3.8707,-3.9258,-3.968,-3.9882,-4.0469,-4.0875,-4.1095,-4.1095,-4.1003,-4.0799,-4.0194,-3.979,-3.9588,-3.9001,-3.8707,-3.8707,-3.8707,-3.8707,-3.8707,-3.8707,-3.8707,-3.8707,-3.8707,-3.8707,-3.8707,-3.8707,-3.8707,-3.8707,-3.8707,-3.8707,-3.8707,0.0,0.0,0.0,0.0,0.0,0.0,0.0,0.0,0.0,0.0,0.0,0.0,0.0,0.0,0.0,0.0,0.0,0.0,0.0,-2.0872,-2.1628,-2.2576,-2.3205,-2.4322,-2.6023,-2.6052,-2.656,-2.76,-2.76,-2.76,-2.76,-2.76,-2.76,-2.76,-2.76,-2.8076,-2.8919,-2.9248,-2.9892,0.0,0.0,-3.119,-3.121,-3.1408,-3.177,-3.2213,-3.2434,-3.295,-3.3564,-3.3734,-3.3807,-3.3807,-3.3807,-3.3876,-3.3948,-3.3829,-3.3876,-3.3948,-3.3829,-3.3807,-3.3807,-3.3807,-3.3807,-3.3842,-3.3999,-3.3915,-3.4081,-3.509,-3.545,-3.585,-3.6823,-3.7558,-3.807,-3.8186,-3.8479,-3.8707,-3.8707,-3.8707,-3.8707,-3.8707,-3.8707,-3.8707,-3.8707,-3.8707,-3.8854,-3.9203,-3.9643,-4.0047,-4.0414,-4.1203,-4.1791,-4.2139,-4.2158,-4.1992,-4.1627,-4.0836,-4.0432,-4.0414,-3.9606,-3.9239,-3.9203,-3.8854,-3.8707,-3.8707,-3.8707,-3.8707,-3.8707,-3.8707,-3.8707,-3.8707,-3.8707,-3.8707,-3.8707,-3.8707,-3.8707,-3.8707,0.0,0.0,0.0,0.0,0.0,0.0,0.0,0.0,0.0,0.0,0.0,0.0,0.0,0.0,0.0,0.0,0.0,0.0,0.0,0.0,0.0,-2.1602,-2.2141,-2.3374,-2.5347,-2.5387,-2.6031,-2.733,-2.742,-2.7465,-2.7465,-2.7555,-2.76,-2.76,-2.76,-2.8222,-2.9293,-2.9361,-3.0059,-3.1075,-3.1171,-3.119,-3.1249,0.0,0.0,0.0,-3.2401,0.0,0.0,0.0,-3.3807,-3.3807,-3.3807,-3.3961,-3.4099,-3.3863,-3.3961,-3.4105,-3.385,-3.3807,-3.3807,-3.3807,-3.3807,-3.382,-3.3842,-3.3907,-3.4206,-3.5041,-3.5872,-3.6785,-3.7806,-3.8393,-3.8777,-3.9013,-3.884,-3.8707,-3.8707,-3.8707,-3.8707,-3.8707,-3.8707,-3.8707,-3.8707,-3.8707,-3.9038,-3.9827,-3.9992,-4.0414,-4.1224,-4.2029,-4.2782,-4.3478,-4.3515,-4.3149,-4.247,-4.1645,-4.126,-4.1242,-4.0432,-4.0065,-4.0029,-3.935,-3.9019,-3.9019,-3.9019,-3.8964,-3.8854,-3.8854,-3.8799,-3.8707,-3.8707,-3.8707,-3.8707,-3.8707,-3.8707,-3.8707,0.0,0.0,0.0,0.0,0.0,0.0,0.0,0.0,0.0,0.0,-1.6996,-1.7934,0.0,0.0,0.0,0.0,0.0,0.0,0.0,0.0,0.0,0.0,-2.2334,-2.3342,-2.4813,-2.4838,-2.5204,-2.5959,-2.6497,-2.6752,-2.6806,-2.7345,-2.76,-2.76,-2.76,-2.7993,-2.8701,-2.918,-2.9805,-3.0497,-3.0995,-3.119,-3.121,0.0,0.0,0.0,0.0,0.0,0.0,0.0,-3.3807,-3.3807,-3.3807,-3.3829,-3.385,-3.3802,-3.3829,-3.3868,-3.3802,-3.3807,-3.3807,-3.3807,-3.3807,-3.3868,-3.4093,-3.4465,-3.5106,-3.6181,-3.6869,-3.7544,-3.8394,-3.8643,-3.8723,-3.8762,-3.8735,-3.8707,-3.8707,-3.8707,-3.8707,-3.8707,-3.8707,-3.8707,-3.8707,-3.8707,-3.9038,-3.9827,-4.0524,-4.1242,-4.2047,-4.2837,-4.3368,-4.3515,-4.3515,-4.3441,-4.3277,-4.2488,-4.2084,-4.2084,-4.1295,-4.0875,-4.0875,-4.0747,-4.0673,-4.0673,-4.0673,-4.0322,-3.968,-3.968,-3.9294,-3.8707,-3.8707,-3.8707,-3.8707,-3.8707,-3.8707,-3.8707,0.0,0.0,0.0,0.0,0.0,0.0,0.0,-1.4264,-1.474,-1.5057,-1.5883,-1.6743,-1.7523,-1.8259,-1.9006,0.0,0.0,0.0,0.0,0.0,0.0,0.0,0.0,0.0,-2.3625,-2.4004,-2.4481,-2.512,0.0,-2.6078,-2.6093,-2.6408,-2.6557,-2.6557,-2.6557,-2.7094,-2.8023,-2.8608,-2.9426,-3.0335,-3.0975,-3.119,0.0,0.0,0.0,0.0,0.0,0.0,0.0,0.0,-3.3638,-3.3807,-3.3807,-3.3807,-3.3807,-3.3807,-3.3807,-3.3807,-3.3807,-3.3807,-3.3807,-3.3807,-3.3807,-3.3829,-3.3961,0.0,0.0,-3.6293,-3.7039,-3.779,-3.8718,-3.8788,-3.875,-3.8898,-3.8788,-3.8707,-3.8707,-3.8707,-3.8707,-3.8707,-3.8707,-3.8707,-3.8707,-3.8707,-3.9221,-4.0432,-4.0875,-4.1444,-4.2268,-4.3057,-4.3515,-4.3515,-4.3515,-4.3515,-4.3515,-4.3112,-4.291,-4.291,-4.2121,-4.1735,-4.1717,-4.1279,-4.1095,-4.1095,-4.1095,-4.0875,-4.0524,-4.0524,-4.0304,-3.9918,-3.9496,-3.9313,-3.9276,-3.8854,-3.8707,-3.8707,0.0,0.0,0.0,0.0,0.0,0.0,0.0,-1.3841,-1.426,-1.4727,-1.5289,-1.614,-1.7468,-1.8112,-1.8821,0.0,0.0,0.0,0.0,0.0,0.0,0.0,0.0,0.0,0.0,0.0,0.0,-2.4274,-2.502,0.0,0.0,0.0,0.0,0.0,-2.5615,-2.6151,-2.7126,-2.7725,-2.8726,0.0,0.0,-3.096,0.0,0.0,0.0,0.0,0.0,0.0,0.0,0.0,-3.3404,-3.3694,-3.3762,-3.3807,-3.3807,-3.3807,-3.3807,-3.3807,-3.3807,-3.3807,-3.3807,-3.3807,-3.3807,-3.3807,-3.3807,-3.4578,-3.5463,-3.6156,-3.7088,-3.8004,-3.886,-3.8844,-3.8777,-3.8971,-3.8844,-3.8707,-3.8707,-3.8707,-3.8707,-3.8707,-3.8707,0.0,-3.8707,-3.8854,-3.9551,-4.0985,-4.1407,-4.1901,-4.2525,-4.3149,-4.3515,-4.3515,-4.3515,-4.3515,-4.3515,-4.3515,-4.3515,-4.3496,-4.2855,-4.2561,-4.2543,-4.1901,-4.1625,-4.1625,-4.1625,-4.1517,-4.1352,-4.1352,-4.126,-4.104,-4.0396,-4.0047,-3.9808,-3.9184,-3.8854,-3.8707,0.0,0.0,0.0,0.0,0.0,0.0,0.0,-1.3841,-1.426,-1.4727,-1.5733,-1.6708,-1.7523,-1.766,-1.8274,0.0,0.0,0.0,0.0,0.0,0.0,0.0,0.0,0.0,0.0,0.0,0.0,-2.2867,-2.411,0.0,0.0,0.0,0.0,0.0,0.0,-2.5668,-2.5807,-2.6432,0.0,0.0,0.0,0.0,0.0,0.0,0.0,0.0,0.0,-3.1843,-3.2004,-3.2887,-3.3229,-3.3317,-3.3694,-3.3807,-3.3807,-3.3807,-3.3807,-3.3807,-3.3807,-3.3807,-3.3807,-3.3807,-3.3807,-3.3807,-3.3807,0.0,-3.6193,-3.6266,-3.7514,-3.8631,-3.8716,-3.8723,-3.8723,-3.8735,-3.8723,-3.8707,-3.8707,-3.8707,-3.8707,-3.8707,0.0,0.0,-3.8707,-3.935,-4.0157,-4.1022,-4.2451,-4.3296,-4.3404,-4.346,-4.3515,-4.3515,-4.3515,-4.3515,-4.3515,-4.3515,-4.3515,-4.3515,-4.3441,-4.3404,-4.3404,-4.3296,-4.3277,-4.3277,-4.3277,-4.2855,-4.2194,-4.2194,-4.1772,-4.1095,-4.1022,-4.0543,-3.9882,-3.9808,-3.9331,-3.8707,0.0,0.0,0.0,0.0,0.0,0.0,-1.3105,-1.3786,-1.4465,-1.4967,-1.6014,-1.7092,-1.8143,-1.8259,-1.8688,-1.9721,0.0,0.0,0.0,0.0,0.0,0.0,0.0,0.0,0.0,0.0,-2.1283,-2.1561,-2.2423,0.0,0.0,0.0,0.0,0.0,0.0,-2.4627,-2.5039,-2.565,0.0,0.0,0.0,0.0,0.0,0.0,0.0,0.0,0.0,0.0,-3.1861,-3.223,-3.2567,-3.2809,-3.2965,-3.3211,0.0,-3.3721,-3.3807,-3.3807,-3.3807,-3.3807,-3.3807,-3.3807,-3.3807,-3.3807,-3.3807,0.0,-3.6303,-3.6303,-3.7588,-3.8707,-3.8707,-3.8707,-3.8707,-3.8707,-3.8707,-3.8707,-3.8707,-3.8707,-3.8707,-3.8707,-3.8707,-3.8891,-3.9386,-3.9698,-4.0432,-4.1735,-4.2855,-4.3515,-4.3515,-4.3515,-4.3515,-4.3515,-4.3515,-4.3515,-4.3515,-4.3515,-4.3515,-4.3515,-4.3515,-4.3515,-4.3515,-4.3515,-4.3515,-4.3479,-4.316,-4.3014,-4.3003,-4.2668,-4.2539,-4.2454,-4.1611,-4.1299,-4.1244,-4.0392,-3.9598,-3.8942,0.0,0.0,0.0,0.0,0.0,-1.2905,-1.2905,-1.361,-1.4326,-1.4881,-1.6077,-1.7266,-1.8336,-1.8816,-1.9228,-1.9747,-1.9798,0.0,0.0,0.0,0.0,0.0,0.0,0.0,0.0,0.0,-2.0795,-2.0795,-2.1605,-2.2253,0.0,0.0,-2.3187,-2.3595,0.0,0.0,0.0,0.0,0.0,0.0,0.0,0.0,0.0,0.0,0.0,0.0,0.0,0.0,0.0,0.0,0.0,-3.2316,0.0,0.0,0.0,0.0,-3.3707,-3.3807,-3.3807,-3.3807,-3.3807,-3.3807,-3.3807,-3.3807,-3.3807,-3.5092,-3.6303,-3.6303,-3.7588,-3.8707,-3.8707,-3.8707,-3.8707,-3.8707,-3.8707,-3.8707,-3.8707,-3.8707,-3.8799,-3.9038,-3.9056,-3.9368,-4.0175,-4.0469,-4.1185,-4.2543,-4.3167,-4.3515,-4.3515,-4.3515,-4.3515,-4.3515,-4.3515,-4.3515,-4.3515,-4.3515,-4.3515,-4.3515,-4.3515,-4.3515,-4.3515,-4.3515,-4.3515,-4.3479,-4.3105,-4.316,-4.3462,-4.3087,-4.3087,-4.3159,-4.2175,-4.1795,-4.1669,-4.0686,-3.9837,-3.9156,0.0,0.0,0.0,0.0,0.0,0.0,-1.2905,-1.3257,-1.3725,-1.4326,-1.5906,-1.7219,-1.784,-1.9014,-1.9798,-1.9798,-1.9798,0.0,0.0,0.0,0.0,0.0,0.0,0.0,0.0,0.0,-2.0795,-2.0795,-2.2058,-2.2694,-2.2694,-2.3312,-2.3595,-2.3595,0.0,0.0,0.0,0.0,0.0,0.0,0.0,0.0,0.0,0.0,0.0,0.0,0.0,0.0,0.0,0.0,0.0,0.0,0.0,0.0,0.0,0.0,-3.3494,-3.3807,-3.3807,-3.3807,-3.3807,-3.3807,-3.3807,-3.3807,-3.3807,-3.5092,-3.6303,-3.6303,-3.7588,-3.8707,-3.8707,-3.8707,-3.8707,-3.8707,-3.8707,-3.8707,-3.8707,-3.8707,-3.9001,-3.979,-3.9882,-4.0194,-4.1003,-4.1809,-4.2598,-4.3441,-4.3515,-4.3515,-4.3515,-4.3515,-4.3515,-4.3515,-4.3515,-4.3515,-4.3515,-4.3515,-4.3515,-4.3515,-4.3515,-4.3515,-4.3515,-4.3515,-4.3515,-4.3515,-4.3479,-4.3479,-4.3515,-4.3479,-4.3178,-4.2711,-4.2693,-4.1839,-4.0618,-4.0598,-4.0085,-3.9287,0.0,0.0,0.0,0.0,0.0,0.0,0.0,-1.3359,-1.3921,-1.4458,-1.5386,-1.6305,-1.7203,-1.7656,-1.7993,-1.8278,-1.9228,0.0,0.0,0.0,0.0,0.0,0.0,0.0,0.0,0.0,-2.0131,-2.0131,-2.0979,-2.1619,-2.2016,-2.2202,-2.2538,-2.2987,-2.2987,-2.2987,0.0,0.0,0.0,0.0,0.0,0.0,0.0,0.0,0.0,0.0,0.0,0.0,0.0,0.0,0.0,0.0,0.0,0.0,0.0,-3.2196,-3.2791,-3.3375,-3.3375,-3.3578,-3.3734,-3.3465,-3.3592,-3.3807,-3.3807,-3.5092,-3.6303,-3.6303,-3.7588,-3.8707,-3.8707,-3.8707,-3.8707,-3.8707,-3.8707,-3.8707,-3.8707,-3.8707,-3.8799,-3.9056,-4.0047,-4.1038,-4.1846,-4.2653,-4.3222,-4.3478,-4.3515,-4.3515,-4.3515,-4.3515,-4.3515,-4.3515,-4.3515,-4.3515,-4.3515,-4.3515,-4.3515,-4.3515,-4.3515,-4.3515,-4.3515,-4.3515,-4.3515,-4.3479,-4.3105,-4.316,-4.3462,-4.3087,-4.2845,-4.2655,-4.2262,-4.1816,-4.1375,-4.0963,-4.0319,-3.9639,0.0,0.0,0.0,0.0,0.0,0.0,0.0,-1.3214,-1.3655,-1.4205,-1.4809,-1.5543,-1.6598,-1.6882,-1.716,-1.7561,-1.8447,0.0,0.0,0.0,0.0,0.0,0.0,0.0,0.0,-1.9798,-1.9798,-1.9798,-2.0472,-2.0979,-2.1366,-2.1592,-2.1922,-2.2323,-2.2603,-2.2694,0.0,0.0,0.0,0.0,0.0,0.0,-2.6811,0.0,0.0,0.0,0.0,0.0,0.0,0.0,0.0,0.0,0.0,0.0,0.0,0.0,-3.2213,-3.2713,-3.2887,-3.3121,-3.3284,-3.3229,-3.3375,0.0,-3.378,-3.5092,-3.6303,-3.6303,-3.7588,-3.8707,-3.8707,-3.8707,-3.8707,-3.8707,-3.8707,-3.8707,-3.8707,-3.8707,-3.8927,-3.9533,-4.0763,-4.1882,-4.2671,-4.3221,-4.3515,-4.3515,-4.3515,-4.3515,-4.3515,-4.3515,-4.3515,-4.3515,-4.3515,-4.3515,-4.3515,-4.3515,-4.3515,-4.3515,-4.3515,-4.3515,-4.3515,-4.3515,-4.3515,-4.3479,-4.316,-4.3196,0.0,-4.292,-4.2577,-4.2302,-4.1703,-4.1353,-4.1105,-4.0726,-4.0309,-3.9862,0.0,0.0,0.0,0.0,0.0,0.0,0.0,-1.2905,-1.3104,-1.3661,-1.417,-1.486,-1.59,-1.6491,-1.6955,-1.7368,0.0,0.0,0.0,0.0,0.0,0.0,0.0,0.0,-1.9798,-1.9747,-1.9747,-1.9798,-2.0472,-2.0795,-2.0795,-2.1366,-2.1639,-2.1663,-2.2291,-2.2581,-2.2672,0.0,0.0,0.0,0.0,0.0,0.0,0.0,0.0,0.0,0.0,0.0,0.0,0.0,0.0,0.0,0.0,0.0,0.0,0.0,0.0,0.0,0.0,-3.2451,-3.2599,-3.2999,-3.3136,-3.3306,-3.3753,-3.5114,0.0,-3.6358,-3.7624,-3.8707,-3.8707,-3.8707,-3.8707,-3.8707,-3.8707,-3.8707,-3.8707,-3.8762,-3.9368,-4.0912,-4.1809,-4.2616,-4.3423,-4.3515,-4.3515,-4.3515,-4.3515,-4.3515,-4.3515,-4.3515,-4.3515,-4.3515,-4.3515,-4.3515,-4.3515,-4.3462,-4.3444,-4.3444,-4.341,-4.3374,-4.3374,-4.3374,-4.3374,-4.3374,-4.3374,-4.3374,-4.3339,-4.2827,-4.2282,-4.1686,-4.1133,-4.0577,-4.0096,-4.0096,-4.0096,-4.0011,0.0,0.0,0.0,0.0,0.0,0.0,0.0,0.0,0.0,0.0,-1.3217,-1.3521,-1.4079,-1.4514,-1.4959,0.0,0.0,0.0,0.0,0.0,0.0,0.0,0.0,0.0,-1.9773,-1.9254,-1.9228,-1.9798,-2.0472,-2.0795,-2.0795,-2.0944,-2.1004,-2.1028,-2.1175,-2.15,-2.2016,-2.3128,0.0,0.0,0.0,0.0,0.0,0.0,0.0,0.0,-2.776,-2.8198,0.0,0.0,0.0,0.0,0.0,0.0,0.0,0.0,-3.1332,-3.137,-3.1485,0.0,-3.2451,-3.2196,-3.2663,-3.3391,0.0,-3.5312,-3.6468,-3.7088,-3.801,-3.8707,-3.8707,-3.8707,-3.8707,-3.8707,-3.8707,-3.8707,-3.8707,-3.9239,-3.9992,-4.0967,-4.1809,-4.2616,-4.3423,-4.3515,-4.3515,-4.3515,-4.3515,-4.3515,-4.3515,-4.3515,-4.3515,-4.3515,-4.3515,-4.3515,-4.3515,-4.3087,-4.2883,-4.2883,-4.2424,-4.2206,-4.2206,-4.2206,-4.2206,-4.2206,-4.2206,-4.2206,-4.2185,-4.2062,-4.1643,-4.111,-4.0949,-4.0577,-4.0096,-4.0096,-4.0096,-4.0079,0.0,0.0,0.0,0.0,0.0,0.0,0.0,0.0,0.0,0.0,0.0,0.0,0.0,0.0,0.0,0.0,0.0,0.0,0.0,0.0,0.0,0.0,0.0,-1.8474,-1.9281,-1.9228,-1.9397,-1.9798,-1.9825,-1.9838,-1.9838,-1.9838,-1.9838,-1.9863,-2.0509,-2.1137,-2.1758,-2.2737,-2.336,-2.3826,-2.5043,0.0,0.0,0.0,0.0,0.0,-2.76,-2.7993,0.0,-2.9203,-2.9805,-3.0414,0.0,0.0,0.0,0.0,-3.119,-3.119,-3.119,-3.1543,-3.1878,-3.1825,-3.2179,-3.2827,-3.3809,-3.4859,-3.5828,-3.6607,-3.7604,-3.8332,-3.8332,-3.853,-3.8707,-3.8707,-3.8707,-3.8836,-3.9203,-3.9625,-4.0341,-4.1515,-4.2029,-4.2616,-4.3423,-4.3515,-4.3515,-4.3515,-4.3515,-4.3515,-4.3515,-4.3515,-4.3515,-4.3515,-4.3515,-4.3392,-4.3142,-4.2845,-4.2577,-4.2282,-4.1958,-4.181,-4.181,-4.181,-4.181,-4.181,-4.181,-4.181,-4.1789,-4.1512,-4.1183,-4.0897,-4.0631,-4.0343,-4.0096,-4.0096,-4.0096,-4.0096,0.0,0.0,0.0,0.0,0.0,0.0,0.0,0.0,0.0,0.0,0.0,0.0,0.0,0.0,0.0,0.0,0.0,0.0,0.0,0.0,0.0,0.0,0.0,-1.8301,-1.8528,-1.9044,-1.9345,-1.9475,-1.8847,-1.8581,-1.8688,-1.8688,-1.8688,-1.8768,-2.0169,-2.0966,-2.1293,-2.2202,-2.2951,-2.3635,-2.484,0.0,0.0,0.0,0.0,0.0,0.0,0.0,0.0,-2.9042,-2.9651,-3.0272,-3.0878,0.0,0.0,0.0,0.0,0.0,-3.119,-3.119,-3.1291,-3.1623,-3.1752,-3.2141,-3.3407,-3.427,-3.5049,-3.5932,-3.7006,-3.779,-3.779,-3.8216,-3.8578,-3.8578,-3.8643,-3.8982,-3.979,-4.001,-4.0634,-4.2121,-4.2415,-4.2745,-4.3441,-4.3515,-4.3515,-4.3515,-4.3515,-4.3515,-4.3515,-4.3515,-4.3462,-4.3392,-4.3375,-4.3069,-4.244,-4.2519,-4.2302,-4.181,-4.1621,-4.1552,-4.1552,-4.1552,-4.1552,-4.1552,-4.1552,-4.1552,-4.1508,-4.099,-4.078,-4.0733,-4.0286,-4.0096,-4.0096,-4.0096,-4.0096,-4.0096,0.0,0.0,0.0,0.0,0.0,0.0,0.0,0.0,0.0,0.0,0.0,0.0,0.0,0.0,0.0,0.0,0.0,0.0,0.0,0.0,0.0,-1.5555,-1.5796,-1.6489,-1.7743,-1.7274,-1.7302,-1.7922,-1.7825,-1.8085,-1.8688,-1.8688,-1.8688,-1.8768,-2.0169,-2.0194,-1.9294,-2.1616,-2.2676,-2.2882,-2.4089,0.0,0.0,0.0,0.0,0.0,0.0,0.0,0.0,-2.8439,-2.9042,-2.9651,-3.0251,0.0,0.0,0.0,0.0,0.0,-3.119,-3.119,-3.121,-3.1271,-3.1564,-3.2224,-3.3758,-3.4478,-3.5208,-3.6695,-3.7159,-3.7304,-3.7304,-3.7685,-3.8013,-3.8013,-3.8399,-3.8982,-3.979,-4.0487,-4.1258,-4.2194,-4.2892,-4.3368,-4.3496,-4.3515,-4.3515,-4.3515,-4.3515,-4.3515,-4.3515,-4.3515,-4.3286,-4.2845,-4.2826,-4.2284,-4.1201,-4.1686,-4.1895,-4.1789,-4.0814,-4.036,-4.036,-4.036,-4.036,-4.036,-4.036,-4.036,-4.036,-4.0254,-4.0229,-4.0204,-4.0121,-4.0096,-4.0096,-4.0096,-4.0096,-4.0096,0.0,0.0,0.0,0.0,0.0,0.0,0.0,0.0,0.0,0.0,0.0,0.0,0.0,0.0,0.0,0.0,0.0,0.0,0.0,0.0,-1.541,-1.541,-1.541,-1.5911,-1.6978,-1.7062,-1.7246,-1.7605,-1.7191,-1.7174,-1.7523,-1.7523,-1.7715,-1.814,-1.9204,-1.948,-1.9326,-2.1206,-2.2405,-2.3121,0.0,0.0,0.0,0.0,0.0,0.0,0.0,0.0,0.0,0.0,-2.8685,-2.9035,-2.9629,0.0,0.0,0.0,0.0,0.0,-3.119,-3.119,-3.119,-3.119,-3.1638,-3.2359,-3.3508,-3.422,-3.495,-3.6112,-3.6563,-3.6764,-3.6764,-3.7192,-3.7614,-3.7859,-3.7877,-3.8397,-3.9853,-4.0413,-4.114,-4.2377,-4.3101,-4.3515,-4.3515,-4.3515,-4.3515,-4.3515,-4.3515,-4.3515,-4.3515,-4.3232,-4.2958,-4.2711,-4.2382,-4.1937,-4.1402,-4.1335,-4.1173,-4.0885,-4.0336,-4.0096,-4.0096,-4.0096,-4.0096,-4.0096,-4.0096,-4.0096,-4.0096,-4.0096,-4.0096,-4.0096,-4.0096,-4.0096,-4.0096,-4.0096,-4.0096,-4.0096,0.0,0.0,0.0,0.0,0.0,0.0,0.0,0.0,0.0,0.0,0.0,0.0,0.0,0.0,0.0,0.0,0.0,0.0,0.0,0.0,-1.541,-1.541,-1.541,-1.5661,-1.6236,-1.681,-1.7079,-1.7079,-1.6528,-1.6322,-1.6492,-1.668,-1.7043,-1.7562,-1.8499,-1.912,-1.9568,-2.1066,-2.2235,-2.3195,0.0,0.0,0.0,0.0,0.0,0.0,0.0,0.0,0.0,0.0,0.0,0.0,0.0,0.0,0.0,-3.0293,-3.072,-3.119,-3.119,-3.119,-3.1241,-3.141,-3.1887,-3.2496,-3.3237,-3.3964,-3.4709,-3.5447,-3.592,-3.6224,-3.6224,-3.6643,-3.7173,-3.7667,-3.7433,-3.7873,-3.9765,-4.0092,-4.0703,-4.2302,-4.2847,-4.3105,-4.3105,-4.3105,-4.3105,-4.3105,-4.3105,-4.3105,-4.3105,-4.2714,-4.2422,-4.2282,-4.1832,-4.1512,-4.1397,-4.0943,-4.0577,-4.0286,-4.0171,-4.0096,-4.0096,-4.0096,-4.0096,-4.0096,-4.0096,-4.0096,-4.0096,-4.0096,-4.0096,-4.0096,-4.0096,-4.0096,-4.0096,-4.0096,-4.0096,-4.0096,0.0,0.0,0.0,0.0,0.0,0.0,0.0,0.0,0.0,0.0,0.0,0.0,0.0,0.0,0.0,0.0,0.0,0.0,0.0,0.0,-1.541,-1.541,-1.541,-1.541,-1.5468,-1.5517,-1.5546,-1.5546,-1.5497,-1.5835,-1.651,-1.7191,-1.7414,-1.7307,-1.8849,-1.9382,-1.9267,-2.1348,-2.23,-2.2446,-2.2971,0.0,0.0,0.0,0.0,0.0,0.0,0.0,0.0,0.0,0.0,0.0,0.0,0.0,-3.0293,-3.0293,-3.072,-3.119,-3.119,-3.119,-3.136,-3.2056,-3.2259,-3.2496,-3.3237,-3.3964,-3.4709,-3.5447,-3.5644,-3.565,-3.565,-3.6097,-3.6623,-3.7154,-3.721,-3.7741,-3.9339,-3.9552,-4.0119,-4.1679,-4.1895,-4.1919,-4.1919,-4.1919,-4.1919,-4.1919,-4.1919,-4.1919,-4.1919,-4.1895,-4.1599,-4.1041,-4.0995,-4.0726,-4.0229,-4.0196,-4.0392,-4.085,-4.0343,-4.0096,-4.0096,-4.0096,-4.0096,-4.0096,-4.0096,-4.0096,-4.0096,-4.0096,-4.0096,-4.0096,-4.0096,-4.0096,-4.0096,-4.0096,-4.0096,-4.0096,0.0,0.0,0.0,0.0,0.0,0.0,0.0,0.0,0.0,0.0,0.0,0.0,0.0,0.0,0.0,0.0,0.0,0.0,0.0,-1.4932,-1.4874,-1.5381,-1.541,-1.541,-1.541,-1.541,-1.541,-1.541,-1.541,-1.5555,-1.5845,-1.6398,-1.6907,-1.7379,-1.8697,-1.9703,-2.0498,-2.176,-2.2481,-2.2807,-2.302,-2.3275,0.0,0.0,0.0,0.0,0.0,0.0,0.0,0.0,-2.776,-2.7959,-2.7959,-2.8764,-2.9739,-2.9739,-3.0166,-3.072,-3.1112,-3.0935,-3.0924,-3.2026,-3.2649,-3.3169,-3.3914,-3.4658,-3.5245,-3.5532,-3.56,-3.56,-3.56,-3.5761,-3.6075,-3.662,-3.6835,-3.7422,-3.8754,-3.9377,-4.0075,-4.1124,-4.1578,-4.181,-4.181,-4.181,-4.181,-4.181,-4.181,-4.181,-4.181,-4.1446,-4.1133,-4.0903,-4.0577,-4.0311,-4.0096,-4.0096,-4.0204,-4.0417,-4.0204,-4.0096,-4.0096,-4.0096,-4.0096,-4.0096,-4.0096,-4.0096,-4.0096,-4.0096,-4.0096,-4.0096,-4.0096,-4.0096,-4.0096,-4.0096,-4.0096,-4.0096,0.0,0.0,0.0,0.0,0.0,0.0,0.0,0.0,0.0,0.0,0.0,0.0,0.0,0.0,0.0,0.0,0.0,0.0,-1.4599,-1.4124,-1.4183,-1.4991,-1.5021,-1.5138,-1.5381,-1.541,-1.541,-1.541,-1.541,-1.5488,-1.5625,-1.5948,-1.6709,-1.7813,-1.889,-1.9981,-2.1087,-2.2105,-2.2608,-2.2732,-2.3017,-2.3108,0.0,0.0,0.0,0.0,0.0,0.0,0.0,0.0,-2.7408,-2.76,-2.76,-2.8295,-2.9111,-2.9111,-2.954,-3.0102,-3.0518,-3.0642,-3.091,-3.2077,-3.306,-3.3947,-3.4675,-3.525,-3.56,-3.56,-3.56,-3.56,-3.56,-3.56,-3.5717,-3.6097,-3.6519,-3.7171,-3.8242,-3.9049,-3.9829,-4.0569,-4.1013,-4.1263,-4.1263,-4.1263,-4.1263,-4.1263,-4.1263,-4.1263,-4.1263,-4.0868,-4.0655,-4.0655,-4.0286,-4.0096,-4.0096,-4.0096,-4.0096,-4.0096,-4.0096,-4.0096,-4.0096,-4.0096,-4.0096,-4.0096,-4.0096,-4.0096,-4.0096,-4.0096,-4.0096,-4.0096,-4.0096,-4.0096,-4.0096,-4.0096,-4.0096,-4.0096,0.0,0.0,0.0,0.0,0.0,0.0,0.0,0.0,0.0,0.0,0.0,0.0,0.0,0.0,0.0,0.0,0.0,0.0,-1.3009,-1.3009,-1.3373,-1.4183,-1.4204,-1.4569,-1.5381,-1.541,-1.541,-1.541,-1.541,-1.5635,-1.6095,-1.6095,-1.701,-1.8627,-1.9509,-2.0162,-2.0719,-2.2372,-2.2628,-2.197,-2.2793,-2.3108,-2.3198,0.0,0.0,0.0,0.0,0.0,0.0,0.0,-2.6982,-2.76,-2.76,-2.8018,-2.8487,-2.8487,-2.8919,-2.9384,-2.9406,-3.0352,-3.155,-3.2314,-3.3484,-3.467,-3.543,-3.56,-3.56,-3.56,-3.56,-3.56,-3.56,-3.56,-3.56,-3.56,-3.6282,-3.7083,-3.7804,-3.8531,-3.9276,-4.0011,-4.0096,-4.0096,-4.0096,-4.0096,-4.0096,-4.0096,-4.0096,-4.0096,-4.0096,-4.0096,-4.0096,-4.0096,-4.0096,-4.0096,-4.0096,-4.0096,-4.0096,-4.0096,-4.0096,-4.0096,-4.0096,-4.0096,-4.0096,-4.0096,-4.0096,-4.0096,-4.0096,-4.0096,-4.0096,-4.0096,-4.0096,-4.0096,-4.0096,-4.0096,-4.0096,-4.0096,0.0,0.0,0.0,0.0,0.0,0.0,0.0,0.0,0.0,0.0,0.0,0.0,0.0,0.0,0.0,0.0,0.0,0.0,-1.3756,-1.3304,-1.3606,-1.4991,-1.505,-1.5167,-1.5381,-1.541,-1.541,-1.541,-1.541,-1.5635,-1.6105,-1.6387,-1.7281,-1.8617,-1.9233,-2.0232,-2.1553,-2.2032,-2.2445,-2.2763,-2.3005,-2.3108,-2.3138,0.0,0.0,0.0,0.0,0.0,0.0,0.0,0.0,0.0,-2.76,-2.8018,-2.8487,-2.8487,-2.863,-2.885,-2.9271,-2.9734,-3.0458,-3.2095,-3.281,-3.353,-3.5233,-3.56,-3.56,-3.56,-3.56,-3.56,-3.56,-3.56,-3.56,-3.56,-3.6721,-3.7652,-3.7872,-3.8971,-3.9859,-4.0079,-4.0096,-4.0096,-4.0096,-4.0096,-4.0096,-4.0096,-4.0096,-4.0096,-4.0096,-4.0096,-4.0096,-4.0096,-4.0096,-4.0096,-4.0096,-4.0096,-4.0096,-4.0096,-4.0096,-4.0096,-4.0096,-4.0096,-4.0096,-4.0096,-4.0096,-4.0096,-4.0096,-4.0096,-4.0096,-4.0096,-4.0096,-4.0096,-4.0096,-4.0096,-4.0096,-4.0096,0.0,0.0,0.0,0.0,0.0,0.0,0.0,0.0,0.0,0.0,0.0,0.0,0.0,0.0,0.0,0.0,0.0,0.0,0.0,-1.2909,-1.3425,-1.4392,-1.4746,-1.5079,-1.5381,-1.541,-1.5498,-1.5674,-1.5674,-1.5898,-1.6338,-1.6787,-1.765,-1.89,-1.9532,-2.0204,-2.091,-2.1616,-2.1772,-2.1667,-2.2341,-2.2628,-2.2659,0.0,0.0,0.0,0.0,0.0,0.0,0.0,0.0,0.0,-2.7178,-2.762,-2.814,-2.814,-2.814,-2.8222,-2.8591,-2.9315,-3.0223,-3.1446,-3.2361,-3.3287,-3.4534,-3.5207,-3.56,-3.56,-3.56,-3.56,-3.56,-3.56,-3.56,-3.56,-3.6884,-3.7905,-3.7905,-3.9157,-4.0096,-4.0096,-4.0096,-4.0096,-4.0096,-4.0096,-4.0096,-4.0096,-4.0096,-4.0096,-4.0096,-4.0096,-4.0096,-4.0096,-4.0096,-4.0096,-4.0096,-4.0096,-4.0096,-4.0096,-4.0096,-4.0096,-4.0096,-4.0096,-4.0096,-4.0096,-4.0096,-4.0096,-4.0096,-4.0096,-4.0096,-4.0096,-4.0096,-4.0096,-4.0096,-4.0096,-4.0096,-4.0096,0.0,0.0,0.0,0.0,0.0,0.0,0.0,0.0,0.0,0.0,-1.0326,0.0,0.0,0.0,0.0,0.0,0.0,0.0,0.0,0.0,-1.313,-1.3221,-1.3906,-1.4658,-1.5381,-1.5449,-1.5664,-1.6095,-1.6095,-1.6318,-1.6765,-1.7197,-1.8051,-1.921,-2.0009,-1.9977,-1.9398,-2.108,-2.091,-1.9694,-2.1333,-2.2002,-2.2106,-2.2823,0.0,0.0,0.0,0.0,0.0,0.0,0.0,0.0,-2.651,-2.7008,-2.76,-2.76,-2.76,-2.76,-2.7675,-2.9063,-3.0541,-3.0664,-3.2177,-3.3582,-3.3521,-3.4512,-3.5447,-3.5492,-3.5577,-3.56,-3.56,-3.56,-3.5616,-3.5701,-3.6935,-3.7922,-3.799,-3.9208,-4.0096,-4.0096,-4.0096,-4.0096,-4.0096,-4.0096,-4.0096,-4.0096,-4.0096,-4.0096,-4.0096,-4.0096,-4.0096,-4.0096,-4.0096,-4.0096,-4.0096,-4.0096,-4.0096,-4.0096,-4.0096,-4.0096,-4.0096,-4.0096,-4.0096,-4.0096,-4.0096,-4.0096,-4.0096,-4.0096,-4.0096,-4.0096,-4.0096,-4.0045,-3.9978,-3.9978,-3.9952,-3.9876,0.0,0.0,0.0,0.0,0.0,0.0,0.0,0.0,0.0,0.0,0.0,0.0,0.0,0.0,0.0,0.0,0.0,0.0,0.0,0.0,-1.4213,-1.4874,-1.505,-1.5235,-1.541,-1.5752,-1.5997,-1.6095,-1.6095,-1.6496,-1.7246,-1.7344,-1.7697,-1.8303,-1.8496,-1.8854,-1.9365,-2.043,-2.1069,-2.1428,-2.2445,-2.2854,-2.2854,-2.3035,-2.3108,0.0,0.0,0.0,0.0,0.0,0.0,0.0,-2.651,-2.7008,-2.76,-2.76,-2.76,-2.7705,-2.8233,-2.9083,-3.0073,-3.1118,-3.2488,-3.3469,-3.2949,-3.3443,-3.4186,-3.4712,-3.523,-3.56,-3.56,-3.56,-3.5825,-3.6434,-3.7313,-3.8108,-3.8684,-3.9537,-4.0096,-4.0096,-4.0096,-4.0096,-4.0096,-4.0096,-4.0096,-4.0096,-4.0096,-4.0096,-4.0096,-4.0096,-4.0096,-4.0096,-4.0096,-4.0096,-4.0096,-4.0096,-4.0096,-4.0096,-4.0096,-4.0096,-4.0096,-4.0096,-4.0096,-4.0096,-4.0096,-4.0096,-4.0096,-4.0096,-4.0096,-4.0096,-4.0096,-3.9714,-3.9166,-3.9166,-3.8789,-3.829,0.0,0.0,0.0,0.0,0.0,0.0,0.0,0.0,0.0,0.0,0.0,0.0,0.0,0.0,0.0,0.0,0.0,0.0,0.0,0.0,-1.4392,-1.4815,-1.4844,-1.5116,-1.5713,-1.5977,-1.63,-1.6721,-1.6721,-1.6966,-1.7393,-1.7588,-1.7803,-1.8008,-1.8428,-1.8877,-1.9365,-2.0236,-2.0846,-2.1365,-2.2187,-2.2537,-2.2567,-2.2944,-2.3108,-2.3108,-2.3108,0.0,0.0,0.0,0.0,0.0,0.0,0.0,-2.706,-2.706,-2.7331,-2.775,-2.8412,-2.9086,-2.9913,-3.122,-3.2078,-3.2516,-3.216,-3.2625,-3.3209,-3.3556,-3.4178,-3.4728,-3.5052,-3.5121,-3.5482,-3.6631,-3.7415,-3.8159,-3.8886,-3.9639,-4.0096,-4.0096,-4.0096,-4.0096,-4.0096,-4.0096,-4.0096,-4.0096,-4.0096,-4.0096,-4.0096,-4.0096,-4.0096,-4.0096,-4.0096,-4.0096,-4.0096,-4.0096,-4.0096,-4.0096,-4.0096,-4.0096,-4.0096,-4.0096,-4.0096,-4.0096,-4.0096,-4.0096,-4.0096,-4.0096,-4.0096,-4.0096,-4.0096,-3.961,-3.8908,-3.8908,-3.8442,-3.7793,0.0,0.0,0.0,0.0,0.0,0.0,0.0,0.0,0.0,0.0,0.0,0.0,0.0,0.0,0.0,0.0,0.0,0.0,0.0,0.0,0.0,-1.4312,-1.4462,-1.5055,-1.6172,-1.6281,-1.6682,-1.7383,-1.7461,-1.7589,-1.7721,-1.7909,-1.8076,-1.8236,-1.8821,-1.9177,-1.9365,-2.0236,-2.059,-2.0687,-2.171,-2.2094,-2.2199,-2.2854,-2.3108,-2.3108,-2.3108,-2.3108,-2.3108,-2.3108,0.0,0.0,0.0,0.0,-2.631,-2.631,-2.6826,-2.7586,-2.8375,-2.9229,-3.0178,-3.1241,-3.1511,-3.1511,-3.1511,-3.1951,-3.241,-3.241,-3.3039,-3.3761,-3.4333,-3.4431,-3.4896,-3.6372,-3.7227,-3.8007,-3.8865,-3.9631,-4.0096,-4.0096,-4.0096,-4.0096,-4.0096,-4.0096,-4.0096,-4.0096,-4.0096,-4.0096,-4.0096,-4.0096,-4.0096,-4.0096,-4.0096,-4.0096,-4.0096,-4.0096,-4.0096,-4.0096,-3.9952,-3.9825,-3.9705,-3.9705,-3.985,-4.0096,-4.0096,-4.002,-3.9901,-3.9901,-3.9825,-3.9705,-3.9705,-3.9209,-3.8509,-3.8509,-3.8048,-3.7413,0.0,0.0,0.0,0.0,0.0,0.0,0.0,0.0,0.0,0.0,0.0,0.0,0.0,0.0,0.0,0.0,0.0,0.0,-1.202,0.0,0.0,-1.478,-1.5472,-1.609,-1.6599,-1.7012,-1.7298,-1.7383,-1.7744,-1.8315,-1.9027,-1.8341,-1.8395,-1.911,-1.8462,-1.8596,-1.9365,-2.0236,-2.059,-2.0751,-2.231,-2.2944,-2.2944,-2.3078,-2.3108,-2.3108,-2.3108,-2.3108,-2.3108,-2.3108,-2.3619,0.0,0.0,0.0,-2.5536,-2.5536,-2.6054,-2.6915,-2.8101,-2.9806,-3.1286,-3.1466,-3.1511,-3.1511,-3.1511,-3.1582,-3.164,-3.164,-3.2691,-3.3633,-3.371,-3.3735,-3.4195,-3.561,-3.6453,-3.7408,-3.8728,-3.9612,-4.0096,-4.0096,-4.0096,-4.0096,-4.0096,-4.0096,-4.0096,-4.0096,-4.0096,-4.0096,-4.0096,-4.0096,-4.0096,-4.0096,-4.0096,-4.0096,-4.0096,-4.0096,-4.0096,-4.0096,-3.9394,-3.8734,-3.8108,-3.8108,-3.8832,-4.0096,-4.0096,-3.9688,-3.9059,-3.9059,-3.8663,-3.8108,-3.8108,-3.7616,-3.6904,-3.6904,-3.643,-3.5797,0.0,0.0,0.0,0.0,0.0,0.0,0.0,0.0,0.0,0.0,0.0,0.0,0.0,0.0,0.0,-1.242,-1.2389,-1.2468,-1.2782,-1.3484,-1.4276,-1.521,-1.5585,-1.617,-1.708,-1.7285,-1.75,-1.7734,-1.792,-1.8202,-1.8563,-1.8178,-1.8462,-1.9266,-1.8888,-1.8944,-1.9365,-2.0236,-2.059,-2.0719,-2.1928,-2.2445,-2.2445,-2.2445,-2.2689,-2.3035,-2.2598,-2.2732,-2.3108,-2.3108,-2.3335,-2.3632,-2.3632,0.0,0.0,0.0,-2.5855,-2.7411,-2.9119,-3.0507,-3.1511,-3.1511,-3.1511,-3.1511,-3.1511,-3.1511,-3.1511,-3.1511,-3.1992,-3.2544,-3.296,-3.3039,-3.363,-3.5416,-3.5964,-3.6824,-3.864,-3.9193,-3.9584,-4.0045,-4.0096,-4.0096,-4.0096,-3.9688,-3.9437,-3.9437,-3.9049,-3.8805,-3.8805,-3.8805,-3.8995,-3.9394,-3.9437,-3.9636,-4.0113,-4.0096,-4.0096,-4.0096,-3.9289,-3.8745,-3.8386,-3.7978,-3.8177,-3.8805,-3.8805,-3.8596,-3.8274,-3.8274,-3.8092,-3.7793,-3.7793,-3.7308,-3.6615,-3.6615,-3.6134,-3.5504,0.0,0.0,0.0,0.0,0.0,0.0,0.0,0.0,0.0,0.0,0.0,0.0,0.0,0.0,0.0,0.0,-1.2745,-1.2938,-1.3716,-1.3956,-1.4542,-1.5618,-1.5873,-1.6477,-1.7529,-1.7539,-1.7695,-1.8008,-1.8008,-1.811,-1.8337,-1.811,-1.8462,-1.9299,-1.9077,-1.9077,-1.9365,-2.0236,-2.059,-2.0687,-2.1772,-2.2187,-2.2187,-2.2187,-2.2567,-2.3005,-2.2414,-2.2598,-2.3108,-2.3108,-2.3108,-2.3108,-2.3108,-2.3514,0.0,0.0,0.0,-2.7769,-2.9676,-3.0672,-3.1248,-3.1438,-3.1511,-3.1511,-3.1511,-3.1511,-3.1511,-3.1511,-3.1511,-3.1668,-3.2216,-3.2327,-3.2953,-3.4836,-3.5324,-3.6107,-3.8047,-3.8481,-3.8843,-3.9454,-3.9506,-3.9506,-3.9506,-3.8978,-3.8635,-3.8635,-3.8121,-3.7793,-3.7793,-3.7793,-3.8149,-3.8881,-3.8908,-3.9193,-3.9782,-3.961,-3.9411,-3.9209,-3.8591,-3.823,-3.8003,-3.7456,-3.7221,-3.7235,-3.7648,-3.769,-3.7485,-3.7485,-3.7368,-3.7221,-3.7221,-3.6844,-3.6337,-3.6337,-3.5975,-3.5504,0.0,0.0,0.0,0.0,0.0,0.0,0.0,0.0,0.0,0.0,0.0,0.0,-1.1772,-1.2512,-1.2948,-1.3009,-1.4066,-1.4589,-1.4294,-1.4971,-1.5595,-1.6051,-1.6854,0.0,-1.7969,-1.7978,-1.7988,-1.8008,-1.8008,-1.8428,-1.9199,-1.8395,-1.8462,-1.9266,-1.8428,-1.8529,-1.9365,-2.0236,-2.059,-2.0751,-2.2372,-2.3047,-2.3047,-2.3047,-2.3078,-2.3095,-2.3047,-2.3078,-2.3108,-2.3108,-2.3108,-2.3108,-2.3108,-2.3138,-2.3268,0.0,0.0,0.0,-2.8906,-2.9853,-3.0554,-3.1307,-3.1511,-3.1511,-3.1511,-3.1511,-3.1511,-3.1511,-3.1511,-3.1496,-3.1553,-3.1553,-3.2017,-3.3396,-3.4267,-3.5214,-3.6535,-3.7381,-3.7863,-3.7892,-3.7921,-3.7921,-3.7921,-3.7863,-3.7863,-3.7863,-3.7822,-3.7793,-3.7793,-3.7793,-3.8149,-3.8881,-3.8908,-3.8908,-3.8962,-3.829,-3.7528,-3.6783,-3.6752,-3.6368,-3.5683,-3.5651,-3.5619,-3.5701,-3.7191,-3.7368,-3.6661,-3.6661,-3.6259,-3.5619,-3.5619,-3.5587,-3.5554,-3.5554,-3.5537,-3.5504,0.0,0.0,0.0,0.0,0.0,0.0,0.0,0.0,0.0,0.0,0.0,0.0,0.0,-1.3852,-1.3999,-1.3441,-1.4092,-1.4791,-1.5398,-1.5731,-1.6311,-1.7287,-1.7605,-1.7852,-1.8008,-1.8008,-1.8008,-1.8008,-1.8008,-1.8168,-1.8462,-1.8721,-1.9011,-1.9299,-1.9562,-1.9529,-1.9398,-2.0814,-2.0782,-1.9911,-2.1647,-2.199,-2.1542,-2.2125,-2.2641,-2.3035,-2.2506,-2.2659,-2.3108,-2.3108,-2.3108,-2.317,-2.3547,-2.369,-2.3959,-2.5445,-2.634,-2.7359,-2.9387,-3.0126,-3.0494,-3.1307,-3.1511,-3.1511,-3.1511,-3.1511,-3.1511,-3.1511,-3.1511,-3.1511,-3.1511,-3.1511,-3.1929,-3.3275,-3.3759,-3.4546,-3.6368,-3.6843,-3.7203,-3.7719,-3.7793,-3.7793,-3.7793,-3.7322,-3.7024,-3.7024,-3.6585,-3.6321,-3.6321,-3.6321,-3.6646,-3.7408,-3.7408,-3.7687,-3.8206,-3.7921,-3.7661,-3.7352,-3.6843,-3.6461,-3.6196,-3.5733,-3.5504,-3.5537,-3.6085,-3.6164,-3.5894,-3.5894,-3.5718,-3.5504,-3.5504,-3.5504,-3.5504,-3.5504,-3.5504,-3.5504,0.0,0.0,0.0,0.0,0.0,0.0,0.0,0.0,0.0,-1.451,0.0,0.0,0.0,0.0,-1.5052,-1.49,-1.5157,-1.5731,-1.6667,-1.6728,-1.7139,-1.7964,-1.8008,-1.8008,-1.8008,-1.8008,-1.8008,-1.8008,-1.8303,-1.8428,-1.8462,-1.9332,-1.9759,-1.9781,-2.0655,-2.0558,-1.9814,-2.127,-2.1227,-2.0301,-2.1741,-2.2078,-2.1811,-2.2371,-2.3065,-2.3598,-2.3069,-2.3225,-2.3672,-2.3672,-2.3672,-2.3735,-2.4155,-2.4393,-2.4797,-2.6078,-2.6603,-2.715,-2.8955,-2.9442,-2.969,-3.0807,-3.0866,-3.0807,-3.138,-3.1278,-3.1161,-3.1438,-3.1511,-3.1511,-3.1511,-3.1511,-3.1929,-3.3275,-3.3499,-3.415,-3.5966,-3.6228,-3.643,-3.6981,-3.7041,-3.7041,-3.7041,-3.6554,-3.6228,-3.6228,-3.5782,-3.5504,-3.5504,-3.5504,-3.5846,-3.6584,-3.6615,-3.6859,-3.7397,-3.7145,-3.7041,-3.7011,-3.6492,-3.6228,-3.6228,-3.5718,-3.5504,-3.5504,-3.5504,-3.5504,-3.5504,-3.5504,-3.5504,-3.5504,-3.5504,-3.5504,-3.5504,-3.5504,-3.5504,-3.5504,0.0,0.0,0.0,0.0,0.0,0.0,0.0,0.0,-1.3086,-1.3086,0.0,0.0,0.0,0.0,0.0,-1.7298,-1.7435,-1.7578,-1.7978,-1.8008,-1.8008,-1.8008,-1.8008,-1.8008,-1.8008,-1.8008,-1.8008,-1.8042,-1.8888,-1.9299,-1.9365,-2.0236,-2.0655,-2.0687,-2.1553,-2.1471,-2.0741,-2.1596,-2.192,-2.1994,-2.2818,-2.3471,-2.3985,-2.4017,-2.4356,-2.4788,-2.4788,-2.4788,-2.4788,-2.4788,-2.4788,-2.4788,-2.4813,-2.5197,-2.5624,-2.5624,-2.6047,-2.6692,0.0,0.0,0.0,-2.9827,-2.9628,-2.9442,-3.1087,-3.0837,-3.0494,-3.1322,-3.1467,-3.1467,-3.1511,-3.1511,-3.1929,-3.3275,-3.3499,-3.3963,-3.531,-3.5504,-3.5504,-3.5504,-3.5504,-3.5504,-3.5504,-3.5504,-3.5504,-3.5504,-3.5504,-3.5504,-3.5504,-3.5504,-3.5831,-3.6554,-3.6584,-3.6584,-3.6584,-3.5863,-3.5504,-3.5504,-3.5504,-3.5504,-3.5504,-3.5504,-3.5504,-3.5504,-3.5504,-3.5504,-3.5504,-3.5504,-3.5504,-3.5504,-3.5504,-3.5504,-3.5504,-3.5504,-3.5504,-3.5504,0.0,0.0,0.0,0.0,0.0,0.0,-1.4746,-1.5029,-1.5235,0.0,0.0,0.0,-1.5832,-1.6465,-1.7123,-1.7769,-1.7842,-1.7881,-1.8008,-1.8008,-1.8008,-1.8008,-1.8008,-1.8008,-1.8008,-1.8008,-1.8303,-1.8944,-1.9177,-1.9628,-2.0268,-2.1132,-2.1522,-2.1585,-2.2414,-2.2893,-2.3049,-2.2844,-2.2665,-2.2544,-2.3399,-2.3689,-2.3705,-2.4357,-2.4662,-2.4788,-2.4788,-2.4788,-2.4788,-2.4788,-2.4788,-2.4863,-2.5259,-2.5774,-2.6248,-2.6248,-2.6361,0.0,-2.7484,0.0,0.0,0.0,0.0,0.0,-3.0389,-2.9981,-2.9766,-3.119,-3.1029,-3.0807,-3.138,-3.1511,-3.1929,-3.3275,-3.3499,-3.3963,-3.531,-3.5504,-3.5504,-3.5504,-3.5504,-3.5504,-3.5504,-3.5504,-3.5504,-3.5504,-3.5504,-3.5504,-3.5504,-3.5504,-3.5587,-3.5814,-3.5814,-3.5814,-3.5814,-3.5619,-3.5504,-3.5504,-3.5504,-3.5504,-3.5504,-3.5504,-3.5504,-3.5504,-3.5504,-3.5504,-3.5504,-3.5504,-3.5504,-3.5504,-3.5504,-3.5504,-3.5504,-3.5504,-3.5504,-3.5504,0.0,0.0,0.0,0.0,0.0,-1.5684,-1.5684,-1.6377,-1.6901,0.0,0.0,0.0,-1.7246,-1.749,-1.7744,-1.7988,-1.8008,-1.8134,-1.8529,-1.8519,-1.8687,-1.9077,-1.9077,-1.9077,-1.9077,-1.9077,-1.9332,-1.9846,-2.0204,-2.0655,-2.1164,-2.2002,-2.2414,-2.2427,-2.3163,-2.3678,-2.3991,-2.3847,-2.3734,-2.3623,-2.414,-2.4355,-2.4438,-2.4937,-2.5297,-2.5498,-2.5498,-2.5498,-2.5498,-2.5498,-2.5498,-2.5548,-2.5862,-2.6223,-2.6499,-2.6499,-2.6499,0.0,0.0,0.0,0.0,-2.8247,0.0,0.0,-2.9473,-2.9348,-2.938,-3.0718,-3.0896,-3.094,-3.1409,-3.1735,-3.2243,-3.332,-3.3724,-3.4277,-3.5355,-3.5504,-3.5504,-3.5504,-3.5504,-3.5504,-3.5504,-3.5504,-3.5504,-3.5504,-3.5504,-3.5504,-3.5504,-3.5504,-3.5504,-3.5504,-3.5504,-3.5504,-3.5504,-3.5504,-3.5504,-3.5504,-3.5504,-3.5504,-3.5504,-3.5504,-3.5504,-3.5504,-3.5504,-3.5504,-3.5504,-3.5504,-3.5504,-3.5504,-3.5504,-3.5504,-3.5504,-3.5504,-3.5504,-3.5504,0.0,0.0,-1.5488,-1.5488,-1.585,-1.6163,-1.6163,-1.7257,-1.807,0.0,-1.8522,-1.8686,-1.8321,-1.8303,-1.8303,-1.8303,-1.8303,-1.862,-1.9398,-1.9431,-1.9781,-2.0558,-2.059,-2.059,-2.059,-2.059,-2.0655,-2.0751,-2.1522,-2.1951,-2.2032,-2.2763,-2.3145,-2.3221,-2.3766,-2.4067,-2.4205,-2.4707,-2.4946,-2.4996,-2.4933,-2.5222,-2.5686,-2.5686,-2.6047,-2.6499,-2.6499,-2.6499,-2.6499,-2.6499,-2.6499,-2.6499,-2.6499,-2.6499,-2.6499,-2.6499,-2.6499,0.0,0.0,0.0,0.0,-2.7384,-2.704,0.0,-2.8492,-2.878,-2.9002,-2.995,-3.0644,-3.1117,-3.119,-3.1753,-3.2466,-3.3212,-3.3913,-3.4616,-3.5367,-3.5504,-3.5504,-3.5504,-3.5504,-3.5504,-3.5504,-3.5504,-3.5504,-3.5504,-3.5504,-3.5504,-3.5504,-3.5504,-3.5504,-3.5504,-3.5504,-3.5504,-3.5504,-3.5504,-3.5504,-3.5504,-3.5504,-3.5504,-3.5504,-3.5504,-3.5504,-3.5504,-3.5504,-3.5504,-3.5504,-3.5504,-3.5504,-3.5504,-3.5504,-3.5504,-3.5504,-3.5504,-3.5504,-3.5504,0.0,-1.5693,-1.5968,-1.5968,-1.6309,-1.657,-1.657,-1.7664,-1.847,-1.847,-1.9499,-2.019,-2.0096,-2.0074,-2.0074,-2.0074,-2.0074,-2.0171,-2.0333,-2.0333,-2.043,-2.059,-2.059,-2.059,-2.059,-2.059,-2.0942,-2.1659,-2.1815,-2.223,-2.2884,-2.3017,-2.3358,-2.3841,-2.3954,-2.4481,-2.5285,-2.5398,-2.5711,-2.6135,-2.5636,-2.5787,-2.6323,-2.6323,-2.6399,-2.6499,-2.6499,-2.6499,-2.6499,-2.6499,-2.6499,-2.6499,-2.6499,-2.6499,-2.6499,-2.6499,-2.6499,-2.6499,-2.6499,-2.6499,-2.6521,-2.6679,-2.6624,0.0,-2.7736,-2.7451,-2.7417,-2.8939,-2.8812,-2.8652,-2.9348,-2.9947,-3.0789,-3.2214,-3.2977,-3.3875,-3.5302,-3.5504,-3.5504,-3.5504,-3.5504,-3.5504,-3.5504,-3.5504,-3.5504,-3.5504,-3.5504,-3.5504,-3.5504,-3.5504,-3.5504,-3.5504,-3.5504,-3.5504,-3.5504,-3.5504,-3.5504,-3.5504,-3.5504,-3.5504,-3.5504,-3.5504,-3.5504,-3.5504,-3.5504,-3.5504,-3.5504,-3.5504,-3.5504,-3.5504,-3.5504,-3.5504,-3.5504,-3.5504,-3.5504,-3.5504,-1.6044,-1.6597,-1.7043,-1.7043,-1.775,-1.8302,-1.8302,-1.9397,-2.0252,-2.0252,-2.0814,-2.108,-2.0655,-2.059,-2.059,-2.059,-2.059,-2.0782,-2.1239,-2.1239,-2.1428,-2.1834,-2.1865,-2.1865,-2.1865,-2.1865,-2.2051,-2.2506,-2.2787,-2.3152,-2.3547,-2.381,-2.4098,-2.4418,-2.4682,-2.5096,-2.5611,-2.59,-2.6223,-2.6461,-2.6172,-2.6235,-2.6499,-2.6499,-2.6499,-2.6499,-2.6499,-2.6499,-2.6499,-2.6499,-2.6499,-2.6499,-2.6499,-2.6499,-2.6499,-2.6499,-2.6499,-2.6499,-2.6499,-2.6499,-2.6499,-2.6499,-2.6499,0.0,0.0,-2.7095,-2.7351,-2.8182,-2.833,-2.8492,-2.8907,-2.9702,-3.0538,-3.1354,-3.2635,-3.3648,-3.4013,-3.4887,-3.5504,-3.5504,-3.5504,-3.5504,-3.5504,-3.5504,-3.5504,-3.5504,-3.5504,-3.5504,-3.5504,-3.5504,-3.5504,-3.5504,-3.5504,-3.5504,-3.5504,-3.5504,-3.5504,-3.5504,-3.5504,-3.5504,-3.5504,-3.5504,-3.5504,-3.5489,-3.5145,-3.519,-3.5474,-3.513,-3.519,-3.5504,-3.5504,-3.5504,-3.5504,-3.5504,-3.5504,-3.5504,-1.7242,-1.7823,-1.8369,-1.8369,-1.9302,-2.0017,-2.0017,-2.1098,-2.1951,-2.2094,-2.2137,-2.1865,-2.1164,-2.1069,-2.1069,-2.1069,-2.1069,-2.1431,-2.225,-2.2294,-2.2652,-2.3391,-2.3434,-2.3434,-2.3434,-2.3434,-2.3434,-2.3434,-2.3929,-2.4155,-2.4167,-2.4587,-2.4838,-2.4983,-2.541,-2.5649,-2.5799,-2.6298,-2.6499,-2.6499,-2.6499,-2.6499,-2.6499,-2.6499,-2.6499,-2.6499,-2.6499,-2.6499,-2.6499,-2.6499,-2.6499,-2.6499,-2.6499,-2.6499,-2.6499,-2.6499,-2.6499,-2.6499,-2.6499,-2.6499,-2.6499,-2.6499,-2.6499,-2.6499,0.0,0.0,0.0,-2.7484,-2.8019,-2.8524,-2.8524,-2.9488,-3.0297,-3.0377,-3.2115,-3.3233,-3.2547,-3.4037,-3.5213,-3.5213,-3.5392,-3.5504,-3.5504,-3.5504,-3.5504,-3.5504,-3.5504,-3.5504,-3.5504,-3.5504,-3.5504,-3.5504,-3.5504,-3.5504,-3.5504,-3.5504,-3.5504,-3.5504,-3.5504,-3.5504,-3.5504,-3.5504,-3.5504,-3.5474,-3.4771,-3.4861,-3.5444,-3.4788,-3.4891,-3.5504,-3.5504,-3.5504,-3.5504,-3.5504,-3.5504,-3.5504,-1.9152,-1.9379,-1.9669,-1.9669,-2.0145,-2.0512,-2.0512,-2.133,-2.2168,-2.2884,-2.2944,-2.2914,-2.2823,-2.2811,-2.2811,-2.2811,-2.2811,-2.3095,-2.3729,-2.3767,-2.4023,-2.4575,-2.46,-2.46,-2.46,-2.46,-2.46,-2.46,-2.4662,-2.47,-2.47,-2.4763,-2.5039,-2.5511,-2.5573,-2.5921,-2.6399,-2.6461,-2.6499,-2.6499,-2.6499,-2.6499,-2.6499,-2.6499,-2.6499,-2.6499,-2.6499,-2.6499,-2.6499,-2.6499,-2.6499,-2.6499,-2.6499,-2.6499,-2.6499,-2.6499,-2.6499,-2.6499,-2.6499,-2.6499,-2.6499,-2.6499,-2.6499,-2.6499,-2.6499,0.0,-2.6658,-2.6658,0.0,-2.6782,-2.6782,0.0,0.0,-2.8881,-3.0406,-3.1604,-3.184,-3.3226,-3.4177,-3.4177,-3.4953,-3.5504,-3.5504,-3.5504,-3.5504,-3.5504,-3.5504,-3.5504,-3.5504,-3.5504,-3.5504,-3.5504,-3.5504,-3.5504,-3.5504,-3.5504,-3.5504,-3.5504,-3.5504,-3.5504,-3.5504,-3.5504,-3.5504,-3.5474,-3.4771,-3.4861,-3.5444,-3.4788,-3.4891,-3.5504,-3.5504,-3.5504,-3.5504,-3.5504,-3.5504,-3.5504,-2.0302,-2.061,-2.107,-2.107,-2.1618,-2.2051,-2.2051,-2.2372,-2.2732,-2.3078,-2.3108,-2.3233,-2.3572,-2.364,-2.3735,-2.4061,-2.4086,-2.4186,-2.4456,-2.4469,-2.455,-2.4775,-2.4788,-2.4788,-2.4788,-2.4788,-2.4788,-2.4788,-2.5121,-2.5272,-2.5272,-2.5611,-2.5921,-2.6135,-2.6135,-2.6273,-2.6499,-2.6499,-2.6499,-2.6499,-2.6499,-2.6499,-2.6499,-2.6499,-2.6499,-2.6499,-2.6499,-2.6499,-2.6499,-2.6499,-2.6499,-2.6499,-2.6499,-2.6499,-2.6499,-2.6499,-2.6499,-2.6499,-2.6499,-2.6499,-2.6499,-2.6499,-2.6499,-2.6499,-2.6499,-2.6499,-2.6499,-2.6499,0.0,0.0,0.0,0.0,0.0,0.0,-3.0166,-3.1064,-3.0705,-3.2099,-3.338,-3.3945,-3.4872,-3.5504,-3.5504,-3.5504,-3.5504,-3.5504,-3.5504,-3.5504,-3.5504,-3.5504,-3.5504,-3.5504,-3.5504,-3.5504,-3.5504,-3.5504,-3.5504,-3.5504,-3.5504,-3.5504,-3.5504,-3.5504,-3.5504,-3.5444,-3.4367,-3.4517,-3.5429,-3.4352,-3.4532,-3.5504,-3.5504,-3.5504,-3.5504,-3.5504,-3.5504,-3.5504,-2.151,0.0,-2.223,-2.223,-2.2689,-2.3155,-2.3395,-2.3384,-2.3424,-2.3623,-2.3581,-2.3722,-2.418,-2.4424,-2.4733,-2.511,-2.5358,-2.5567,-2.5722,-2.5505,-2.5441,-2.5593,-2.5391,-2.5272,-2.5272,-2.5272,-2.5272,-2.5272,-2.5649,-2.5871,-2.5871,-2.6298,-2.6499,-2.6499,-2.6499,-2.6624,-2.6816,-2.6589,-2.6624,-2.685,-2.685,-2.6939,-2.7007,-2.664,-2.6499,-2.6499,-2.6499,-2.6499,-2.6512,-2.6663,-2.6713,-2.6751,-2.6901,-2.6952,-2.6952,-2.6952,-2.6952,-2.6952,-2.6952,-2.6952,-2.6952,-2.6952,-2.6952,-2.6952,-2.6952,-2.6952,-2.6952,-2.6952,-2.7231,0.0,0.0,0.0,0.0,0.0,0.0,-3.0531,-2.9681,-3.1088,-3.2464,-3.3136,-3.4109,-3.4706,-3.4706,-3.4953,-3.51,-3.51,-3.5359,-3.5504,-3.5504,-3.5504,-3.5504,-3.5504,-3.5504,-3.5504,-3.5504,-3.5504,-3.5504,-3.5504,-3.5504,-3.5504,-3.5504,-3.5504,-3.5504,-3.5429,-3.4083,-3.4158,-3.513,-3.3698,-3.3811,-3.4863,-3.5026,-3.51,-3.5133,-3.5392,-3.5504,-3.5504,-2.3035,-2.3035,-2.3078,-2.3078,-2.3065,-2.3365,-2.4147,-2.4107,-2.4233,-2.4957,-2.4878,-2.4738,-2.4763,-2.554,-2.6056,-2.6069,-2.6791,-2.7474,-2.8066,-2.7301,-2.7057,-2.7591,-2.6854,-2.6449,-2.6449,-2.6449,-2.6449,-2.6449,-2.6461,-2.6461,-2.6461,-2.6487,-2.6499,-2.6499,-2.6499,-2.6939,-2.7604,-2.685,-2.6939,-2.767,-2.767,-2.7986,-2.8292,-2.6972,-2.6499,-2.6499,-2.6499,-2.6499,-2.6575,-2.7115,-2.7256,-2.7344,-2.7883,-2.8059,-2.8059,-2.8059,-2.8059,-2.8059,-2.8059,-2.8059,-2.8059,-2.8059,-2.8059,-2.8059,-2.8059,-2.8059,-2.8059,-2.8059,-2.8059,-2.8084,-2.8084,0.0,0.0,0.0,0.0,0.0,0.0,-3.0258,-3.1241,-3.1278,-3.2141,-3.2713,-3.2713,-3.3518,-3.4061,-3.4061,-3.4953,-3.5504,-3.5504,-3.5504,-3.5504,-3.5504,-3.5504,-3.5504,-3.5504,-3.5504,-3.5504,-3.5504,-3.5504,-3.5504,-3.5504,-3.5504,-3.5504,-3.5429,-3.4083,-3.3888,-3.4425,-3.2783,-3.2544,-3.3221,-3.383,-3.4061,-3.4177,-3.5133,-3.5504,-3.5504,0.0,0.0,-2.4359,-2.3979,-2.4308,-2.4845,-2.5566,-2.5964,-2.6269,-2.6508,-2.6505,-2.662,-2.7023,-2.7311,-2.7615,-2.798,-2.8257,-2.8495,-2.8716,-2.7919,-2.7786,-2.851,-2.7229,-2.6748,-2.7297,-2.6782,-2.6499,-2.6499,-2.6499,-2.6499,-2.6499,-2.6499,-2.6499,-2.6521,-2.7074,-2.7162,-2.6973,-2.7802,-2.7986,-2.7796,-2.8828,-2.9194,-2.9026,-2.7567,-2.7231,-2.7544,-2.7544,-2.7544,-2.7582,-2.777,-2.7821,-2.7858,-2.8047,-2.8109,-2.8109,-2.8109,-2.8109,-2.8109,-2.8109,-2.8109,-2.8109,-2.8109,-2.8109,-2.8109,-2.8109,-2.8109,-2.8109,-2.8109,-2.8398,-2.8612,-2.8612,0.0,0.0,0.0,0.0,0.0,0.0,-2.9606,-2.9845,-3.0241,-3.1659,-3.2593,-3.2593,-3.289,-3.3345,-3.3959,-3.4327,-3.4509,-3.4509,-3.5133,-3.5198,-3.4543,-3.5166,-3.5504,-3.5504,-3.5504,-3.5504,-3.5504,-3.5504,-3.5504,-3.5504,-3.5504,-3.5504,-3.5429,-3.4083,-3.3858,-3.4396,-3.2768,-3.2511,-3.3092,-3.3085,-3.3066,-3.3206,-3.4143,-3.4509,-3.4442,-2.4162,-2.5329,-2.5986,-2.4821,-2.5426,-2.63,-2.7003,-2.7404,-2.7722,-2.7973,-2.7947,-2.8058,-2.8443,-2.8761,-2.9083,-2.9445,-2.9721,-2.9889,-2.9889,-2.9097,-2.8876,-2.9442,-2.8149,-2.7637,-2.8149,-2.7637,-2.7229,-2.6939,-2.6939,-2.6782,-2.6499,-2.6782,-2.6939,-2.6952,-2.768,-2.7941,-2.7927,-2.8789,-2.9092,-2.9039,-2.9969,-3.0524,-3.0657,-2.9394,-2.877,-2.8615,-2.8615,-2.8375,-2.8134,-2.8335,-2.8361,-2.8436,-2.8649,-2.8699,-2.8699,-2.8699,-2.8699,-2.8699,-2.8699,-2.8699,-2.8699,-2.8699,-2.8699,-2.8699,-2.8699,-2.8699,-2.8699,-2.8699,-2.8988,-2.9239,-2.9239,0.0,0.0,0.0,0.0,0.0,0.0,-2.9478,-2.9377,-2.9741,-3.0518,-3.1154,-3.1546,-3.1712,-3.2138,-3.2947,-3.331,-3.3484,-3.3484,-3.4442,-3.4509,-3.3518,-3.4442,-3.4806,-3.4476,-3.4457,-3.4624,-3.4953,-3.4953,-3.5166,-3.5504,-3.5504,-3.5504,-3.5397,-3.3771,-3.329,-3.3549,-3.1843,-3.1383,-3.181,-3.2006,-3.2105,-3.2213,-3.3171,-3.3484,-3.338,-2.6162,-2.7414,-2.7826,-2.5846,-2.6599,-2.7693,-2.8411,-2.8433,-2.8603,-2.9317,-2.9245,-2.9129,-2.9129,-2.9858,-3.0359,-3.0359,-3.1058,-3.1511,-3.1511,-3.0748,-3.0329,-3.0359,-2.9473,-2.9034,-2.9066,-2.9034,-2.8556,-2.7703,-2.7703,-2.7284,-2.6521,-2.7323,-2.7709,-2.7769,-2.8356,-2.9239,-3.0305,-2.9881,-3.03,-3.1274,-3.1199,-3.198,-3.3078,-3.228,-3.1047,-2.9706,-2.9671,-2.9074,-2.8407,-2.8887,-2.9076,-2.9164,-2.9757,-2.9934,-2.9934,-2.9934,-2.9934,-2.9934,-2.9895,-2.9869,-2.9869,-2.9792,-2.9792,-2.9792,-2.9792,-2.9792,-2.9792,-2.9792,-2.9792,-2.9792,-2.9792,-2.9792,0.0,0.0,0.0,0.0,0.0,-2.9767,-2.9767,-2.9792,-2.88,-2.8536,-2.9641,-3.0091,-3.055,-3.1138,-3.2019,-3.2522,-3.2522,-3.3415,-3.3484,-3.2558,-3.3449,-3.3484,-3.2593,-3.2593,-3.3066,-3.391,-3.391,-3.4428,-3.5359,-3.5359,-3.5359,-3.5252,-3.3089,-3.2169,-3.2022,-3.018,-2.9408,-2.9539,-3.0708,-3.1143,-3.1254,-3.2177,-3.25,-3.2321,-2.6987,-2.8148,-2.9291,-2.9813,-2.9767,-2.9733,-2.9916,-3.0336,-3.0719,-3.0909,-3.0896,-3.0866,-3.0866,-3.1058,-3.119,-3.119,-3.138,-3.1511,-3.1511,-3.0748,-3.0584,-3.1161,-2.9797,-2.9286,-2.995,-2.9317,-2.8556,-2.7703,-2.7703,-2.7284,-2.6499,-2.711,-2.7782,-2.8497,-2.97,-3.0447,-3.0881,-3.1997,-3.2535,-3.2677,-3.3337,-3.3678,-3.383,-3.4343,-3.3845,-3.2762,-3.2067,-3.1643,-3.1469,-3.1604,-3.1658,-3.1699,-3.1811,-3.1865,-3.1865,-3.1865,-3.1865,-3.1719,-3.1007,-3.0833,-3.0658,-2.996,-2.9792,-2.9792,-2.9792,-2.9792,-2.9792,-2.9792,-2.9792,-2.9792,-2.9792,-2.9792,0.0,0.0,0.0,0.0,0.0,-2.9415,-2.9315,-2.9741,-2.88,-2.8386,-2.9076,-2.9226,-2.9672,-3.0523,-3.1199,-3.1573,-3.1573,-3.2464,-3.2522,-3.1609,-3.2464,-3.2855,-3.2593,-3.2593,-3.2713,-3.2961,-3.2961,-3.3101,-3.3359,-3.3359,-3.3359,-3.3254,-3.1811,-3.1397,-3.1638,-3.0044,-2.9631,-2.9997,-3.0111,-3.0177,-3.0279,-3.1217,-3.1119,-3.0495,-2.86,-2.9521,-3.0572,-3.1363,-3.1182,-3.0956,-3.0956,-3.1256,-3.1615,-3.1899,-3.169,-3.1615,-3.1899,-3.1675,-3.1615,-3.1914,-3.1929,-3.2049,-3.2377,-3.1959,-3.1899,-3.2363,-3.1474,-3.1182,-3.1672,-3.1228,-3.0528,-2.9659,-2.9659,-2.9265,-2.8488,-2.9146,-2.9733,-3.0281,-3.1338,-3.191,-3.2155,-3.3426,-3.4008,-3.4211,-3.4713,-3.4824,0.0,-3.5279,-3.5133,-3.4591,-3.4056,-3.3325,-3.2593,-3.2593,-3.2593,-3.2593,-3.2593,-3.2321,-3.1997,-3.1997,-3.1683,-3.1267,-3.0733,-3.0595,-3.0444,-2.9934,-2.9792,-2.9792,-2.9792,-2.9792,-2.9792,-2.9792,-2.9792,-2.9792,-2.9792,-2.9792,0.0,0.0,0.0,0.0,0.0,-2.9515,-2.9428,-2.9754,-2.88,-2.8235,-2.8499,-2.875,-2.9049,-2.937,-2.9884,-3.0195,-3.0195,-3.1089,-3.1332,-3.062,-3.1513,-3.1792,-3.1378,-3.1378,-3.1586,-3.1997,-3.1997,-3.2213,-3.2593,-3.2593,-3.2593,-3.2489,-3.091,-3.0539,-3.0948,-2.9467,-2.9153,-2.9646,-2.9745,-2.9792,-2.9856,-3.0381,-3.0241,-2.9792,-3.045,-3.1102,-3.163,-3.163,-3.1705,-3.1765,-3.1765,-3.1615,-3.1735,-3.2392,-3.1989,-3.1884,-3.2572,-3.2108,-3.1989,-3.2587,-3.2647,-3.2886,-3.3455,-3.3499,-3.3499,-3.3499,-3.3499,-3.3499,-3.3499,-3.3499,-3.3053,-3.2205,-3.2205,-3.1771,-3.1013,-3.1791,-3.2191,-3.2364,-3.2961,-3.3419,-3.3799,-3.4367,-3.4966,-3.5504,-3.5504,-3.5504,-3.5504,-3.5504,-3.5504,-3.5504,-3.5504,-3.4409,-3.2996,-3.2996,-3.2996,-3.2996,-3.2996,-3.2429,-3.1756,-3.1756,-3.1206,-3.0508,-3.0394,-3.0368,-3.033,-3.0177,-3.0075,-2.996,-2.996,-2.9908,-2.9792,-2.9792,-2.9792,-2.9792,-2.9792,-2.9792,0.0,0.0,0.0,0.0,-2.9792,-2.9792,-2.9792,-2.9792,-2.8925,0.0,-2.8222,-2.8511,-2.8511,-2.8034,-2.8511,-2.8813,-2.8888,0.0,-3.0101,-2.9805,-3.0595,-3.062,-2.9792,-2.9792,-3.0216,-3.1007,-3.1007,-3.1426,-3.2213,-3.2213,-3.2213,-3.2109,-3.0166,-2.9705,-3.0223,-2.8715,-2.8473,-2.9051,-2.9591,-2.9792,-2.9792,-2.9792,-2.9792,-2.9792,-3.1278,-3.1841,-3.2303,-3.2303,-3.2796,-3.3155,-3.3155,-3.2198,-3.1735,-3.2392,-3.2392,-3.2587,-3.3245,-3.3215,-3.32,-3.3305,-3.332,-3.3365,-3.3484,-3.3499,-3.3499,-3.3499,-3.3499,-3.3499,-3.3499,-3.3499,-3.3053,-3.2205,-3.2205,-3.1771,-3.1013,-3.1581,-3.2291,-3.3046,-3.3581,-3.4324,-3.516,-3.5265,-3.5385,-3.5504,-3.5504,-3.5504,-3.5504,-3.5504,-3.5504,-3.5504,-3.5504,-3.5279,-3.5001,-3.5001,-3.5001,-3.5001,-3.5001,-3.4887,-3.4754,-3.4754,-3.4639,-3.4322,-3.3498,-3.3241,-3.3066,-3.2285,-3.1549,-3.097,-3.097,-3.0343,-2.9792,-2.9792,-2.9792,-2.9792,-2.9792,-2.9792,-2.9792,0.0,-2.9792,-2.9792,-2.9792,-2.9792,-2.9792,-2.9792,-2.9616,-2.9315,-2.88,-2.8047,-2.7532,-2.7431,-2.7946,-2.8411,-2.8863,0.0,-2.9378,0.0,-2.9972,-2.9972,0.0,-2.9792,-2.9895,-3.0037,-3.0037,-3.0139,-3.0292,-3.0292,-3.0292,-3.0228,-2.8907,-2.8934,-2.9821,-2.8598,-2.8712,-2.9654,-2.9754,-2.9792,-2.9792,-2.9792,-2.9792,-2.9792,-3.2452,-3.2811,-3.3021,-3.3021,-3.329,-3.3499,-3.3499,-3.2961,-3.2781,-3.344,-3.323,-3.3275,-3.3933,-3.3709,-3.3634,-3.3978,-3.4039,-3.4158,-3.4517,-3.4532,-3.4532,-3.4532,-3.4532,-3.4532,-3.4532,-3.4532,-3.4327,-3.3912,-3.3912,-3.3703,-3.3328,-3.3599,-3.3958,-3.4383,-3.4659,-3.5052,-3.5504,-3.5504,-3.5504,-3.5504,-3.5504,-3.5504,-3.5504,-3.5504,-3.5504,-3.5504,-3.5504,-3.5504,-3.5504,-3.5504,-3.5504,-3.5504,-3.5504,-3.5133,-3.4725,-3.4725,-3.4375,-3.3905,-3.3429,-3.3276,-3.3171,-3.2713,-3.2249,-3.1924,-3.1924,-3.1586,-3.1119,-3.0633,-3.052,-3.0381,-2.9895,-2.9792,-2.9792,-2.9792,-2.9792,-2.9792,-2.9792,-2.9792,-2.9792,0.0,0.0,0.0,-2.8913,-2.8185,-2.7708,-2.7708,-2.7695,-2.8047,-2.885,0.0,-2.89,0.0,0.0,0.0,-2.9792,0.0,-2.9792,-2.9792,-2.9792,-2.9792,-2.9792,-2.9792,-2.9792,-2.9741,-2.89,-2.9013,-2.9754,-2.9202,-2.9302,-2.9792,-2.9792,-2.9792,-2.9792,-2.9792,-2.9792,-2.9792,-3.3364,-3.3604,-3.3709,-3.3709,-3.3829,-3.3918,-3.3918,-3.3918,-3.4053,-3.4459,-3.4054,-3.3963,-3.4653,-3.4233,-3.4128,-3.4683,-3.4728,-3.4921,-3.5474,-3.5504,-3.5504,-3.5504,-3.5504,-3.5504,-3.5504,-3.5504,-3.5504,-3.5504,-3.5504,-3.5429,-3.5295,-3.5429,-3.5504,-3.5504,-3.5504,-3.5504,-3.5504,-3.5504,-3.5504,-3.5504,-3.5504,-3.5504,-3.5504,-3.5504,-3.5504,-3.5504,-3.5504,-3.5504,-3.5504,-3.5504,-3.5504,-3.5504,-3.5504,-3.4953,-3.4312,-3.4312,-3.3788,-3.322,-3.322,-3.322,-3.322,-3.322,-3.3066,-3.289,-3.289,-3.2593,-3.2105,-3.1352,-3.1044,-3.0696,-2.9934,-2.9792,-2.9792,-2.9792,-2.9792,-2.9792,-2.9792,-2.9792,-2.9792,0.0,0.0,0.0,-2.9076,-2.8612,-2.8335,-2.8448,-2.7846,-2.7833,-2.8662,0.0,0.0,0.0,-2.9792,-2.9792,-2.9792,0.0,-2.9792,-2.9792,-2.9792,-2.9792,-2.9792,-2.9792,-2.9792,-2.9767,-2.9176,-2.9189,-2.9616,-2.9741,-2.9792,-2.9792,-2.9792,-2.9792,-2.9792,-2.9792,-2.9792,-2.9792,-3.3316,-3.3978,-3.4414,-3.4414,-3.4906,-3.531,-3.531,-3.531,-3.5115,-3.4578,-3.4459,-3.4668,-3.5325,-3.5355,-3.534,-3.54,-3.5415,-3.5429,-3.5504,-3.5504,-3.5504,-3.5504,-3.5504,-3.5504,-3.5504,-3.5504,-3.5504,-3.5504,-3.5504,-3.519,-3.4623,-3.522,-3.5504,-3.5504,-3.5504,-3.5504,-3.5504,-3.5504,-3.5504,-3.5504,-3.5504,-3.5504,-3.5504,-3.5504,-3.5504,-3.5504,-3.5504,-3.5504,-3.5504,-3.5504,-3.5504,-3.5504,-3.5504,-3.5439,-3.5359,-3.5359,-3.5294,-3.5213,-3.5213,-3.5213,-3.5213,-3.5213,-3.4543,-3.3876,-3.3876,-3.2558,-3.1315,-3.1217,-3.052,-2.9895,-2.983,-2.9792,-2.9792,-2.9792,-2.9792,-2.9792,-2.9792,-2.9792,-2.9792,-2.9792,0.0,0.0,-2.9716,-2.9189,-2.9026,-2.9591,-2.8637,-2.8072,-2.8185,0.0,0.0,-2.9779,-2.9792,-2.9792,-2.9792,-2.9792,-2.9792,-2.9792,-2.9792,-2.9792,-2.9792,-2.9792,-2.9792,-2.9767,-2.9176,-2.8925,-2.9013,-2.9578,-2.9792,-2.9792,-2.9792,-2.9792,-2.9792,-2.9792,-2.9792,-2.9792,-3.4543,-3.4921,-3.51,-3.51,-3.5325,-3.5504,-3.5504,-3.5504,-3.54,-3.513,-3.51,-3.519,-3.5474,-3.5504,-3.5504,-3.5504,-3.5504,-3.5504,-3.5504,-3.5504,-3.5504,-3.5504,-3.5504,-3.5504,-3.5504,-3.5504,-3.5504,-3.5504,-3.5504,-3.537,-3.51,-3.537,-3.5504,-3.5504,-3.5504,-3.5504,-3.5504,-3.5504,-3.5504,-3.5504,-3.5504,-3.5504,-3.5504,-3.5504,-3.5504,-3.5504,-3.5504,-3.5504,-3.5504,-3.5504,-3.5504,-3.5504,-3.5504,-3.5504,-3.5504,-3.5504,-3.5504,-3.5504,-3.5504,-3.5504,-3.5504,-3.5504,-3.5213,-3.4905,-3.4905,-3.4308,-3.3616,-3.2996,-3.1696,-3.0482,-2.9895,-2.9792,-2.9792,-2.9792,-2.9792,-2.9792,-2.9792,-2.9792,0.0,-2.9792,0.0,-2.9792,-2.9792,-2.9578,-2.9402,-2.9289,-2.8549,-2.8398,-2.9076,-2.9001,-2.9202,-2.9779,0.0,-2.9792,-2.9792,-2.9792,-2.9792,-2.9792,-2.9792,-2.9792,-2.9792,-2.9792,-2.9792,-2.9779,-2.9553,-2.9453,-2.9465,-2.9691,-2.9792,-2.9792,-2.9792,-2.9792,-2.9792,-2.9792,-2.9792,-2.9792,-3.5335,-3.5504,-3.5504,-3.5504,-3.5504,-3.5504,-3.5504,-3.5504,-3.5504,-3.5504,-3.5504,-3.5504,-3.5504,-3.5504,-3.5504,-3.5504,-3.5504,-3.5504,-3.5504,-3.5504,-3.5504,-3.5504,-3.5504,-3.5504,-3.5504,-3.5504,-3.5504,-3.5504,-3.5504,-3.54,-3.5205,-3.5205,-3.531,-3.5504,-3.5504,-3.5504,-3.5504,-3.5504,-3.5504,-3.5504,-3.5504,-3.5504,-3.5504,-3.5504,-3.5504,-3.5504,-3.5504,-3.5504,-3.5504,-3.5504,-3.5504,-3.5504,-3.5504,-3.5504,-3.5504,-3.5504,-3.5504,-3.5504,-3.5504,-3.5504,-3.5504,-3.5504,-3.5504,-3.5504,-3.5504,-3.5279,-3.4691,-3.3429,-3.2141,-3.0895,-2.996,-2.9792,-2.9792,-2.9792,-2.9792,-2.9792,-2.9792,-2.9792,0.0,-2.9792,-2.9792,-2.9792,-2.9792,-2.9792,-2.9616,-2.9214,-2.8825,-2.8875,-2.9503,-2.9315,-2.9365,-2.9779,0.0,0.0,-2.9792,-2.9792,-2.9792,-2.9792,-2.9792,-2.9792,-2.9792,-2.9792,-2.9792,-2.9792,-2.9792,-2.9792,-2.9792,-2.9792,-2.9792,-2.9792,-2.9792,-2.9792,-2.9792,-2.9792,-2.9792,-2.9792,-3.5311,-3.5504,-3.5504,-3.5504,-3.5504,-3.5504,-3.5504,-3.5504,-3.5504,-3.5504,-3.5504,-3.5504,-3.5504,-3.5504,-3.5504,-3.5504,-3.5504,-3.5504,-3.5504,-3.5504,-3.5504,-3.5504,-3.5504,-3.5504,-3.5504,-3.5504,-3.5504,-3.5504,-3.5504,-3.516,-3.4518,-3.4518,-3.4861,-3.5504,-3.5504,-3.5504,-3.5504,-3.5504,-3.5504,-3.5504,-3.5504,-3.5504,-3.5504,-3.5504,-3.5504,-3.5504,-3.5504,-3.5504,-3.5504,-3.5504,-3.5504,-3.5504,-3.5504,-3.5504,-3.5504,-3.5504,-3.5504,-3.5504,-3.5504,-3.5504,-3.5504,-3.5504,-3.5504,-3.5504,-3.5504,-3.4725,-3.3484,-3.1609,-3.1217,-3.0895,-2.996,-2.9792,-2.9792,-2.9792,-2.9792,-2.9792,-2.9792,-2.9792,0.0,-2.9792,-2.9792,-2.9792,-2.9792,-2.9792,-2.9792,-2.9779,-2.9779,-2.9528,-2.8938,-2.9478,-2.9779,-2.9792,-2.9792,-2.9792,-2.9792,-2.9792,-2.9792,-2.9792,-2.9792,-2.9792,-2.9792,-2.9792,-2.9792,-2.9792,-2.9792,-2.9792,-2.9792,-2.9792,-2.9792,-2.9792,-2.9792,-2.9792,-2.9792,-2.9792,-2.9792,-2.9792,-3.5439,-3.5504,-3.5504,-3.5504,-3.5504,-3.5654,-3.6103,-3.6178,-3.6327,-3.6746,-3.6806,-3.6806,-3.6806,-3.6028,-3.5504,-3.5504,-3.5504,-3.5504,-3.5504,-3.5504,-3.5504,-3.5504,-3.5504,-3.5504,-3.5504,-3.5504,-3.5504,-3.5504,-3.5504,-3.5385,-3.5175,-3.5175,-3.5295,-3.5504,-3.5504,-3.5504,-3.5504,-3.5504,-3.5504,-3.5504,-3.5504,-3.5504,-3.5504,-3.5504,-3.5504,-3.5504,-3.5504,-3.5504,-3.5504,-3.5504,-3.5504,-3.5504,-3.5504,-3.5504,-3.5504,-3.5504,-3.5504,-3.5504,-3.5504,-3.5504,-3.5504,-3.5504,-3.5504,-3.5504,-3.5504,-3.5246,-3.4658,-3.3394,-3.2593,-3.1852,-3.0945,-3.0241,-2.9792,-2.9792,-2.9792,-2.9792,-2.9792,-2.9792,-2.9792,-2.9792,-2.9792,-2.9792,-2.9792,-2.9792,-2.9792,-2.9792,-2.9792,-2.9716,-2.9528,-2.9691,-2.9792,-2.9792,-2.9792,-2.9792,-2.9792,-2.9792,-2.9792,-2.9792,-2.9792,-2.9792,-2.9792,-2.9792,-2.9792,-2.9792,-2.9792,-2.9792,-2.9792,-2.9792,-2.9792,-2.9792,-2.9792,-2.9792,-2.9792,-2.9792,-2.9792,-2.9792,-3.4989,-3.5033,-3.5033,-3.5033,-3.5371,-3.579,-3.6202,-3.6584,-3.6971,-3.736,-3.7404,-3.7404,-3.7404,-3.6701,-3.6133,-3.5893,-3.5878,-3.5774,-3.5519,-3.5504,-3.5504,-3.5504,-3.5504,-3.5504,-3.5504,-3.5504,-3.5504,-3.5504,-3.5504,-3.5504,-3.5504,-3.5504,-3.5504,-3.5504,-3.5504,-3.5504,-3.5504,-3.5504,-3.5504,-3.5504,-3.5504,-3.5504,-3.5504,-3.5504,-3.5504,-3.5504,-3.5504,-3.5504,-3.5504,-3.5504,-3.5504,-3.5504,-3.5504,-3.5504,-3.5504,-3.5504,-3.5504,-3.5504,-3.5504,-3.5504,-3.5504,-3.5504,-3.5504,-3.5504,-3.5504,-3.5504,-3.5213,-3.4211,-3.3241,-3.2321,-3.1352,-3.0419,-2.9792,-2.9792,-2.9792,-2.9792,-2.9792,-2.9792,-2.9792,-2.9792,-2.9792,-2.9792,-2.9792,-2.9792,-2.9792,-2.9792,-2.9792,-2.9792,-2.9792,-2.9792,-2.9792,-2.9792,-2.9792,-2.9792,-2.9792,-2.9792,-2.9792,-2.9792,-2.9792,-2.9792,-2.9792,-2.9792,-2.9792,-2.9792,-2.9792,-2.9792,-2.9792,-2.9792,-2.9792,-2.9792,-2.9792,-2.9792,-2.9792,-2.9792,-2.9792,-2.9792,-3.4183,-3.4293,-3.4293,-3.4293,-3.5127,-3.5812,-3.5856,-3.6635,-3.7273,-3.7317,-3.7317,-3.7317,-3.7317,-3.7317,-3.7064,-3.6454,-3.65,-3.6267,-3.5609,-3.5579,-3.5549,-3.5504,-3.5504,-3.5504,-3.5504,-3.5504,-3.5504,-3.5504,-3.5504,-3.5504,-3.5504,-3.5504,-3.5504,-3.5504,-3.5504,-3.5504,-3.5504,-3.5504,-3.5504,-3.5504,-3.5504,-3.5504,-3.5504,-3.5504,-3.5504,-3.5504,-3.5504,-3.5504,-3.5504,-3.5504,-3.5504,-3.5504,-3.5504,-3.5504,-3.5504,-3.5504,-3.5504,-3.5504,-3.5504,-3.5504,-3.5504,-3.5504,-3.5504,-3.5504,-3.5504,-3.5439,-3.5133,-3.4211,-3.3206,-3.2249,-3.1352,-3.0419,-2.9792,-2.9792,-2.9792,-2.9792,-2.9792,-2.9792,-2.9792,-2.9792,-2.9792,-2.9792,-2.9792,-2.9792,-2.9792,-2.9792,-2.9792,-2.9792,-2.9792,-2.9792,-2.9792,-2.9792,-2.9792,-2.9792,-2.9792,-2.9792,-2.9792,-2.9792,-2.9792,-2.9792,-2.9792,-2.9792,-2.9792,-2.9792,-2.9792,-2.9792,-2.9792,-2.9792,-2.9792,-2.9792,-2.9792,-2.9792,-2.9792,-2.9792,-2.9792,-2.9792,-3.4266,-3.4293,-3.4293,-3.4293,-3.4519,-3.4835,-3.537,-3.5629,-3.5972,-3.6423,-3.6479,-3.6479,-3.6479,-3.6479,-3.624,-3.5625,-3.6549,-3.6926,-3.6297,-3.6252,-3.6028,-3.5534,-3.5504,-3.5504,-3.5504,-3.5504,-3.5504,-3.5504,-3.5504,-3.5504,-3.5504,-3.5504,-3.5504,-3.5504,-3.5504,-3.5504,-3.5504,-3.5504,-3.5504,-3.5504,-3.5504,-3.5504,-3.5504,-3.5504,-3.5504,-3.5504,-3.5504,-3.5504,-3.5504,-3.5504,-3.5504,-3.5504,-3.5504,-3.5504,-3.5504,-3.5504,-3.5504,-3.5504,-3.5504,-3.5504,-3.5504,-3.5504,-3.5504,-3.5504,-3.5504,-3.4905,-3.4279,-3.4061,-3.2664,-3.1462,-3.1254,-3.0419,-2.9792,-2.9792,-2.9792,-2.9792,-2.9792,-2.9792,-2.9792,-2.9792,-2.9792,-2.9792,-2.9792,-2.9792,-2.9792,-2.9792,-2.9792,-2.9792,-2.9792,-2.9792,-2.9792,-2.9792,-2.9792,-2.9792,-2.9792,-2.9792,-2.9792,-2.9792,-2.9792,-2.9792,-2.9792,-2.9792,-2.9792,-2.9792,-2.9792,-2.9792,-2.9792,-2.9792,-2.9792,-2.9792,-2.9792,-2.9792,-2.9792,-2.9792,-2.9792,-2.9792,-3.3714,-3.3767,-3.3767,-3.3767,-3.4152,-3.4616,-3.4967,-3.5442,-3.5813,-3.6156,-3.6198,-3.6198,-3.6198,-3.6198,-3.6073,-3.5731,-3.615,-3.6173,-3.5517,-3.5959,-3.5938,-3.5257,-3.5707,-3.5804,-3.5519,-3.5504,-3.5504,-3.5504,-3.5019,-3.5052,-3.5504,-3.5019,-3.5067,-3.5504,-3.5504,-3.5504,-3.5472,-3.5019,-3.51,-3.5472,-3.4986,-3.51,-3.5504,-3.5504,-3.5504,-3.5504,-3.5504,-3.5213,-3.4872,-3.5359,-3.518,-3.4872,-3.5359,-3.5504,-3.5504,-3.5504,-3.5504,-3.5504,-3.5504,-3.5504,-3.5504,-3.5504,-3.5504,-3.5392,-3.4905,-3.4394,-3.3876,-3.3449,-3.2213,-3.1217,-3.1217,-3.0419,-2.9792,-2.9792,-2.9792,-2.9792,-2.9792,-2.9792,-2.9792,-2.9792,-2.9792,-2.9792,-2.9792,-2.9792,-2.9792,-2.9792,-2.9792,-2.9792,-2.9792,-2.9792,-2.9792,-2.9792,-2.9792,-2.9792,-2.9792,-2.9792,-2.9792,-2.9792,-2.9792,-2.9792,-2.9792,-2.9792,-2.9792,-2.9792,-2.9792,-2.9792,-2.9792,-2.9792,-2.9792,-2.9792,-2.9792,-2.9792,-2.9792,-2.9792,-2.9792,-2.9792,-3.298,-3.3124,-3.3124,-3.3124,-3.3839,-3.447,-3.447,-3.5197,-3.5734,-3.5734,-3.5734,-3.5734,-3.5734,-3.5734,-3.5734,-3.5734,-3.5259,-3.4806,-3.4472,-3.5305,-3.5511,-3.4861,-3.5599,-3.5777,-3.5197,-3.5225,-3.5279,-3.5279,-3.4576,-3.4658,-3.5472,-3.4624,-3.4691,-3.5504,-3.5359,-3.5279,-3.5213,-3.4211,-3.4293,-3.5001,-3.4293,-3.4442,-3.5067,-3.5213,-3.5279,-3.5279,-3.5279,-3.4725,-3.4129,-3.4986,-3.4725,-3.4143,-3.4986,-3.5279,-3.5279,-3.5279,-3.5166,-3.51,-3.5246,-3.5279,-3.5326,-3.5472,-3.5504,-3.5246,-3.4245,-3.3876,-3.3518,-3.2558,-3.1646,-3.097,-3.097,-3.0343,-2.9792,-2.9792,-2.9792,-2.9792,-2.9792,-2.9792,-2.9792,-2.9792,-2.9792,-2.9792,-2.9792,-2.9792,-2.9792,-2.9792,-2.9792,-2.9792,-2.9792,-2.9792,-2.9792,-2.9792,-2.9792,-2.9792,-2.9792,-2.9792,-2.9792,-2.9792,-2.9792,-2.9792,-2.9792,-2.9792,-2.9792,-2.9792,-2.9792,-2.9792,-2.9792,-2.9792,-2.9792,-2.9792,-2.9792,-2.9792,-2.9792,-2.9624,-2.9534,-2.9534,-3.3056,-3.3124,-3.3124,-3.3124,-3.324,-3.3356,-3.3356,-3.3471,-3.3586,-3.3586,-3.3586,-3.3586,-3.3586,-3.3586,-3.3586,-3.3586,-3.3522,-3.3938,-3.5052,-3.528,-3.5093,-3.4408,-3.4052,-3.3826,-3.3729,-3.406,-3.4245,-3.4245,-3.4953,-3.5359,-3.5504,-3.5359,-3.5359,-3.5472,-3.461,-3.4245,-3.4177,-3.3206,-3.2925,-3.3101,-3.3739,-3.3636,-3.315,-3.3925,-3.4245,-3.4245,-3.4245,-3.4129,-3.4027,-3.4177,-3.4129,-3.4027,-3.4177,-3.4245,-3.4245,-3.4245,-3.3671,-3.3206,-3.4027,-3.4245,-3.4428,-3.5279,-3.5504,-3.5246,-3.4245,-3.338,-3.2558,-3.1609,-3.0658,-2.9998,-2.9998,-2.9895,-2.9792,-2.9792,-2.9792,-2.9792,-2.9792,-2.9792,-2.9792,-2.9792,-2.9792,-2.9792,-2.9792,-2.9792,-2.9792,-2.9792,-2.9792,-2.9792,-2.9792,-2.9792,-2.9792,-2.9792,-2.9792,-2.9792,-2.9792,-2.9792,-2.9792,-2.9792,-2.9792,-2.9792,-2.9792,-2.9792,-2.9792,-2.9792,-2.9792,-2.9792,-2.9792,-2.9792,-2.9792,-2.9792,-2.9792,-2.9792,-2.9663,-2.8727,-2.8347,-2.8347,-3.3124,-3.3124,-3.3124,-3.3124,-3.3124,-3.3124,-3.3124,-3.3124,-3.3124,-3.3124,-3.3124,-3.3124,-3.3124,-3.3124,-3.3124,-3.3124,-3.3124,-3.3411,-3.4048,-3.466,-3.4673,-3.4015,-3.4271,-3.4107,-3.3395,-3.3589,-3.3544,-3.3241,-3.3185,-3.3443,-3.3939,-3.3408,-3.3443,-3.3939,-3.3993,-3.3993,-3.3993,-3.3518,-3.3345,-3.3345,-3.3276,-3.2996,-3.2629,-3.3066,-3.3241,-3.3241,-3.3241,-3.2925,-3.2558,-3.3066,-3.2925,-3.2558,-3.3101,-3.3241,-3.3241,-3.3241,-3.2961,-3.2713,-3.3136,-3.3241,-3.3345,-3.3837,-3.3939,-3.3685,-3.2713,-3.2177,-3.1573,-3.0633,-3.0113,-2.9792,-2.9792,-2.9792,-2.9792,-2.9792,-2.9792,-2.9792,-2.9792,-2.9792,-2.9792,-2.9792,-2.9792,-2.9792,-2.9792,-2.9792,-2.9792,-2.9792,-2.9792,-2.9792,-2.9792,-2.9792,-2.9792,-2.9792,-2.9792,-2.9792,-2.9792,-2.9792,-2.9792,-2.9792,-2.9792,-2.9792,-2.9792,-2.9792,-2.9792,-2.9792,-2.9792,-2.9792,-2.9792,-2.9792,-2.9792,-2.9792,-2.9792,-2.9792,-2.9753,-2.9197,-2.9028,-2.9028,-3.3124,-3.3124,-3.3124,-3.3124,-3.3124,-3.3124,-3.3124,-3.3124,-3.3124,-3.3124,-3.3124,-3.3124,-3.3124,-3.3124,-3.3124,-3.3124,-3.3124,-3.3124,-3.3124,-3.3869,-3.4121,-3.3595,-3.422,-3.4062,-3.2958,-3.3156,-3.3018,-3.2454,-3.1944,-3.2023,-3.2558,-3.1852,-3.1924,-3.2629,-3.3136,-3.3345,-3.3345,-3.3115,-3.3031,-3.2961,-3.2464,-3.2141,-3.1974,-3.2177,-3.2285,-3.2285,-3.2285,-3.1815,-3.1315,-3.2033,-3.1815,-3.1315,-3.2069,-3.2285,-3.2285,-3.2285,-3.2105,-3.2046,-3.25,-3.2464,-3.2321,-3.2558,-3.2593,-3.2357,-3.1426,-3.1217,-3.0932,-2.9998,-2.9792,-2.9792,-2.9792,-2.9792,-2.9792,-2.9792,-2.9792,-2.9792,-2.9792,-2.9792,-2.9792,-2.9792,-2.9792,-2.9792,-2.9792,-2.9792,-2.9792,-2.9792,-2.9792,-2.9792,-2.9792,-2.9792,-2.9792,-2.9792,-2.9792,-2.9792,-2.9792,-2.9792,-2.9792,-2.9792,-2.9792,-2.9792,-2.9792,-2.9792,-2.9792,-2.9792,-2.9792,-2.9792,-2.9792,-2.9792,-2.9792,-2.9792,-2.9792,-2.9792,-2.9753,-2.9495,-2.9404,-2.9404,-3.3124,-3.3124,-3.3124,-3.3124,-3.3124,-3.3124,-3.3124,-3.3124,-3.3124,-3.3124,-3.3124,-3.3124,-3.3124,-3.3124,-3.3124,-3.3124,-3.3124,-3.3124,-3.3124,-3.3154,-3.3215,-3.3134,-3.2702,-3.2174,-3.1567,-3.2384,-3.2591,-3.2048,-3.2847,-3.3001,-3.2593,-3.2522,-3.2522,-3.2558,-3.1742,-3.1426,-3.1352,-3.0495,-3.0113,-3.0177,-3.097,-3.0758,-3.0113,-3.097,-3.1278,-3.1278,-3.1278,-3.1241,-3.1217,-3.1278,-3.1241,-3.1217,-3.1278,-3.1278,-3.1278,-3.1278,-3.0696,-3.0394,-3.2141,-3.196,-3.1499,-3.2393,-3.2593,-3.2357,-3.1426,-3.1217,-3.0932,-2.9998,-2.9792,-2.9792,-2.9792,-2.9792,-2.9792,-2.9792,-2.9792,-2.9792,-2.9792,-2.9792,-2.9792,-2.9792,-2.9792,-2.9792,-2.9792,-2.9792,-2.9792,-2.9792,-2.9792,-2.9792,-2.9792,-2.9792,-2.9792,-2.9792,-2.9792,-2.9792,-2.9792,-2.9792,-2.9792,-2.9792,-2.9792,-2.9792,-2.9792,-2.9792,-2.9792,-2.9792,-2.9792,-2.9792,-2.9792,-2.9792,-2.9792,-2.9792,-2.9792,-2.9792,-2.9663,-2.8597,-2.8215,-2.8215,-3.3124,-3.3124,-3.3124,-3.3124,-3.3124,-3.3124,-3.3124,-3.3124,-3.3124,-3.3124,-3.3124,-3.3124,-3.3124,-3.3124,-3.3124,-3.3124,-3.3124,-3.3124,-3.3124,-3.3124,-3.3124,-3.3124,-3.2867,-3.2491,-3.1913,-3.2247,-3.2171,-3.1636,-3.1979,-3.2059,-3.1837,-3.1537,-3.1381,-3.1368,-3.1239,-3.1217,-3.1217,-3.1439,-3.1193,-3.0696,-3.1082,-3.062,-2.983,-3.0216,-3.0317,-3.0317,-3.0317,-3.0317,-3.0317,-3.0317,-3.0317,-3.0317,-3.0317,-3.0317,-3.0317,-3.0317,-3.0075,-2.9972,-3.0671,-3.0595,-3.0419,-3.0771,-3.0846,-3.0771,-3.0419,-3.0317,-3.0241,-2.9856,-2.9792,-2.9792,-2.9792,-2.9792,-2.9792,-2.9792,-2.9792,-2.9792,-2.9792,-2.9792,-2.9792,-2.9792,-2.9792,-2.9792,-2.9792,-2.9792,-2.9792,-2.9792,-2.9792,-2.9792,-2.9792,-2.9792,-2.9792,-2.9792,-2.9792,-2.9792,-2.9792,-2.9792,-2.9792,-2.9792,-2.9792,-2.9792,-2.9792,-2.9792,-2.9792,-2.9792,-2.9792,-2.9792,-2.9792,-2.9792,-2.9792,-2.9792,-2.9792,-2.9792,-2.9753,-2.9314,-2.9157,-2.9157,-3.3124,-3.3124,-3.3124,-3.3124,-3.3124,-3.3124,-3.3124,-3.3124,-3.3124,-3.3124,-3.3124,-3.3124,-3.3124,-3.3124,-3.3124,-3.3124,-3.3124,-3.3124,-3.3124,-3.3124,-3.3124,-3.3124,-3.3124,-3.2893,-3.2491,-3.2478,-3.2215,-3.165,-3.165,-3.1562,-3.1386,-3.1022,-3.0859,-3.0874,-3.1138,-3.1187,-3.1069,-3.1718,-3.1501,-3.0758,-3.0758,-3.0381,-2.9792,-2.9792,-2.9792,-2.9792,-2.9792,-2.9792,-2.9792,-2.9792,-2.9792,-2.9792,-2.9792,-2.9792,-2.9792,-2.9792,-2.9792,-2.9792,-2.9792,-2.9792,-2.9792,-2.9792,-2.9792,-2.9792,-2.9792,-2.9792,-2.9792,-2.9792,-2.9792,-2.9792,-2.9792,-2.9792,-2.9792,-2.9792,-2.9792,-2.9792,-2.9792,-2.9792,-2.9792,-2.9792,-2.9792,-2.9792,-2.9792,-2.9792,-2.9792,-2.9792,-2.9792,-2.9792,-2.9792,-2.9792,-2.9792,-2.9792,-2.9792,-2.9792,-2.9792,-2.9792,-2.9792,-2.9792,-2.9792,-2.9792,-2.9792,-2.9792,-2.9792,-2.9792,-2.9792,-2.9792,-2.9792,-2.9792,-2.9792,-2.9792,-2.9792,-2.9792,-2.9792,-2.9792,-2.9792,-2.9792,-3.3124,-3.3124,-3.3124,-3.3124,-3.3124,-3.3124,-3.3124,-3.3124,-3.3124,-3.3124,-3.3124,-3.3124,-3.3124,-3.3124,-3.3124,-3.3124,-3.3124,-3.3124,-3.3124,-3.3124,-3.3124,-3.3124,-3.3124,-3.3124,-3.3124,-3.3124,-3.2792,-3.2227,-3.2227,-3.1938,-3.1399,-3.1399,-3.1399,-3.1399,-3.1386,-3.1097,-3.062,-3.062,-3.0306,-2.9804,-2.9804,-2.9804,-2.9804,-2.9792,-2.9792,-2.9792,-2.9792,-2.9792,-2.9792,-2.9792,-2.9792,-2.9792,-2.9792,-2.9792,-2.9792,-2.9792,-2.9792,-2.9792,-2.9792,-2.9792,-2.9792,-2.9792,-2.9792,-2.9792,-2.9792,-2.9792,-2.9792,-2.9792,-2.9792,-2.9792,-2.9792,-2.9792,-2.9792,-2.9792,-2.9792,-2.9792,-2.9792,-2.9792,-2.9792,-2.9792,-2.9792,-2.9792,-2.9792,-2.9792,-2.9792,-2.9792,-2.9792,-2.9792,-2.9792,-2.9792,-2.9792,-2.9792,-2.9792,-2.9792,-2.9792,-2.9792,-2.9792,-2.9792,-2.9792,-2.9792,-2.9792,-2.9792,-2.9792,-2.9792,-2.9792,-2.9792,-2.9792,-2.9792,-2.9792,-2.9792,-2.9792,-2.9792,-2.9792,-2.9792,-2.9792,-2.9792,-3.3124,-3.3124,-3.3124,-3.3124,-3.3124,-3.3124,-3.3124,-3.3124,-3.3124,-3.3124,-3.3124,-3.3124,-3.3124,-3.3124,-3.3124,-3.3124,-3.3124,-3.3124,-3.3124,-3.3124,-3.3124,-3.3124,-3.3124,-3.3124,-3.3124,-3.3124,-3.2993,-3.2817,-3.2817,-3.2729,-3.2566,-3.2152,-3.1964,-3.1951,-3.1562,-3.1298,-3.116,-3.116,-3.1072,-3.0884,-3.052,-3.0369,-3.0331,-2.9942,-2.9792,-2.9792,-2.9792,-2.9792,-2.9792,-2.9792,-2.9792,-2.9792,-2.9792,-2.9792,-2.9792,-2.9792,-2.9792,-2.9792,-2.9792,-2.9792,-2.9792,-2.9792,-2.9792,-2.9792,-2.9792,-2.9792,-2.9792,-2.9792,-2.9792,-2.9792,-2.9792,-2.9792,-2.9792,-2.9792,-2.9792,-2.9792,-2.9792,-2.9792,-2.9792,-2.9792,-2.9792,-2.9792,-2.9792,-2.9792,-2.9792,-2.9792,-2.9792,-2.9792,-2.9792,-2.9792,-2.9792,-2.9792,-2.9792,-2.9792,-2.9792,-2.9792,-2.9792,-2.9792,-2.9792,-2.9792,-2.9792,-2.9792,-2.9792,-2.9792,-2.9792,-2.9792,-2.9792,-2.9792,-2.9792,-2.9792,-2.9792,-2.9792,-2.9792,-2.9792,-2.9792,-2.9842,-3.3124,-3.3124,-3.3124,-3.3124,-3.3124,-3.3124,-3.3124,-3.3124,-3.3124,-3.3124,-3.3124,-3.3124,-3.3124,-3.3124,-3.3124,-3.3124,-3.3124,-3.3124,-3.3124,-3.3124,-3.3124,-3.3124,-3.3124,-3.3124,-3.3124,-3.3124,-3.3124,-3.3124,-3.3124,-3.3124,-3.3111,-3.2717,-3.2554,-3.2541,-3.2202,-3.1926,-3.1725,-3.1725,-3.1587,-3.1361,-3.1047,-3.0922,-3.0884,-3.0557,-3.0419,-3.0394,-3.0193,-3.0118,-3.008,-2.9867,-2.9792,-2.9792,-2.9792,-2.9792,-2.9792,-2.9792,-2.9792,-2.9792,-2.9792,-2.9792,-2.9792,-2.9792,-2.9792,-2.9792,-2.9792,-2.9792,-2.9792,-2.9792,-2.9792,-2.9792,-2.9792,-2.9792,-2.9792,-2.9792,-2.9792,-2.9792,-2.9792,-2.9792,-2.9792,-2.9792,-2.9792,-2.9792,-2.9792,-2.9792,-2.9792,-2.9792,-2.9792,-2.9792,-2.9792,-2.9792,-2.9792,-2.9792,-2.9792,-2.9792,-2.9792,-2.9792,-2.9792,-2.9792,-2.9792,-2.9792,-2.9792,-2.9792,-2.9792,-2.9792,-2.9792,-2.9792,-2.9792,-2.9792,-2.9792,-2.9792,-2.9792,-2.9534,-2.9131,-2.9352,-2.9095,-2.8887,-3.3124,-3.3124,-3.3124,-3.3124,-3.3124,-3.3124,-3.3124,-3.3124,-3.3124,-3.3124,-3.3124,-3.3124,-3.3124,-3.3124,-3.3124,-3.3124,-3.3124,-3.3124,-3.3124,-3.3124,-3.3124,-3.3124,-3.3124,-3.3124,-3.3124,-3.3124,-3.3124,-3.3124,-3.3124,-3.3124,-3.3124,-3.3124,-3.3124,-3.3124,-3.3124,-3.278,-3.229,-3.229,-3.2001,-3.1537,-3.1486,-3.1461,-3.1461,-3.1411,-3.1386,-3.1336,-3.0859,-3.0683,-3.0608,-3.0105,-2.9905,-2.9867,-2.9867,-2.9829,-2.9792,-2.9792,-2.9792,-2.9792,-2.9792,-2.9792,-2.9792,-2.9792,-2.9792,-2.9792,-2.9792,-2.9792,-2.9792,-2.9792,-2.9792,-2.9792,-2.9792,-2.9792,-2.9792,-2.9792,-2.9792,-2.9792,-2.9792,-2.9792,-2.9792,-2.9792,-2.9792,-2.9792,-2.9792,-2.9792,-2.9792,-2.9792,-2.9792,-2.9792,-2.9792,-2.9792,-2.9792,-2.9792,-2.9792,-2.9792,-2.9792,-2.9792,-2.9792,-2.9792,-2.9792,-2.9792,-2.9792,-2.9792,-2.9792,-2.9792,-2.9702,-2.9663,-2.9663,-2.9663,-2.9585,-2.9534,-2.9702,-2.9052,-2.8054,-2.862,-2.8106,-2.7366,-3.3124,-3.3124,-3.3124,-3.3124,-3.3124,-3.3124,-3.3124,-3.3124,-3.3124,-3.3124,-3.3124,-3.3124,-3.3124,-3.3124,-3.3124,-3.3124,-3.3124,-3.3124,-3.3124,-3.3124,-3.3124,-3.3124,-3.3124,-3.3124,-3.3124,-3.3124,-3.3124,-3.3124,-3.3124,-3.3124,-3.3124,-3.3124,-3.3124,-3.3124,-3.3124,-3.3048,-3.288,-3.288,-3.2817,-3.2667,-3.2215,-3.2039,-3.1989,-3.1549,-3.1386,-3.1373,-3.126,-3.1223,-3.1198,-3.1085,-3.0771,-3.0432,-3.0432,-3.0143,-2.9792,-2.9792,-2.9792,-2.9792,-2.9792,-2.9792,-2.9792,-2.9792,-2.9792,-2.9792,-2.9792,-2.9792,-2.9792,-2.9792,-2.9792,-2.9792,-2.9792,-2.9792,-2.9792,-2.9792,-2.9792,-2.9792,-2.9792,-2.9792,-2.9792,-2.9792,-2.9792,-2.9792,-2.9792,-2.9792,-2.9792,-2.9792,-2.9792,-2.9792,-2.9792,-2.9792,-2.9792,-2.9792,-2.9792,-2.9792,-2.9792,-2.9792,-2.9792,-2.9792,-2.9792,-2.9792,-2.9792,-2.9792,-2.9792,-2.9753,-2.8858,-2.8466,-2.8466,-2.8466,-2.7988,-2.7383,-2.9131,-2.8795,-2.7421,-2.8421,-2.8283,-2.7697,-3.3124,-3.3124,-3.3124,-3.3124,-3.3124,-3.3124,-3.3124,-3.3124,-3.3124,-3.3124,-3.3124,-3.3124,-3.3124,-3.3124,-3.3124,-3.3124,-3.3124,-3.3124,-3.3124,-3.3124,-3.3124,-3.3124,-3.3124,-3.3124,-3.3124,-3.3124,-3.3124,-3.3124,-3.3124,-3.3124,-3.3124,-3.3124,-3.3124,-3.3124,-3.3124,-3.3124,-3.3124,-3.3124,-3.3124,-3.3056,-3.2754,-3.2629,-3.2591,-3.2303,-3.219,-3.2152,-3.1876,-3.1612,-3.1386,-3.1386,-3.121,-3.0984,-3.0984,-3.062,-3.0181,-3.0181,-2.9993,-2.9792,-2.9792,-2.9792,-2.9792,-2.9792,-2.9792,-2.9792,-2.9792,-2.9792,-2.9792,-2.9792,-2.9792,-2.9792,-2.9792,-2.9792,-2.9792,-2.9792,-2.9792,-2.9792,-2.9792,-2.9792,-2.9792,-2.9792,-2.9792,-2.9792,-2.9792,-2.9792,-2.9792,-2.9792,-2.9792,-2.9792,-2.9792,-2.9792,-2.9792,-2.9792,-2.9792,-2.9792,-2.9792,-2.9792,-2.9792,-2.9792,-2.9792,-2.9792,-2.9792,-2.9792,-2.9495,-2.8949,-2.8347,-2.7804,-2.7319,-2.7319,-2.7101,-2.6903,-2.8081,-2.7752,-2.6715,-2.7501,-2.7723,-2.7688,-3.3124,-3.3124,-3.3124,-3.3124,-3.3124,-3.3124,-3.3124,-3.3124,-3.3124,-3.3124,-3.3124,-3.3124,-3.3124,-3.3124,-3.3124,-3.3124,-3.3124,-3.3124,-3.3124,-3.3124,-3.3124,-3.3124,-3.3124,-3.3124,-3.3124,-3.3124,-3.3124,-3.3124,-3.3124,-3.3124,-3.3124,-3.3124,-3.3124,-3.3124,-3.3124,-3.3124,-3.3124,-3.3124,-3.3124,-3.3124,-3.3124,-3.3124,-3.3124,-3.3124,-3.3124,-3.3018,-3.2528,-3.2064,-3.1675,-3.1675,-3.1612,-3.1537,-3.1537,-3.1173,-3.0746,-3.0746,-3.0369,-2.993,-2.993,-2.9867,-2.9792,-2.9792,-2.9792,-2.9792,-2.9792,-2.9792,-2.9792,-2.9792,-2.9792,-2.9792,-2.9792,-2.9792,-2.9792,-2.9792,-2.9792,-2.9792,-2.9792,-2.9792,-2.9792,-2.9792,-2.9792,-2.9792,-2.9792,-2.9792,-2.9792,-2.9792,-2.9792,-2.9792,-2.9792,-2.9792,-2.9792,-2.9792,-2.9792,-2.9792,-2.9792,-2.9792,-2.9792,-2.9792,-2.9585,-2.9495,-2.9495,-2.9495,-2.8897,-2.7804,-2.7643,-2.708,-2.6304,-2.6304,-2.6424,-2.667,-2.7056,-2.6671,-2.5974,-2.6383,-2.6832,-2.7268,-3.3124,-3.3124,-3.3124,-3.3124,-3.3124,-3.3124,-3.3124,-3.3124,-3.3124,-3.3124,-3.3124,-3.3124,-3.3124,-3.3124,-3.3124,-3.3124,-3.3124,-3.3124,-3.3124,-3.3124,-3.3124,-3.3124,-3.3124,-3.3124,-3.3124,-3.3124,-3.3124,-3.3124,-3.3124,-3.3124,-3.3124,-3.3124,-3.3124,-3.3124,-3.3124,-3.3124,-3.3124,-3.3124,-3.3124,-3.3124,-3.3124,-3.3124,-3.3124,-3.3124,-3.3124,-3.3111,-3.2993,-3.2918,-3.2855,-3.2855,-3.2516,-3.2102,-3.2102,-3.1725,-3.1286,-3.1286,-3.0909,-3.0507,-3.0507,-3.0156,-2.9792,-2.9792,-2.9792,-2.9792,-2.9792,-2.9792,-2.9792,-2.9792,-2.9792,-2.9792,-2.9792,-2.9792,-2.9792,-2.9792,-2.9792,-2.9792,-2.9792,-2.9792,-2.9792,-2.9792,-2.9792,-2.9792,-2.9792,-2.9792,-2.9792,-2.9792,-2.9792,-2.9792,-2.9792,-2.9792,-2.9792,-2.9792,-2.9792,-2.9792,-2.9792,-2.9792,-2.9792,-2.9792,-2.8806,-2.8347,-2.8347,-2.8347,-2.7735,-2.6678,-2.5661,-2.536,-2.5537,-2.5537,-2.5248,-2.4947,-2.6855,-2.6621,-2.5265,-2.5671,-2.5868,-2.5965,-3.3124,-3.2513,-3.2283,-3.2982,-3.2513,-3.2283,-3.2982,-3.3124,-3.3124,-3.3124,-3.3124,-3.3124,-3.3124,-3.3124,-3.3124,-3.3124,-3.3124,-3.3124,-3.3124,-3.3124,-3.3124,-3.3124,-3.3124,-3.3124,-3.3124,-3.3124,-3.3124,-3.3124,-3.3124,-3.3124,-3.3124,-3.3124,-3.3124,-3.3124,-3.3124,-3.3124,-3.3124,-3.3124,-3.3124,-3.3124,-3.3124,-3.3124,-3.3124,-3.3124,-3.3124,-3.3124,-3.3124,-3.3124,-3.3124,-3.3124,-3.2905,-3.2692,-3.2692,-3.2303,-3.1851,-3.1851,-3.1474,-3.1047,-3.1047,-3.0871,-3.062,-3.0319,-3.0256,-3.0168,-2.9867,-2.9792,-2.9792,-2.9792,-2.9792,-2.9792,-2.9792,-2.9792,-2.9792,-2.9792,-2.9792,-2.9792,-2.9792,-2.9792,-2.9792,-2.9792,-2.9792,-2.9792,-2.9792,-2.9792,-2.9792,-2.9792,-2.9792,-2.9792,-2.9792,-2.9792,-2.9792,-2.9792,-2.9792,-2.9792,-2.9792,-2.9792,-2.9792,-2.9792,-2.8636,-2.8096,-2.8096,-2.7493,-2.6742,-2.5872,-2.5358,-2.5021,-2.4836,-2.4836,-2.4834,-2.4869,-2.5849,-2.5902,-2.5469,-2.5615,-2.5693,-2.5693]},{"header":{"parameterUnit":"m.s-1","parameterCategory":1,"la1":30.6,"la2":28.766,"lo1":-90.7593,"lo2":-88.6598,"dy":0.0162,"dx":0.0183,"nx":116,"ny":114,"refTime":"2023-10-05T12:00:00:Z","depth":0,"parameterNumber":3,"parameterNumberName":"V-component_of_WINDS"},"data":[0.0,0.0,0.0,0.0,0.0,0.0,0.0,0.0,0.0,0.0,0.0,0.0,0.0,0.0,0.0,0.0,0.0,0.0,0.0,0.0,0.0,0.0,0.0,0.0,0.0,0.0,0.0,0.0,0.0,0.0,0.0,0.0,0.0,0.0,0.0,0.0,0.0,0.0,0.0,0.0,0.0,0.0,0.0,0.0,0.0,0.0,0.0,0.0,0.0,0.0,0.0,0.0,0.0,0.0,0.0,0.0,0.0,0.0,0.0,0.0,0.0,0.0,0.0,0.0,0.0,0.0,0.0,0.0,0.0,0.0,0.0,0.0,0.0,0.0,0.0,0.0,0.0,0.0,0.0,0.0,0.0,0.0,0.0,0.0,0.0,0.0,0.0,0.0,0.0,0.0,0.0,0.0,0.0,0.0,0.0,0.0,0.0,0.0,0.0,0.0,0.0,0.0,0.0,0.0,0.0,0.0,0.0,0.0,0.0,0.0,0.0,0.0,0.0,0.0,0.0,0.0,0.0,0.0,0.0,0.0,0.0,0.0,0.0,0.0,0.0,0.0,0.0,0.0,0.0,0.0,0.0,0.0,0.0,0.0,0.0,0.0,0.0,0.0,0.0,0.0,0.0,0.0,0.0,0.0,0.0,0.0,0.0,0.0,0.0,0.0,0.0,0.0,0.0,0.0,0.0,0.0,0.0,0.0,0.0,0.0,0.0,0.0,0.0,0.0,0.0,0.0,0.0,0.0,0.0,0.0,0.0,0.0,0.0,0.0,0.0,0.0,0.0,0.0,0.0,0.0,0.0,0.0,0.0,0.0,0.0,0.0,0.0,0.0,0.0,0.0,0.0,0.0,0.0,0.0,0.0,0.0,0.0,0.0,0.0,0.0,0.0,0.0,0.0,0.0,0.0,0.0,0.0,0.0,0.0,0.0,0.0,0.0,0.0,0.0,0.0,0.0,0.0,0.0,0.0,0.0,0.0,0.0,0.0,0.0,0.0,0.0,0.0,0.0,0.0,0.0,0.0,0.0,0.0,0.0,0.0,0.0,0.0,0.0,0.0,0.0,0.0,0.0,0.0,0.0,0.0,0.0,0.0,0.0,0.0,0.0,0.0,0.0,0.0,0.0,0.0,0.0,0.0,0.0,0.0,0.0,0.0,0.0,0.0,0.0,0.0,0.0,0.0,0.0,0.0,0.0,0.0,0.0,0.0,0.0,0.0,0.0,0.0,0.0,0.0,0.0,0.0,0.0,0.0,0.0,0.0,0.0,0.0,0.0,0.0,0.0,0.0,0.0,0.0,0.0,0.0,0.0,0.0,0.0,0.0,0.0,0.0,0.0,0.0,0.0,0.0,0.0,0.0,0.0,0.0,0.0,0.0,0.0,0.0,0.0,0.0,0.0,0.0,0.0,0.0,0.0,0.0,0.0,0.0,0.0,0.0,0.0,0.0,0.0,0.0,0.0,0.0,0.0,0.0,0.0,0.0,0.0,0.0,0.0,0.0,0.0,0.0,0.0,0.0,0.0,0.0,0.0,0.0,0.0,0.0,0.0,0.0,0.0,0.0,0.0,0.0,0.0,0.0,0.0,0.0,0.0,0.0,0.0,0.0,0.0,0.0,0.0,0.0,0.0,0.0,0.0,0.0,0.0,0.0,0.0,0.0,0.0,0.0,0.0,0.0,0.0,0.0,0.0,0.0,0.0,0.0,0.0,0.0,0.0,0.0,0.0,0.0,0.0,0.0,0.0,0.0,0.0,0.0,0.0,0.0,0.0,0.0,0.0,0.0,0.0,0.0,0.0,0.0,0.0,0.0,0.0,0.0,0.0,0.0,0.0,0.0,0.0,0.0,0.0,0.0,0.0,0.0,0.0,0.0,0.0,0.0,0.0,0.0,0.0,0.0,0.0,0.0,0.0,0.0,0.0,0.0,0.0,0.0,0.0,0.0,0.0,0.0,0.0,0.0,0.0,0.0,0.0,0.0,0.0,0.0,0.0,0.0,0.0,0.0,0.0,0.0,0.0,0.0,0.0,0.0,0.0,0.0,0.0,0.0,0.0,0.0,0.0,0.0,0.0,0.0,0.0,0.0,0.0,0.0,0.0,0.0,0.0,0.0,0.0,0.0,0.0,0.0,0.0,0.0,0.0,0.0,0.0,0.0,0.0,0.0,0.0,0.0,0.0,0.0,0.0,0.0,0.0,0.0,0.0,0.0,0.0,0.0,0.0,0.0,0.0,0.0,0.0,0.0,0.0,0.0,0.0,0.0,0.0,0.0,0.0,0.0,0.0,0.0,0.0,0.0,0.0,0.0,0.0,0.0,0.0,0.0,0.0,0.0,0.0,0.0,0.0,0.0,0.0,0.0,0.0,0.0,0.0,0.0,0.0,0.0,0.0,0.0,0.0,0.0,0.0,0.0,0.0,0.0,0.0,0.0,0.0,0.0,0.0,0.0,0.0,0.0,0.0,0.0,0.0,0.0,0.0,0.0,0.0,0.0,0.0,0.0,0.0,0.0,0.0,0.0,0.0,0.0,0.0,0.0,0.0,0.0,0.0,0.0,0.0,0.0,0.0,0.0,0.0,0.0,0.0,0.0,0.0,0.0,0.0,0.0,0.0,0.0,0.0,0.0,0.0,0.0,0.0,0.0,0.0,0.0,0.0,0.0,0.0,0.0,0.0,0.0,0.0,0.0,0.0,0.0,0.0,0.0,0.0,0.0,0.0,0.0,0.0,0.0,0.0,0.0,0.0,0.0,0.0,0.0,0.0,0.0,0.0,0.0,0.0,0.0,0.0,0.0,0.0,0.0,0.0,0.0,0.0,0.0,0.0,0.0,0.0,0.0,0.0,0.0,0.0,0.0,0.0,0.0,0.0,0.0,0.0,0.0,0.0,0.0,0.0,0.0,0.0,0.0,0.0,0.0,0.0,0.0,0.0,0.0,0.0,0.0,0.0,0.0,0.0,0.0,0.0,0.0,0.0,0.0,0.0,0.0,0.0,0.0,0.0,0.0,0.0,0.0,0.0,0.0,0.0,0.0,0.0,0.0,0.0,0.0,0.0,0.0,0.0,0.0,0.0,0.0,0.0,0.0,0.0,0.0,0.0,0.0,0.0,0.0,0.0,0.0,0.0,0.0,0.0,0.0,0.0,0.0,0.0,0.0,0.0,0.0,0.0,0.0,0.0,0.0,0.0,0.0,0.0,0.0,0.0,0.0,0.0,0.0,0.0,0.0,0.0,0.0,0.0,0.0,0.0,0.0,0.0,0.0,0.0,0.0,0.0,0.0,0.0,0.0,0.0,0.0,0.0,0.0,0.0,0.0,0.0,0.0,0.0,0.0,0.0,0.0,0.0,0.0,0.0,0.0,0.0,0.0,0.0,0.0,0.0,0.0,0.0,0.0,0.0,0.0,0.0,0.0,0.0,0.0,0.0,0.0,0.0,0.0,0.0,0.0,0.0,0.0,0.0,0.0,0.0,0.0,0.0,0.0,0.0,0.0,0.0,0.0,0.0,0.0,0.0,0.0,0.0,0.0,0.0,0.0,0.0,0.0,0.0,0.0,0.0,0.0,0.0,0.0,0.0,0.0,0.0,0.0,0.0,0.0,0.0,0.0,0.0,0.0,0.0,0.0,0.0,0.0,0.0,0.0,0.0,0.0,0.0,0.0,0.0,0.0,0.0,0.0,0.0,0.0,0.0,0.0,0.0,0.0,0.0,0.0,0.0,0.0,0.0,0.0,0.0,0.0,0.0,0.0,0.0,0.0,0.0,0.0,0.0,0.0,0.0,0.0,0.0,0.0,0.0,0.0,0.0,0.0,0.0,0.0,0.0,0.0,0.0,0.0,0.0,0.0,0.0,0.0,0.0,0.0,0.0,0.0,0.0,0.0,0.0,0.0,0.0,0.0,0.0,0.0,0.0,0.0,0.0,0.0,0.0,0.0,0.0,0.0,0.0,0.0,0.0,0.0,0.0,0.0,0.0,0.0,0.0,0.0,0.0,0.0,0.0,0.0,0.0,0.0,0.0,0.0,0.0,0.0,0.0,0.0,0.0,0.0,0.0,0.0,0.0,0.0,0.0,0.0,0.0,0.0,0.0,0.0,0.0,0.0,0.0,0.0,0.0,0.0,0.0,0.0,0.0,0.0,0.0,0.0,0.0,0.0,0.0,0.0,0.0,0.0,0.0,0.0,0.0,0.0,0.0,0.0,0.0,0.0,0.0,0.0,0.0,0.0,0.0,0.0,0.0,0.0,0.0,0.0,0.0,0.0,0.0,0.0,0.0,0.0,0.0,0.0,0.0,0.0,0.0,0.0,0.0,0.0,0.0,0.0,0.0,0.0,0.0,0.0,0.0,0.0,0.0,0.0,0.0,0.0,0.0,0.0,0.0,0.0,0.0,0.0,0.0,0.0,0.0,0.0,0.0,0.0,0.0,0.0,0.0,0.0,0.0,0.0,0.0,0.0,0.0,0.0,0.0,0.0,0.0,0.0,0.0,0.0,0.0,0.0,0.0,0.0,0.0,0.0,0.0,0.0,0.0,0.0,0.0,0.0,0.0,0.0,0.0,0.0,0.0,0.0,0.0,0.0,0.0,0.0,0.0,0.0,0.0,0.0,0.0,0.0,0.0,0.0,0.0,0.0,0.0,0.0,0.0,0.0,0.0,0.0,0.0,0.0,0.0,0.0,0.0,0.0,0.0,0.0,0.0,0.0,0.0,0.0,0.0,0.0,0.0,0.0,0.0,0.0,0.0,0.0,0.0,0.0,0.0,0.0,0.0,0.0,0.0,0.0,0.0,0.0,0.0,0.0,0.0,0.0,0.0,0.0,0.0,0.0,0.0,0.0,0.0,0.0,0.0,0.0,0.0,0.0,0.0,0.0,0.0,0.0,0.0,0.0,0.0,0.0,0.0,0.0,0.0,0.0,0.0,0.0,0.0,0.0,0.0,0.0,0.0,0.0,0.0,0.0,0.0,0.0,0.0,0.0,0.0,0.0,0.0,0.0,0.0,0.0,0.0,0.0,0.0,0.0,0.0,0.0,0.0,0.0,0.0,0.0,0.0,0.0,0.0,0.0,0.0,0.0,0.0,0.0,0.0,0.0,0.0,0.0,0.0,0.0,0.0,0.0,0.0,0.0,0.0,0.0,0.0,0.0,0.0,0.0,0.0,0.0,0.0,0.0,0.0,0.0,0.0,0.0,0.0,0.0,0.0,0.0,0.0,0.0,0.0,0.0,0.0,0.0,0.0,0.0,0.0,0.0,0.0,0.0,0.0,0.0,0.0,0.0,0.0,0.0,0.0,0.0,0.0,0.0,0.0,0.0,0.0,0.0,0.0,0.0,0.0,0.0,0.0,0.0,0.0,0.0,0.0,0.0,0.0,0.0,0.0,0.0,0.0,0.0,0.0,0.0,0.0,0.0,0.0,0.0,0.0,0.0,0.0,0.0,0.0,0.0,0.0,0.0,0.0,0.0,0.0,0.0,0.0,0.0,0.0,0.0,0.0,0.0,0.0,0.0,0.0,0.0,0.0,0.0,0.0,0.0,0.0,0.0,0.0,0.0,0.0,0.0,0.0,0.0,0.0,0.0,0.0,0.0,0.0,0.0,0.0,0.0,0.0,0.0,0.0,0.0,0.0,0.0,0.0,0.0,0.0,0.0,0.0,0.0,0.0,0.0,0.0,0.0,0.0,0.0,0.0,0.0,0.0,0.0,0.0,0.0,0.0,0.0,0.0,0.0,0.0,0.0,0.0,0.0,0.0,0.0,0.0,0.0,0.0,0.0,0.0,0.0,0.0,0.0,0.0,0.0,0.0,0.0,0.0,0.0,0.0,0.0,0.0,0.0,0.0,0.0,0.0,0.0,0.0,0.0,0.0,0.0,0.0,0.0,0.0,0.0,0.0,0.0,0.0,0.0,0.0,0.0,0.0,0.0,0.0,0.0,0.0,0.0,0.0,0.0,0.0,0.0,0.0,0.0,0.0,0.0,0.0,0.0,0.0,0.0,0.0,0.0,0.0,0.0,0.0,0.0,0.0,0.0,0.0,0.0,0.0,0.0,0.0,0.0,0.0,0.0,0.0,0.0,0.0,0.0,0.0,0.0,0.0,0.0,0.0,1.6641,1.6321,0.0,0.0,0.0,0.0,0.0,0.0,0.0,0.0,0.0,0.0,0.0,0.0,0.0,0.0,0.0,0.0,0.0,0.0,0.0,0.0,0.0,0.0,0.0,0.0,0.0,0.0,0.0,0.0,0.0,0.0,0.0,0.0,0.0,0.0,0.0,0.0,0.0,0.0,1.8646,1.9044,1.967,2.0316,2.0476,2.0251,0.0,0.0,0.0,0.0,0.0,0.0,0.0,0.0,0.0,0.0,0.0,0.0,0.0,0.0,0.0,0.0,0.0,0.0,0.0,0.0,0.0,0.0,0.0,0.0,0.0,0.0,0.0,0.0,0.0,0.0,0.0,0.0,0.0,0.0,0.0,0.0,0.0,0.0,0.0,0.0,0.0,0.0,0.0,0.0,0.0,0.0,0.0,0.0,0.0,0.0,0.0,0.0,0.0,0.0,0.0,0.0,0.0,0.0,0.0,0.0,0.0,0.0,0.0,0.0,0.0,0.0,0.0,0.0,0.0,0.0,1.698,1.6497,0.0,0.0,0.0,0.0,0.0,0.0,0.0,0.0,0.0,0.0,0.0,0.0,0.0,0.0,0.0,0.0,0.0,0.0,0.0,0.0,0.0,0.0,0.0,0.0,1.5423,1.5257,1.6156,1.6721,0.0,0.0,0.0,0.0,0.0,0.0,0.0,0.0,0.0,1.9412,1.9139,1.9645,2.0842,2.1408,2.1393,2.0993,2.133,0.0,0.0,0.0,0.0,0.0,0.0,0.0,0.0,0.0,0.0,0.0,0.0,0.0,0.0,0.0,0.0,0.0,0.0,0.0,0.0,0.0,0.0,0.0,0.0,0.0,0.0,0.0,0.0,0.0,0.0,0.0,0.0,0.0,0.0,0.0,0.0,0.0,0.0,0.0,0.0,0.0,0.0,0.0,0.0,0.0,0.0,0.0,0.0,0.0,0.0,0.0,0.0,0.0,0.0,0.0,0.0,0.0,0.0,0.0,0.0,0.0,0.0,0.0,1.7867,1.751,1.751,1.751,1.751,1.7472,1.6746,1.6239,1.5863,1.4936,0.0,0.0,0.0,0.0,0.0,0.0,0.0,0.0,0.0,0.0,0.0,0.0,0.0,0.0,0.0,0.0,0.0,0.0,0.0,0.0,0.0,1.5068,1.5165,1.4373,1.6487,1.7358,0.0,0.0,0.0,0.0,0.0,0.0,0.0,1.9069,1.9118,1.8652,1.9676,2.0596,2.1421,2.1945,2.2171,2.2071,2.1669,2.1536,2.162,0.0,0.0,0.0,0.0,0.0,0.0,0.0,0.0,0.0,0.0,0.0,0.0,0.0,0.0,0.0,0.0,0.0,0.0,0.0,0.0,0.0,0.0,0.0,0.0,0.0,0.0,0.0,0.0,0.0,0.0,0.0,0.0,0.0,0.0,0.0,0.0,0.0,0.0,0.0,0.0,0.0,1.885,1.9101,0.0,0.0,0.0,0.0,0.0,0.0,0.0,0.0,0.0,0.0,0.0,0.0,0.0,1.8527,1.7017,1.689,1.6469,1.5755,1.5623,1.5552,1.5552,1.5552,1.5552,1.5552,1.5451,0.0,1.7596,1.6663,0.0,0.0,0.0,0.0,0.0,0.0,0.0,0.0,0.0,0.0,0.0,0.0,0.0,0.0,0.0,0.0,0.0,0.0,0.0,0.0,0.0,1.6907,1.7297,1.6891,1.8187,1.8783,1.8122,1.8478,0.0,0.0,0.0,1.8589,1.8589,1.9154,1.9477,1.9563,2.1148,2.1914,2.197,2.2493,2.2744,2.2732,2.2493,2.241,2.2397,2.2083,0.0,0.0,0.0,0.0,0.0,0.0,0.0,0.0,0.0,0.0,0.0,0.0,0.0,0.0,0.0,0.0,0.0,0.0,0.0,0.0,0.0,0.0,0.0,0.0,0.0,0.0,0.0,0.0,0.0,0.0,0.0,0.0,0.0,0.0,0.0,0.0,0.0,0.0,0.0,1.9263,1.8806,1.8989,1.8454,1.8071,0.0,0.0,0.0,0.0,0.0,0.0,0.0,0.0,0.0,1.7794,1.7794,1.7419,1.6602,1.6602,1.6149,1.5199,1.5199,1.5482,1.6009,1.6009,1.6254,1.6724,1.6219,1.6437,1.7097,1.5587,1.4977,1.4835,0.0,0.0,0.0,0.0,1.2033,1.1694,0.0,0.0,0.0,0.0,0.0,0.0,0.0,0.0,0.0,0.0,0.0,0.0,1.7461,1.8397,1.8896,1.8654,1.9342,1.9643,1.9254,1.89,0.0,0.0,0.0,1.8936,1.9274,1.9802,2.0394,2.1093,2.2457,2.2895,2.2506,2.2907,2.3108,2.3108,2.3108,2.3108,2.3083,2.2669,2.261,2.2763,0.0,0.0,0.0,0.0,0.0,0.0,0.0,0.0,0.0,0.0,0.0,0.0,0.0,0.0,0.0,0.0,0.0,0.0,0.0,0.0,0.0,0.0,0.0,0.0,0.0,0.0,0.0,0.0,0.0,0.0,0.0,0.0,0.0,0.0,0.0,0.0,0.0,1.9261,1.8689,1.8808,1.8061,1.7539,0.0,0.0,0.0,0.0,0.0,0.0,1.6957,1.6298,1.6228,1.6922,1.674,1.6498,1.6245,1.6,1.5403,1.445,1.445,1.4835,1.55,1.55,1.5895,1.6507,1.5781,1.5508,1.5419,1.4494,1.4099,1.3991,1.3018,1.2666,1.2629,1.2372,1.2305,1.2305,0.0,0.0,0.0,0.0,0.0,0.0,0.0,0.0,0.0,0.0,0.0,1.7474,1.7839,1.856,1.8641,1.7745,1.8967,1.9202,1.7786,1.834,1.8967,1.9519,1.9539,2.0108,2.1319,2.1868,2.2405,2.296,2.3053,2.3095,2.3058,2.3095,2.3108,2.3108,2.3108,2.3108,2.3108,2.307,2.3492,2.4182,2.4155,0.0,0.0,0.0,0.0,0.0,0.0,0.0,0.0,0.0,0.0,0.0,0.0,0.0,0.0,0.0,0.0,0.0,0.0,0.0,0.0,0.0,0.0,0.0,0.0,0.0,0.0,0.0,0.0,0.0,0.0,0.0,0.0,0.0,0.0,0.0,0.0,0.0,0.0,1.8026,1.7993,0.0,0.0,0.0,0.0,1.8008,1.7974,1.794,1.794,1.7862,1.7862,1.794,1.707,1.6175,1.5269,1.4314,1.3382,1.2445,1.2445,1.2482,1.2519,1.2519,1.2556,1.2586,1.2556,1.2519,1.2659,1.4414,1.5128,1.5021,1.4027,1.3637,1.3528,1.2629,1.2305,1.2305,0.0,0.0,0.0,0.0,0.0,0.0,0.0,0.0,1.6673,1.7328,1.7672,1.8032,1.8548,1.9158,1.938,1.9046,1.9501,1.9579,1.9044,1.9623,2.0079,2.0316,2.0967,2.1712,2.2506,2.2706,2.2907,2.3108,2.3108,2.3108,2.3108,2.3108,2.3108,2.3108,2.3108,2.3108,2.3108,2.3108,2.3275,2.3573,2.4089,2.4452,0.0,0.0,0.0,0.0,0.0,0.0,0.0,0.0,0.0,0.0,0.0,0.0,0.0,0.0,0.0,0.0,0.0,0.0,0.0,0.0,0.0,0.0,0.0,0.0,0.0,0.0,0.0,0.0,0.0,0.0,0.0,0.0,0.0,0.0,0.0,0.0,0.0,1.8834,1.8327,0.0,1.8008,1.8008,1.7759,1.7139,1.6541,1.5913,1.5269,1.4657,1.4621,1.5199,1.4914,1.4557,1.4243,1.389,1.3237,1.2305,1.2305,1.2629,1.32,1.32,1.3557,1.4127,1.3484,1.32,1.32,1.331,1.3339,1.3302,1.2952,1.2806,1.2769,1.2409,1.2305,1.2305,0.0,0.0,0.0,0.0,0.0,0.0,0.0,0.0,1.7171,1.7603,1.8092,1.8633,1.9221,1.9801,2.0131,2.0131,2.0131,2.0207,2.0399,2.0598,2.0855,2.1232,2.2096,2.2732,2.3095,2.3108,2.3108,2.3108,2.3108,2.3108,2.3108,2.3108,2.3108,2.3108,2.3108,2.3108,2.3108,2.3108,2.3108,2.3138,2.3679,2.3884,2.3943,0.0,0.0,0.0,0.0,0.0,0.0,0.0,0.0,0.0,0.0,0.0,0.0,0.0,0.0,0.0,0.0,0.0,0.0,0.0,0.0,0.0,0.0,0.0,0.0,0.0,0.0,0.0,0.0,0.0,0.0,0.0,0.0,0.0,0.0,1.9044,1.8844,1.8844,1.808,1.7647,1.7974,1.7442,1.6932,1.6636,1.572,1.4914,1.4243,1.3629,1.3557,1.4207,1.389,1.3709,1.3709,1.3382,1.2915,1.2305,1.2305,1.2629,1.3237,1.3237,1.3593,1.4163,1.3528,1.3237,1.32,1.2915,1.2592,1.2305,1.2305,1.2305,1.2305,1.2305,1.2305,1.2305,0.0,0.0,0.0,0.0,0.0,0.0,0.0,1.7853,1.8217,1.8224,1.8682,1.9246,1.9774,2.0396,2.0795,2.0795,2.0795,2.1021,2.1549,2.1025,2.1207,2.2313,2.2849,2.3138,2.3138,2.3108,2.3108,2.3108,2.3108,2.3108,2.3108,2.3108,2.3108,2.3108,2.3108,2.3108,2.3108,2.3108,2.3108,2.3108,2.3138,2.3138,2.3108,0.0,0.0,0.0,0.0,0.0,0.0,0.0,0.0,0.0,0.0,0.0,0.0,0.0,0.0,0.0,0.0,0.0,0.0,0.0,0.0,0.0,0.0,0.0,0.0,0.0,0.0,0.0,0.0,0.0,0.0,0.0,0.0,0.0,1.9144,1.8529,1.8008,1.8008,1.7207,1.7001,1.7906,1.6332,1.5623,1.6489,1.5685,1.5128,1.5128,1.5128,1.5128,1.5128,1.4171,1.3673,1.3673,1.2732,1.2305,1.2318,1.2318,1.2318,1.2331,1.2331,1.2331,1.2331,1.2331,1.2331,1.2405,1.3309,1.3163,1.2325,1.2348,1.2342,1.2305,1.2305,1.2305,1.2305,0.0,0.0,0.0,0.0,0.0,0.0,0.0,1.8643,1.8793,1.878,1.9233,1.9813,2.0459,2.0696,2.0795,2.0795,2.0795,2.0858,2.0934,2.1165,2.2026,2.3686,2.3881,2.3972,2.3972,2.3395,2.3108,2.3108,2.3108,2.3108,2.3108,2.3108,2.3108,2.3108,2.3108,2.3108,2.3108,2.3108,2.3108,2.3155,2.375,2.3619,2.3155,0.0,0.0,0.0,0.0,0.0,0.0,0.0,0.0,0.0,0.0,0.0,0.0,0.0,0.0,0.0,0.0,0.0,0.0,0.0,0.0,0.0,0.0,0.0,0.0,0.0,0.0,0.0,0.0,0.0,0.0,0.0,1.8168,1.8076,1.8337,1.8144,1.8008,1.8008,1.7759,1.7716,1.7974,1.6932,1.6035,1.5623,1.4665,1.381,1.3127,1.3091,1.3091,1.3091,1.2842,1.2666,1.2666,1.2445,1.2412,1.2663,1.2663,1.2739,1.2959,1.2959,1.2959,1.2959,1.2959,1.2959,1.2959,1.3224,1.3185,1.299,1.3202,1.2915,1.2305,1.2305,1.2305,1.2305,0.0,0.0,0.0,0.0,0.0,0.0,0.0,1.9341,1.9438,1.9753,2.0047,2.0459,2.1113,2.1441,2.1489,2.121,2.1403,2.1504,2.1413,2.2195,2.3311,2.4711,2.4452,2.4423,2.4766,2.3989,2.3767,2.4063,2.4063,2.3901,2.359,2.359,2.3424,2.3108,2.3108,2.3108,2.3108,2.3108,2.3108,2.3125,2.3619,2.3514,2.3155,2.3619,2.3514,2.3108,2.3108,2.3108,2.3108,2.3108,0.0,0.0,0.0,0.0,0.0,0.0,0.0,0.0,0.0,0.0,0.0,0.0,0.0,0.0,0.0,0.0,0.0,0.0,0.0,0.0,0.0,0.0,0.0,0.0,1.8008,1.8008,1.8008,1.8008,1.8008,1.8008,1.7647,1.7579,1.7974,1.6793,1.5965,1.579,1.4879,1.4099,1.3557,1.3256,1.3112,1.3112,1.2838,1.2685,1.2685,1.2685,1.2766,1.2978,1.2978,1.3033,1.3213,1.3213,1.3213,1.3213,1.3213,1.3213,1.3246,1.3627,1.3548,1.3199,0.0,0.0,0.0,0.0,1.2305,1.2305,0.0,0.0,0.0,0.0,0.0,0.0,0.0,1.9936,2.0169,2.09,2.0948,2.1137,2.1758,2.2346,2.2429,2.1758,2.2252,2.2586,2.2523,2.3728,2.4766,2.5481,2.4823,2.4766,2.5508,2.4794,2.4738,2.5398,2.5398,2.5007,2.4292,2.4292,2.3884,2.3108,2.3108,2.3108,2.3108,2.3108,2.3108,2.3078,2.3005,2.3005,2.3108,2.3108,2.3108,2.3108,2.3108,2.3108,2.3078,2.3017,0.0,0.0,0.0,0.0,0.0,0.0,0.0,0.0,0.0,0.0,0.0,0.0,0.0,0.0,0.0,0.0,0.0,0.0,0.0,0.0,0.0,0.0,0.0,0.0,1.8008,1.8008,1.8008,1.8008,1.8008,1.8008,1.7251,1.7104,1.794,1.6402,1.571,1.6595,1.5682,1.5103,1.5135,1.4468,0.0,0.0,0.0,1.3213,1.3213,1.3213,1.3227,1.326,1.326,1.3273,1.3307,1.3307,1.3307,1.3307,1.3307,1.3307,1.3386,1.4184,1.4012,1.3227,1.2958,1.2837,1.2804,1.2505,1.2405,1.2405,0.0,0.0,0.0,0.0,0.0,0.0,0.0,2.0526,2.0761,2.1463,2.1547,2.1795,2.2429,2.2626,2.2429,2.1758,2.2252,2.2789,2.3172,2.446,2.5508,2.6256,2.5563,2.5536,2.6256,2.5563,2.5259,2.5398,2.5398,2.5007,2.4292,2.4292,2.3884,2.3108,2.3108,2.3108,2.3108,2.3108,2.3108,2.3035,2.2384,2.2506,2.3108,2.3108,2.3108,2.3108,2.3108,2.3108,2.3005,2.2353,2.2137,2.2002,2.129,2.1069,0.0,0.0,0.0,0.0,0.0,0.0,0.0,0.0,0.0,0.0,0.0,0.0,0.0,0.0,0.0,0.0,0.0,0.0,0.0,1.8042,1.8008,1.8008,1.8008,1.8008,1.8008,1.8008,1.7828,1.7794,1.7974,1.7001,1.6527,1.7045,1.5418,1.4553,1.4858,1.3917,1.3388,1.3388,1.3259,1.3213,1.3213,1.3213,1.3327,1.352,1.352,0.0,1.3921,1.3921,1.3921,1.3921,1.3921,1.3921,1.3956,1.4116,1.3933,1.3493,1.324,1.312,1.3113,1.3053,1.3039,1.3039,0.0,0.0,0.0,0.0,0.0,0.0,0.0,2.0918,2.1183,2.2478,2.2377,2.2323,2.2672,2.2694,2.2429,2.1758,2.2556,2.3306,2.3821,2.4802,2.5728,2.6484,2.5783,2.5919,2.7034,2.6336,2.6135,2.6508,2.6135,2.5563,2.4851,2.4452,2.3884,2.3108,2.3108,2.3108,2.3108,2.3108,2.3108,2.3035,2.223,2.2125,2.2445,2.2021,2.1865,2.1865,2.1865,2.1865,2.1803,2.1396,2.1239,2.1164,2.0751,2.059,2.059,0.0,0.0,0.0,0.0,0.0,0.0,0.0,0.0,0.0,0.0,0.0,0.0,0.0,0.0,1.8529,1.8076,0.0,1.8008,1.8008,1.8008,1.8008,1.8008,1.8008,1.8008,1.8008,1.7579,1.7335,1.7481,1.6652,1.6229,1.657,1.5672,1.5186,1.5388,1.4614,1.4167,1.4167,1.3851,1.3647,1.3647,1.3647,1.3721,1.3868,1.3868,1.3941,1.4088,1.4088,1.4088,1.4088,1.4088,1.4088,1.4088,1.4088,1.4001,1.3854,1.3707,1.3474,1.3213,1.3213,1.3213,1.3213,0.0,0.0,0.0,0.0,0.0,0.0,0.0,2.1234,2.1549,2.3351,2.3179,2.283,2.2694,2.2694,2.2529,2.2104,2.302,2.3915,2.4685,2.5287,2.5864,2.6484,2.5783,2.6027,2.7357,2.68,2.6852,2.76,2.7008,2.6256,2.5398,2.4794,2.4002,2.3108,2.3108,2.3108,2.3108,2.3108,2.3017,2.2793,2.197,2.1565,2.1302,2.043,2.0301,2.059,2.059,2.059,2.0558,2.0398,2.0365,2.0333,2.0139,2.0074,2.0074,2.0074,2.0074,0.0,0.0,0.0,0.0,0.0,0.0,0.0,0.0,1.824,1.7725,1.7725,1.7725,1.7794,1.7974,1.8008,1.8008,1.8008,1.8008,1.8008,1.8008,1.8076,1.8135,1.8135,1.7442,1.6995,1.7009,1.6398,1.6022,1.6111,1.5952,1.5869,1.5933,1.5277,1.4925,1.4925,1.4365,1.4088,1.4088,1.4088,1.4088,1.4088,1.4088,1.4088,1.4088,1.4088,1.4088,1.4088,1.4088,1.4088,1.4088,1.4088,1.4088,1.4088,1.4088,1.3801,1.338,1.338,1.338,1.338,0.0,0.0,0.0,0.0,0.0,0.0,0.0,0.0,2.2082,2.343,2.353,2.3312,2.2777,2.2694,2.2899,2.3349,2.3569,2.4425,2.6144,2.6336,2.6404,2.651,2.5783,2.5783,2.6616,2.6537,2.6852,2.76,2.7524,2.6759,2.5398,2.5315,2.4496,2.3108,2.3108,2.3108,2.3108,2.3108,2.2702,2.197,2.1101,2.0268,1.9497,1.862,1.9233,2.059,2.059,2.059,2.0494,1.9726,1.9464,1.9299,1.8529,1.8303,1.8303,1.8303,1.8303,1.8124,1.7282,1.6445,1.6201,1.7867,1.7584,1.6904,0.0,1.6844,1.674,1.674,1.674,1.6991,1.7872,1.8008,1.8008,1.8008,1.8008,1.8008,1.8008,1.8295,1.8529,1.8529,1.8459,1.8,1.7108,1.7276,1.7218,1.6643,1.5747,1.5365,1.5692,1.4789,1.4203,1.4203,1.4153,1.4088,1.4088,1.4088,1.4088,1.4088,1.4088,1.4088,1.4088,1.4088,1.4088,1.4088,1.4088,1.4088,1.4088,1.4088,1.4088,1.4088,1.4088,1.4048,1.3988,1.3988,1.3988,1.3988,0.0,0.0,0.0,0.0,0.0,0.0,0.0,0.0,0.0,0.0,2.3595,2.3377,2.2777,2.2346,2.2342,2.2855,2.374,2.4554,2.5176,2.6014,2.651,2.651,2.6203,2.6176,2.6484,2.651,2.6443,2.6322,2.5877,2.5356,2.4766,2.4266,2.3725,2.3108,2.3108,2.3108,2.3078,2.2598,2.2199,2.1784,2.0398,1.9628,1.921,1.8337,1.8462,1.9077,1.9077,1.9077,0.0,1.8654,1.8519,1.8385,1.7457,1.7182,1.707,1.655,1.6376,1.6298,1.5904,1.5517,1.5376,1.6158,1.6079,1.5799,1.5799,1.5799,1.593,1.6498,1.6602,1.6706,1.7104,1.7182,1.7001,1.6472,1.6828,1.7266,1.7509,1.8165,1.8482,1.8135,1.8295,1.8248,1.7791,1.7433,1.6941,1.6186,1.5698,1.524,1.481,1.4328,1.4088,1.4088,1.4088,1.4088,1.4088,1.4088,1.4088,1.4088,1.4088,1.4088,1.4088,1.4088,1.4088,1.4088,1.4088,1.4088,1.4088,1.4088,1.4088,1.4088,1.4088,1.4088,1.4088,1.4088,1.4088,1.4088,0.0,0.0,0.0,0.0,0.0,0.0,0.0,0.0,0.0,0.0,2.3702,2.3377,2.2777,2.21,2.1993,2.2704,2.3946,2.4764,2.4929,2.613,2.6721,2.651,2.651,2.651,2.651,2.6283,2.6041,2.5701,2.4951,2.4509,2.4292,2.3708,2.3305,2.3108,2.3108,2.3108,2.3047,2.2249,2.1753,2.1396,1.9911,1.9177,1.8888,1.8236,1.8008,1.7974,1.7725,1.7613,1.7579,1.7329,1.7226,1.7113,1.6428,1.621,1.607,1.5411,1.4985,1.4843,1.5128,1.4807,1.4522,1.5057,1.4985,1.4772,1.4772,1.4772,1.4985,1.5649,1.579,1.5895,1.614,1.621,1.6,1.5305,1.5841,1.6439,1.673,1.7506,1.7899,1.7479,1.7772,1.8009,1.8009,1.7127,1.6195,1.5323,1.5255,1.4936,1.413,1.4088,1.4088,1.4088,1.4088,1.4088,1.4088,1.4088,1.4088,1.4088,1.4088,1.4088,1.4088,1.4088,1.4088,1.4088,1.4088,1.4088,1.4088,1.4088,1.4088,1.4088,1.4088,1.4088,1.4088,1.4088,1.4088,1.4088,0.0,0.0,0.0,0.0,0.0,0.0,0.0,0.0,0.0,0.0,0.0,0.0,0.0,2.21,2.2235,2.3554,2.4308,2.5214,2.645,2.7191,2.7255,2.6537,2.651,2.651,2.651,2.5783,2.5755,2.6484,2.5728,2.5007,2.4292,2.4292,2.3855,2.3108,2.3108,2.3108,2.3047,2.2249,2.1396,2.0558,1.9661,1.8787,1.8042,1.8008,1.8008,1.7862,1.6957,1.6636,1.6498,1.5587,1.5269,1.5269,1.5269,1.5234,1.5234,1.5199,1.4522,1.3954,1.495,1.3803,1.2842,1.4736,1.445,1.3745,1.3745,1.3745,1.3738,1.3781,1.3781,1.4099,1.5057,1.5234,1.5234,1.5199,1.5452,1.5646,1.5655,1.6294,1.674,1.6717,1.7086,1.7317,1.7317,1.6339,1.5289,1.425,1.413,1.4124,1.4088,1.4088,1.4088,1.4088,1.4088,1.4088,1.4088,1.4088,1.4088,1.4088,1.4088,1.4088,1.4088,1.4088,1.4088,1.4088,1.4088,1.4088,1.4088,1.4088,1.4088,1.4088,1.4088,1.4088,1.4088,1.4088,1.4088,1.4088,0.0,0.0,0.0,0.0,0.0,0.0,0.0,0.0,0.0,0.0,0.0,0.0,0.0,0.0,0.0,0.0,2.3856,2.4554,2.5802,2.6545,2.7011,2.724,2.7229,2.6759,2.5783,2.5536,2.5035,2.4224,2.4018,2.3767,2.3514,2.3514,2.3365,2.3108,2.3108,2.3108,2.3017,2.1604,2.0878,2.0462,1.9011,1.8269,1.8008,1.8008,1.7613,1.6966,0.0,1.607,1.6463,1.5517,1.5199,1.5092,1.4422,1.4207,1.4099,1.3448,1.3055,1.2842,1.3164,1.2806,1.2445,1.3127,1.3018,1.2769,1.2769,1.2769,1.2952,1.3564,1.3709,1.381,1.4135,1.4392,1.4325,1.3703,1.4381,1.505,1.5351,1.6156,1.6547,1.6104,1.6162,1.5951,1.5269,1.6157,1.6322,1.5255,1.5179,1.4852,1.413,1.4088,1.4088,1.4088,1.4088,1.4088,1.4088,1.4088,1.4088,1.4088,1.4088,1.4088,1.4088,1.4088,1.4088,1.4088,1.4088,1.4088,1.4088,1.4088,1.4088,1.4088,1.4088,1.4088,1.4088,1.4088,1.4088,1.4088,0.0,0.0,0.0,0.0,0.0,0.0,0.0,0.0,0.0,0.0,0.0,0.0,0.0,0.0,0.0,0.0,0.0,2.4361,2.5131,2.606,2.6806,2.7225,2.7465,2.7034,2.581,2.5536,2.4781,2.3543,2.3245,2.3108,2.3108,2.3108,2.3108,2.3108,2.3108,2.2944,2.2567,2.1195,2.043,2.0009,1.8596,1.8008,1.7974,1.7647,1.7139,0.0,1.5119,1.5057,1.5438,1.4478,1.4163,1.4055,1.3419,1.2938,1.2602,1.2365,1.204,1.1842,1.2187,1.2305,1.2305,1.2305,1.2305,1.2305,1.2305,1.2305,1.2482,1.3098,1.3294,1.3373,1.3373,1.3638,1.3631,1.3022,1.3657,1.4352,1.464,1.5315,1.5627,1.5191,1.5137,1.4852,1.4173,1.5352,1.5876,1.5179,1.5137,1.486,1.4278,1.4242,1.4289,1.4439,1.4402,1.4349,1.4242,1.4242,1.4188,1.4088,1.4088,1.4088,1.4088,1.4088,1.4088,1.4088,1.4088,1.4088,1.4088,1.4088,1.4088,1.4088,1.4088,1.4088,1.4088,1.4088,1.4088,1.4088,0.0,0.0,0.0,0.0,0.0,0.0,0.0,0.0,0.0,0.0,0.0,0.0,0.0,0.0,0.0,0.0,0.0,0.0,2.4605,2.577,2.6488,2.6523,2.7136,2.7108,2.639,2.5701,2.4979,2.4234,2.3484,2.3108,2.3108,2.3108,2.3108,2.3108,2.3108,2.2641,2.1846,2.0974,2.0107,1.9233,1.8337,1.8008,1.7896,1.6991,1.6602,1.628,1.445,1.3709,1.3491,1.2592,1.2305,1.2305,1.2305,1.1657,1.105,1.2033,1.162,1.1087,1.2033,1.2305,1.2305,1.2305,1.2305,1.2298,1.2224,1.2261,1.2305,1.2244,1.2552,1.279,1.2804,1.3026,1.3233,1.3233,1.344,1.3626,1.3626,1.3908,1.4088,1.4088,1.4088,1.4088,1.4088,1.4088,1.4088,1.4088,1.4102,1.4229,1.4502,1.4536,1.4669,1.5001,1.5008,1.4874,1.4543,1.4529,1.4382,1.4108,1.4095,1.4088,1.4088,1.4088,1.4088,1.4088,1.4088,1.4088,1.4088,1.4088,1.4088,1.4088,1.4088,1.4088,1.4088,1.4088,1.4088,1.4088,0.0,0.0,0.0,0.0,0.0,0.0,0.0,0.0,0.0,0.0,0.0,0.0,0.0,0.0,0.0,0.0,0.0,0.0,2.4575,2.4496,2.4844,2.5741,2.5454,2.5158,2.4866,2.4681,2.4192,2.3395,2.3198,2.3108,2.3108,2.3108,2.3108,2.3108,2.3108,2.2641,2.1846,2.0974,2.0107,1.9233,1.8337,1.8008,1.7974,1.7716,1.6759,1.5473,1.4985,1.3882,1.2629,1.2378,1.2305,1.2305,1.2305,1.2114,1.1959,1.2224,1.2114,1.1959,1.2224,1.2305,1.2305,1.2305,1.2305,1.2114,1.1354,1.1768,1.2136,1.1587,1.219,1.2857,1.3053,1.3333,1.3493,1.3493,1.374,1.3975,1.3975,1.4041,1.4088,1.4088,1.4088,1.4088,1.4088,1.4088,1.4088,1.4088,1.4289,1.4442,1.4516,1.473,1.4928,1.5008,1.5008,1.4975,1.485,1.4629,1.4482,1.4409,1.4195,1.4088,1.4088,1.4088,1.4088,1.4088,1.4088,1.4088,1.4088,1.4088,1.4088,1.4088,1.4088,1.4088,1.4088,1.4088,1.4088,1.4088,0.0,0.0,0.0,0.0,0.0,0.0,0.0,0.0,0.0,0.0,0.0,0.0,0.0,0.0,0.0,0.0,0.0,0.0,0.0,2.4117,2.4285,2.4692,2.4614,2.4375,2.3898,2.3925,2.3654,2.3108,2.3108,2.3108,2.3108,2.3108,2.3108,2.3108,2.3108,2.2433,2.1302,2.0814,1.9879,0.0,0.0,1.8008,1.7974,1.7545,1.6715,1.5755,1.534,1.4199,1.2842,1.2445,1.2305,1.2305,1.2305,1.1996,1.1731,1.2187,1.1996,1.1731,1.2187,1.2305,1.2305,1.2305,1.2305,1.215,1.1583,1.1885,1.2236,1.1954,1.2466,1.2916,1.2679,1.33,1.3668,1.3102,1.3626,1.4088,1.4088,1.4088,1.4088,1.4088,1.4088,1.4088,1.4088,1.4088,1.4142,1.4269,1.4429,1.4576,1.471,1.4997,1.5211,1.5337,1.5344,1.5284,1.5202,1.4863,1.4716,1.471,1.4416,1.4282,1.4269,1.4142,1.4088,1.4088,1.4088,1.4088,1.4088,1.4088,1.4088,1.4088,1.4088,1.4088,1.4088,1.4088,1.4088,1.4088,0.0,0.0,0.0,0.0,0.0,0.0,0.0,0.0,0.0,0.0,0.0,0.0,0.0,0.0,0.0,0.0,0.0,0.0,0.0,0.0,0.0,2.3677,2.4163,2.4047,2.3277,2.3263,2.3132,2.2882,2.2957,2.2995,2.2995,2.307,2.3108,2.3108,2.3108,2.2249,2.0751,2.0655,1.9661,1.8168,1.8042,1.8008,1.7906,0.0,0.0,0.0,1.5411,0.0,0.0,0.0,1.2305,1.2305,1.2305,1.1694,1.1162,1.2033,1.1694,1.1205,1.207,1.2305,1.2305,1.2305,1.2305,1.2268,1.215,1.2257,1.2408,1.2624,1.2968,1.3026,1.2329,1.322,1.3779,1.2723,1.3421,1.4088,1.4088,1.4088,1.4088,1.4088,1.4088,1.4088,1.4088,1.4088,1.4208,1.4496,1.4556,1.471,1.5055,1.5297,1.5571,1.5771,1.5784,1.5705,1.5458,1.5209,1.5068,1.5062,1.4716,1.4583,1.4569,1.4322,1.4202,1.4202,1.4202,1.4182,1.4142,1.4142,1.4122,1.4088,1.4088,1.4088,1.4088,1.4088,1.4088,1.4088,0.0,0.0,0.0,0.0,0.0,0.0,0.0,0.0,0.0,0.0,2.5617,2.4969,0.0,0.0,0.0,0.0,0.0,0.0,0.0,0.0,0.0,0.0,2.3178,2.2838,2.2588,2.2561,2.2299,2.1782,2.2234,2.2447,2.2443,2.2895,2.3108,2.3108,2.3108,2.2567,2.1628,2.091,2.0009,1.9011,1.8303,1.8008,1.7974,0.0,0.0,0.0,0.0,0.0,0.0,0.0,1.2305,1.2305,1.2305,1.2187,1.207,1.2261,1.2187,1.2077,1.2261,1.2305,1.2305,1.2305,1.2305,1.2077,1.1242,1.1909,1.2561,1.2018,1.2785,1.3572,1.369,1.3922,1.4046,1.3822,1.3955,1.4088,1.4088,1.4088,1.4088,1.4088,1.4088,1.4088,1.4088,1.4088,1.4208,1.4496,1.475,1.5062,1.5304,1.5591,1.5731,1.5784,1.5784,1.5758,1.5752,1.5464,1.5317,1.5317,1.503,1.4928,1.4928,1.4881,1.4854,1.4854,1.4854,1.4676,1.4442,1.4442,1.4302,1.4088,1.4088,1.4088,1.4088,1.4088,1.4088,1.4088,0.0,0.0,0.0,0.0,0.0,0.0,0.0,2.4035,2.4593,2.5948,2.6047,2.5783,2.5259,2.4732,2.4163,0.0,0.0,0.0,0.0,0.0,0.0,0.0,0.0,0.0,2.2517,2.2141,2.1994,2.1981,0.0,2.1882,2.1895,2.2159,2.2284,2.2284,2.2284,2.194,2.1358,2.05,1.9802,1.9233,1.8337,1.8008,0.0,0.0,0.0,0.0,0.0,0.0,0.0,0.0,1.2703,1.2305,1.2305,1.2305,1.2305,1.2305,1.2305,1.2305,1.2305,1.2305,1.2305,1.2305,1.2305,1.2187,1.1694,0.0,0.0,1.2541,1.3071,1.3522,1.3237,1.3688,1.3913,1.3252,1.3688,1.4088,1.4088,1.4088,1.4088,1.4088,1.4088,1.4088,1.4088,1.4088,1.4275,1.4716,1.4928,1.5135,1.5384,1.5671,1.5784,1.5784,1.5784,1.5784,1.5784,1.5691,1.5618,1.5618,1.5331,1.519,1.5184,1.5075,1.5008,1.5008,1.5008,1.4928,1.475,1.475,1.4669,1.4529,1.4376,1.4309,1.4295,1.4142,1.4088,1.4088,0.0,0.0,0.0,0.0,0.0,0.0,0.0,2.4034,2.4762,2.5507,2.6151,2.621,2.5297,2.4816,2.4307,0.0,0.0,0.0,0.0,0.0,0.0,0.0,0.0,0.0,0.0,0.0,0.0,2.2049,2.1559,0.0,0.0,0.0,0.0,0.0,2.1493,2.1366,2.1051,2.0189,1.9651,0.0,0.0,1.8055,0.0,0.0,0.0,0.0,0.0,0.0,0.0,0.0,1.32,1.2556,1.2372,1.2305,1.2305,1.2305,1.2305,1.2305,1.2305,1.2305,1.2305,1.2305,1.2305,1.2305,1.2305,1.2585,1.2951,1.316,1.3453,1.3505,1.2814,1.347,1.3779,1.2851,1.347,1.4088,1.4088,1.4088,1.4088,1.4088,1.4088,0.0,1.4088,1.4142,1.4396,1.4968,1.5122,1.5251,1.5478,1.5705,1.5784,1.5784,1.5784,1.5784,1.5784,1.5784,1.5784,1.5778,1.5598,1.5491,1.5484,1.5251,1.515,1.515,1.515,1.5162,1.5102,1.5102,1.5068,1.4988,1.4703,1.4576,1.4489,1.4262,1.4142,1.4088,0.0,0.0,0.0,0.0,0.0,0.0,0.0,2.4034,2.4762,2.5507,2.5864,2.5852,2.5259,2.5163,2.4697,0.0,0.0,0.0,0.0,0.0,0.0,0.0,0.0,0.0,0.0,0.0,0.0,2.0954,2.082,0.0,0.0,0.0,0.0,0.0,0.0,2.149,2.1415,2.0512,0.0,0.0,0.0,0.0,0.0,0.0,0.0,0.0,0.0,1.6532,1.6175,1.4343,1.3637,1.3419,1.2556,1.2305,1.2305,1.2305,1.2305,1.2305,1.2305,1.2305,1.2305,1.2305,1.2305,1.2305,1.2305,0.0,1.3173,1.32,1.3654,1.4013,1.3948,1.4046,1.4046,1.3955,1.4046,1.4088,1.4088,1.4088,1.4088,1.4088,0.0,0.0,1.4088,1.4322,1.4616,1.4981,1.5451,1.5758,1.5744,1.5764,1.5784,1.5784,1.5784,1.5784,1.5784,1.5784,1.5784,1.5784,1.5758,1.5744,1.5744,1.5758,1.5752,1.5752,1.5752,1.5598,1.5357,1.5357,1.5204,1.5008,1.4981,1.4756,1.4516,1.4489,1.4315,1.4088,0.0,0.0,0.0,0.0,0.0,0.0,2.2699,2.3115,2.3663,2.4364,2.4719,2.4869,2.4745,2.4732,2.441,2.3659,0.0,0.0,0.0,0.0,0.0,0.0,0.0,0.0,0.0,0.0,2.2184,2.1941,2.1513,0.0,0.0,0.0,0.0,0.0,0.0,2.0665,2.0964,2.0085,0.0,0.0,0.0,0.0,0.0,0.0,0.0,0.0,0.0,0.0,1.6498,1.572,1.5057,1.4522,1.4163,1.3629,0.0,1.2482,1.2305,1.2305,1.2305,1.2305,1.2305,1.2305,1.2305,1.2305,1.2305,0.0,1.3213,1.3213,1.3681,1.4088,1.4088,1.4088,1.4088,1.4088,1.4088,1.4088,1.4088,1.4088,1.4088,1.4088,1.4088,1.4155,1.4335,1.4449,1.4716,1.519,1.5598,1.5784,1.5784,1.5784,1.5784,1.5784,1.5784,1.5784,1.5784,1.5784,1.5784,1.5784,1.5784,1.5784,1.5784,1.5784,1.5784,1.5825,1.6622,1.6458,1.5705,1.6486,1.6276,1.5557,1.6077,1.5802,1.5113,1.5657,1.5648,1.529,0.0,0.0,0.0,0.0,0.0,2.2296,2.2296,2.2651,2.3038,2.3358,2.3835,2.415,2.4113,2.4138,2.4012,2.3638,2.3595,0.0,0.0,0.0,0.0,0.0,0.0,0.0,0.0,0.0,2.2694,2.2694,2.1842,2.121,0.0,0.0,2.0245,1.9798,0.0,0.0,0.0,0.0,0.0,0.0,0.0,0.0,0.0,0.0,0.0,0.0,0.0,0.0,0.0,0.0,0.0,1.5587,0.0,0.0,0.0,0.0,1.2519,1.2305,1.2305,1.2305,1.2305,1.2305,1.2305,1.2305,1.2305,1.2772,1.3213,1.3213,1.3681,1.4088,1.4088,1.4088,1.4088,1.4088,1.4088,1.4088,1.4088,1.4088,1.4122,1.4208,1.4215,1.4329,1.4623,1.473,1.499,1.5484,1.5712,1.5784,1.5784,1.5784,1.5784,1.5784,1.5784,1.5784,1.5784,1.5784,1.5784,1.5784,1.5784,1.5784,1.5784,1.5784,1.5784,1.5825,1.6763,1.6622,1.5872,1.6756,1.681,1.6405,1.7094,1.6992,1.6572,1.7218,1.7218,1.6823,0.0,0.0,0.0,0.0,0.0,0.0,2.2296,2.2905,2.3242,2.2761,2.3526,2.3919,2.346,2.3532,2.3595,2.3595,2.3595,0.0,0.0,0.0,0.0,0.0,0.0,0.0,0.0,0.0,2.2694,2.2694,2.1441,2.0795,2.0795,2.0131,1.9798,1.9798,0.0,0.0,0.0,0.0,0.0,0.0,0.0,0.0,0.0,0.0,0.0,0.0,0.0,0.0,0.0,0.0,0.0,0.0,0.0,0.0,0.0,0.0,1.3025,1.2305,1.2305,1.2305,1.2305,1.2305,1.2305,1.2305,1.2305,1.2772,1.3213,1.3213,1.3681,1.4088,1.4088,1.4088,1.4088,1.4088,1.4088,1.4088,1.4088,1.4088,1.4195,1.4482,1.4516,1.4629,1.4975,1.5217,1.5504,1.5758,1.5784,1.5784,1.5784,1.5784,1.5784,1.5784,1.5784,1.5784,1.5784,1.5784,1.5784,1.5784,1.5784,1.5784,1.5784,1.5784,1.5784,1.5784,1.5825,1.5825,1.5784,1.5825,1.6574,1.7692,1.7684,1.8246,1.9049,1.9093,1.8852,1.8529,0.0,0.0,0.0,0.0,0.0,0.0,0.0,2.2233,2.2278,2.2585,2.2651,2.2964,2.3787,2.3915,2.4151,2.4645,2.4012,0.0,0.0,0.0,0.0,0.0,0.0,0.0,0.0,0.0,2.3312,2.3312,2.2498,2.1856,2.14,2.1207,2.0879,2.0472,2.0472,2.0472,0.0,0.0,0.0,0.0,0.0,0.0,0.0,0.0,0.0,0.0,0.0,0.0,0.0,0.0,0.0,0.0,0.0,0.0,0.0,1.579,1.4514,1.3273,1.3273,1.2806,1.2445,1.3098,1.2769,1.2305,1.2305,1.2772,1.3213,1.3213,1.3681,1.4088,1.4088,1.4088,1.4088,1.4088,1.4088,1.4088,1.4088,1.4088,1.4122,1.4215,1.4576,1.4937,1.5231,1.5524,1.5732,1.5771,1.5784,1.5784,1.5784,1.5784,1.5784,1.5784,1.5784,1.5784,1.5784,1.5784,1.5784,1.5784,1.5784,1.5784,1.5784,1.5784,1.5784,1.5825,1.6709,1.6622,1.5872,1.6756,1.7365,1.7777,1.8596,1.9112,1.9459,2.0312,2.0377,2.0034,0.0,0.0,0.0,0.0,0.0,0.0,0.0,2.2046,2.196,2.219,2.2216,2.2615,2.3594,2.3943,2.4393,2.5138,2.4592,0.0,0.0,0.0,0.0,0.0,0.0,0.0,0.0,2.3595,2.3595,2.3595,2.2987,2.2498,2.2077,2.1828,2.1496,2.1137,2.0894,2.0795,0.0,0.0,0.0,0.0,0.0,0.0,2.0112,0.0,0.0,0.0,0.0,0.0,0.0,0.0,0.0,0.0,0.0,0.0,0.0,0.0,1.5755,1.4736,1.4343,1.3846,1.3448,1.3637,1.3273,0.0,1.2378,1.2772,1.3213,1.3213,1.3681,1.4088,1.4088,1.4088,1.4088,1.4088,1.4088,1.4088,1.4088,1.4088,1.4168,1.4389,1.4836,1.5244,1.5531,1.5678,1.5784,1.5784,1.5784,1.5784,1.5784,1.5784,1.5784,1.5784,1.5784,1.5784,1.5784,1.5784,1.5784,1.5784,1.5784,1.5784,1.5784,1.5784,1.5784,1.5825,1.6622,1.6527,0.0,1.7178,1.7963,1.8503,1.9724,2.0449,2.0944,2.1712,2.1829,2.1587,0.0,0.0,0.0,0.0,0.0,0.0,0.0,2.2296,2.2135,2.1703,2.2189,2.272,2.3081,2.3717,2.4441,2.5153,0.0,0.0,0.0,0.0,0.0,0.0,0.0,0.0,2.3595,2.3638,2.3638,2.3595,2.2987,2.2694,2.2694,2.2077,2.1781,2.1758,2.1199,2.0919,2.082,0.0,0.0,0.0,0.0,0.0,0.0,0.0,0.0,0.0,0.0,0.0,0.0,0.0,0.0,0.0,0.0,0.0,0.0,0.0,0.0,0.0,0.0,1.5305,1.4985,1.4135,1.381,1.3499,1.262,1.2824,0.0,1.3233,1.3694,1.4088,1.4088,1.4088,1.4088,1.4088,1.4088,1.4088,1.4088,1.4108,1.4329,1.4941,1.5217,1.5511,1.5751,1.5784,1.5784,1.5784,1.5784,1.5784,1.5784,1.5784,1.5784,1.5784,1.5784,1.5784,1.5784,1.5872,1.592,1.592,1.6015,1.6055,1.6055,1.6055,1.6055,1.6055,1.6055,1.6055,1.615,1.7358,1.8549,1.9716,2.0845,2.2031,2.3091,2.3091,2.3091,2.3042,0.0,0.0,0.0,0.0,0.0,0.0,0.0,0.0,0.0,0.0,2.2272,2.2614,2.3258,2.3977,2.4712,0.0,0.0,0.0,0.0,0.0,0.0,0.0,0.0,0.0,2.3616,2.3991,2.4012,2.3595,2.2987,2.2694,2.2694,2.2558,2.2475,2.2452,2.2314,2.1974,2.14,2.0283,0.0,0.0,0.0,0.0,0.0,0.0,0.0,0.0,2.2884,2.2279,0.0,0.0,0.0,0.0,0.0,0.0,0.0,0.0,1.7681,1.7613,1.7407,0.0,1.5305,1.579,1.4799,1.3703,0.0,1.3467,1.3273,1.3453,1.3834,1.4088,1.4088,1.4088,1.4088,1.4088,1.4088,1.4088,1.4088,1.4282,1.4556,1.4961,1.5217,1.5511,1.5751,1.5784,1.5784,1.5784,1.5784,1.5784,1.5784,1.5784,1.5784,1.5784,1.5784,1.5784,1.5784,1.6756,1.7271,1.7271,1.8172,1.8626,1.8626,1.8626,1.8626,1.8626,1.8626,1.8626,1.8672,1.8948,1.9807,2.089,2.1203,2.2031,2.3091,2.3091,2.3091,2.3081,0.0,0.0,0.0,0.0,0.0,0.0,0.0,0.0,0.0,0.0,0.0,0.0,0.0,0.0,0.0,0.0,0.0,0.0,0.0,0.0,0.0,0.0,0.0,2.4572,2.397,2.4012,2.39,2.3595,2.3522,2.3485,2.3485,2.3485,2.3485,2.3463,2.2928,2.2323,2.1663,2.1295,2.1312,2.1642,2.2156,0.0,0.0,0.0,0.0,0.0,2.3108,2.2567,0.0,2.0878,2.0009,1.9144,0.0,0.0,0.0,0.0,1.8008,1.8008,1.8008,1.726,1.6507,1.6567,1.5825,1.5004,1.4964,1.4752,1.4658,1.5023,1.4955,1.481,1.481,1.4454,1.4088,1.4088,1.4088,1.4135,1.4269,1.4422,1.4683,1.511,1.5297,1.5511,1.5751,1.5784,1.5784,1.5784,1.5784,1.5784,1.5784,1.5784,1.5784,1.5784,1.5784,1.6062,1.6669,1.7365,1.7963,1.8549,1.9177,1.9497,1.9497,1.9497,1.9497,1.9497,1.9497,1.9497,1.9542,2.0079,2.0702,2.1346,2.1889,2.2536,2.3091,2.3091,2.3091,2.3091,0.0,0.0,0.0,0.0,0.0,0.0,0.0,0.0,0.0,0.0,0.0,0.0,0.0,0.0,0.0,0.0,0.0,0.0,0.0,0.0,0.0,0.0,0.0,2.4677,2.4532,2.4158,2.3943,2.3837,2.4287,2.4491,2.441,2.441,2.441,2.4348,2.3201,2.2483,2.2146,2.2543,2.2456,2.2137,2.3164,0.0,0.0,0.0,0.0,0.0,0.0,0.0,0.0,2.1101,2.0236,1.9332,1.8462,0.0,0.0,0.0,0.0,0.0,1.8008,1.8008,1.7794,1.6991,1.6706,1.6509,1.6158,1.6163,1.6343,1.6851,1.6428,1.5944,1.5944,1.5054,1.4328,1.4328,1.4208,1.4188,1.4482,1.4563,1.479,1.5331,1.5438,1.5558,1.5758,1.5784,1.5784,1.5784,1.5784,1.5784,1.5784,1.5784,1.5872,1.6062,1.6109,1.6803,1.8234,1.8048,1.8503,1.9497,1.9852,2.0042,2.0042,2.0042,2.0042,2.0042,2.0042,2.0042,2.0133,2.1168,2.1569,2.1658,2.2677,2.3091,2.3091,2.3091,2.3091,2.3091,0.0,0.0,0.0,0.0,0.0,0.0,0.0,0.0,0.0,0.0,0.0,0.0,0.0,0.0,0.0,0.0,0.0,0.0,0.0,0.0,0.0,2.6607,2.6419,2.5946,2.5105,2.543,2.5411,2.4953,2.5047,2.4835,2.441,2.441,2.441,2.4348,2.3201,2.3179,2.3933,2.3079,2.3227,2.406,2.4248,0.0,0.0,0.0,0.0,0.0,0.0,0.0,0.0,2.197,2.1101,2.0236,1.9365,0.0,0.0,0.0,0.0,0.0,1.8008,1.8008,1.7974,1.7828,1.7182,1.673,1.7293,1.6769,1.6418,1.7111,1.7131,1.705,1.705,1.6191,1.5455,1.5455,1.4692,1.4188,1.4482,1.4736,1.5017,1.5357,1.5611,1.5731,1.5778,1.5784,1.5784,1.5784,1.5784,1.5784,1.5784,1.5784,1.6292,1.7365,1.7412,1.8495,2.0711,1.9716,1.9314,1.9542,2.1587,2.2545,2.2545,2.2545,2.2545,2.2545,2.2545,2.2545,2.2545,2.2775,2.2818,2.2862,2.3047,2.3091,2.3091,2.3091,2.3091,2.3091,0.0,0.0,0.0,0.0,0.0,0.0,0.0,0.0,0.0,0.0,0.0,0.0,0.0,0.0,0.0,0.0,0.0,0.0,0.0,0.0,2.6691,2.6691,2.6691,2.635,2.5652,2.5596,2.5449,2.5202,2.5486,2.5521,2.5259,2.5259,2.5125,2.4796,2.3981,2.411,2.4904,2.4448,2.4558,2.5067,0.0,0.0,0.0,0.0,0.0,0.0,0.0,0.0,0.0,0.0,2.1616,2.1144,2.0268,0.0,0.0,0.0,0.0,0.0,1.8008,1.8008,1.8008,1.8008,1.7854,1.7845,1.8431,1.8387,1.8388,1.8949,1.863,1.823,1.823,1.7293,1.6355,1.5779,1.5786,1.5807,1.5749,1.5817,1.605,1.6586,1.6115,1.5784,1.5784,1.5784,1.5784,1.5784,1.5784,1.5784,1.5784,1.6433,1.7084,1.7692,1.8319,1.9222,2.0305,2.044,2.0809,2.1454,2.2589,2.3091,2.3091,2.3091,2.3091,2.3091,2.3091,2.3091,2.3091,2.3091,2.3091,2.3091,2.3091,2.3091,2.3091,2.3091,2.3091,2.3091,0.0,0.0,0.0,0.0,0.0,0.0,0.0,0.0,0.0,0.0,0.0,0.0,0.0,0.0,0.0,0.0,0.0,0.0,0.0,0.0,2.6691,2.6691,2.6691,2.6522,2.6174,2.5762,2.5561,2.5561,2.5944,2.612,2.6013,2.587,2.5749,2.5612,2.4943,2.5087,2.5851,2.5841,2.5804,2.5818,0.0,0.0,0.0,0.0,0.0,0.0,0.0,0.0,0.0,0.0,0.0,0.0,0.0,0.0,0.0,1.9299,1.8687,1.8008,1.8008,1.8008,1.8037,1.8135,1.8364,1.8715,1.9189,1.9609,2.0039,2.0517,1.9962,1.9362,1.9362,1.847,1.7334,1.6232,1.6764,1.726,1.7187,1.707,1.7278,1.8011,1.7257,1.6655,1.6655,1.6655,1.6655,1.6655,1.6655,1.6655,1.6655,1.7584,1.8226,1.8549,1.9451,2.0079,2.0359,2.1257,2.2031,2.2677,2.296,2.3091,2.3091,2.3091,2.3091,2.3091,2.3091,2.3091,2.3091,2.3091,2.3091,2.3091,2.3091,2.3091,2.3091,2.3091,2.3091,2.3091,0.0,0.0,0.0,0.0,0.0,0.0,0.0,0.0,0.0,0.0,0.0,0.0,0.0,0.0,0.0,0.0,0.0,0.0,0.0,0.0,2.6691,2.6691,2.6691,2.6691,2.6657,2.6607,2.659,2.659,2.6641,2.6419,2.5979,2.5486,2.5878,2.6907,2.5825,2.6015,2.7137,2.6718,2.6518,2.6574,2.7255,0.0,0.0,0.0,0.0,0.0,0.0,0.0,0.0,0.0,0.0,0.0,0.0,0.0,1.9299,1.9299,1.8687,1.8008,1.8008,1.8008,1.8105,1.8461,1.8578,1.8715,1.9189,1.9609,2.0039,2.0517,2.0527,2.0479,2.0479,1.9599,1.851,1.7374,1.7253,1.7549,1.8188,1.8286,1.8548,1.9269,1.9314,1.9214,1.9214,1.9214,1.9214,1.9214,1.9214,1.9214,1.9214,1.9314,1.9898,2.1025,2.1114,2.1712,2.2818,2.2916,2.2448,2.1436,2.2536,2.3091,2.3091,2.3091,2.3091,2.3091,2.3091,2.3091,2.3091,2.3091,2.3091,2.3091,2.3091,2.3091,2.3091,2.3091,2.3091,2.3091,0.0,0.0,0.0,0.0,0.0,0.0,0.0,0.0,0.0,0.0,0.0,0.0,0.0,0.0,0.0,0.0,0.0,0.0,0.0,2.6939,2.6971,2.6708,2.6691,2.6691,2.6691,2.6691,2.6691,2.6691,2.6691,2.6607,2.6435,2.6694,2.686,2.6953,2.6702,2.6871,2.7326,2.6812,2.6851,2.724,2.7495,2.7433,0.0,0.0,0.0,0.0,0.0,0.0,0.0,0.0,2.2884,2.2641,2.2641,2.1479,2.0107,2.0107,1.9497,1.8687,1.8144,1.8405,1.8765,1.863,1.8802,1.915,1.958,2.001,2.04,2.0566,2.0605,2.0605,2.0605,2.0284,1.9638,1.8559,1.9124,1.9689,1.9534,1.9686,2.0035,2.0559,1.9943,1.9497,1.9497,1.9497,1.9497,1.9497,1.9497,1.9497,1.9497,2.0215,2.0845,2.1293,2.2031,2.2633,2.3091,2.3091,2.2862,2.2403,2.2862,2.3091,2.3091,2.3091,2.3091,2.3091,2.3091,2.3091,2.3091,2.3091,2.3091,2.3091,2.3091,2.3091,2.3091,2.3091,2.3091,2.3091,0.0,0.0,0.0,0.0,0.0,0.0,0.0,0.0,0.0,0.0,0.0,0.0,0.0,0.0,0.0,0.0,0.0,0.0,2.7099,2.735,2.7319,2.6906,2.689,2.6824,2.6708,2.6691,2.6691,2.6691,2.6691,2.6826,2.7063,2.7553,2.7739,2.7626,2.7614,2.7755,2.7983,2.7237,2.7304,2.7885,2.7675,2.76,0.0,0.0,0.0,0.0,0.0,0.0,0.0,0.0,2.3305,2.3108,2.3108,2.2156,2.1005,2.1005,2.0398,1.9595,1.8977,1.9147,1.9456,1.9274,1.9377,1.96,2.0019,2.0352,2.0605,2.0605,2.0605,2.0605,2.0605,2.0605,2.0362,1.9599,2.0451,2.1084,2.0764,2.1037,2.1401,2.1799,2.1123,2.0629,2.0629,2.0629,2.0629,2.0629,2.0629,2.0629,2.0629,2.1445,2.1845,2.1845,2.2677,2.3091,2.3091,2.3091,2.3091,2.3091,2.3091,2.3091,2.3091,2.3091,2.3091,2.3091,2.3091,2.3091,2.3091,2.3091,2.3091,2.3091,2.3091,2.3091,2.3091,2.3091,2.3091,2.3091,0.0,0.0,0.0,0.0,0.0,0.0,0.0,0.0,0.0,0.0,0.0,0.0,0.0,0.0,0.0,0.0,0.0,0.0,2.7897,2.7897,2.7725,2.7319,2.7286,2.7115,2.6708,2.6691,2.6691,2.6691,2.6691,2.708,2.7807,2.7807,2.831,2.9169,2.8586,2.8728,2.9316,2.8125,2.7944,2.8439,2.7835,2.76,2.7524,0.0,0.0,0.0,0.0,0.0,0.0,0.0,2.3767,2.3108,2.3108,2.2537,2.1908,2.1908,2.1302,2.0623,2.059,2.028,2.0051,2.0488,2.0269,2.0067,2.0507,2.0605,2.0605,2.0605,2.0605,2.0605,2.0605,2.0605,2.0605,2.0605,2.0947,2.1356,2.1826,2.2246,2.2676,2.3042,2.3091,2.3091,2.3091,2.3091,2.3091,2.3091,2.3091,2.3091,2.3091,2.3091,2.3091,2.3091,2.3091,2.3091,2.3091,2.3091,2.3091,2.3091,2.3091,2.3091,2.3091,2.3091,2.3091,2.3091,2.3091,2.3091,2.3091,2.3091,2.3091,2.3091,2.3091,2.3091,2.3091,2.3091,2.3091,2.3091,0.0,0.0,0.0,0.0,0.0,0.0,0.0,0.0,0.0,0.0,0.0,0.0,0.0,0.0,0.0,0.0,0.0,0.0,2.7515,2.7736,2.7589,2.6906,2.6873,2.6808,2.6708,2.6691,2.6691,2.6691,2.6691,2.708,2.7824,2.8383,2.8831,2.9222,2.9545,2.937,2.8732,2.8391,2.8091,2.786,2.766,2.76,2.7575,0.0,0.0,0.0,0.0,0.0,0.0,0.0,0.0,0.0,2.3108,2.2537,2.1908,2.1908,2.1721,2.1396,2.0782,2.1209,2.1675,2.0793,2.1307,2.1775,2.0806,2.0605,2.0605,2.0605,2.0605,2.0605,2.0605,2.0605,2.0605,2.0605,2.1201,2.1738,2.1865,2.25,2.2955,2.3081,2.3091,2.3091,2.3091,2.3091,2.3091,2.3091,2.3091,2.3091,2.3091,2.3091,2.3091,2.3091,2.3091,2.3091,2.3091,2.3091,2.3091,2.3091,2.3091,2.3091,2.3091,2.3091,2.3091,2.3091,2.3091,2.3091,2.3091,2.3091,2.3091,2.3091,2.3091,2.3091,2.3091,2.3091,2.3091,2.3091,0.0,0.0,0.0,0.0,0.0,0.0,0.0,0.0,0.0,0.0,0.0,0.0,0.0,0.0,0.0,0.0,0.0,0.0,0.0,2.7922,2.7678,2.721,2.7019,2.6857,2.6708,2.6691,2.6843,2.7148,2.7148,2.7537,2.8298,2.9076,2.952,2.9667,2.9863,2.9673,2.918,2.8685,2.8567,2.8622,2.8149,2.7944,2.7919,0.0,0.0,0.0,0.0,0.0,0.0,0.0,0.0,0.0,2.3573,2.3022,2.2384,2.2384,2.2384,2.2249,2.1741,2.2241,2.2723,2.1866,2.2397,2.2877,2.1947,2.1155,2.0605,2.0605,2.0605,2.0605,2.0605,2.0605,2.0605,2.0605,2.1349,2.1885,2.1885,2.2607,2.3091,2.3091,2.3091,2.3091,2.3091,2.3091,2.3091,2.3091,2.3091,2.3091,2.3091,2.3091,2.3091,2.3091,2.3091,2.3091,2.3091,2.3091,2.3091,2.3091,2.3091,2.3091,2.3091,2.3091,2.3091,2.3091,2.3091,2.3091,2.3091,2.3091,2.3091,2.3091,2.3091,2.3091,2.3091,2.3091,2.3091,2.3091,0.0,0.0,0.0,0.0,0.0,0.0,0.0,0.0,0.0,0.0,2.7166,0.0,0.0,0.0,0.0,0.0,0.0,0.0,0.0,0.0,2.784,2.7797,2.7439,2.7067,2.6708,2.6759,2.7131,2.7807,2.7807,2.8264,2.9111,2.9786,3.0191,3.0372,2.9805,2.9827,3.023,2.9081,2.918,3.0038,2.8896,2.8415,2.8359,2.781,0.0,0.0,0.0,0.0,0.0,0.0,0.0,0.0,2.4292,2.3738,2.3108,2.3108,2.3108,2.3108,2.317,2.3325,2.3435,2.337,2.3432,2.3514,2.3635,2.2199,2.0828,2.075,2.0644,2.0605,2.0605,2.0605,2.0615,2.0664,2.1378,2.1894,2.1934,2.2637,2.3091,2.3091,2.3091,2.3091,2.3091,2.3091,2.3091,2.3091,2.3091,2.3091,2.3091,2.3091,2.3091,2.3091,2.3091,2.3091,2.3091,2.3091,2.3091,2.3091,2.3091,2.3091,2.3091,2.3091,2.3091,2.3091,2.3091,2.3091,2.3091,2.3091,2.3091,2.3091,2.3091,2.3178,2.3256,2.3256,2.3299,2.343,0.0,0.0,0.0,0.0,0.0,0.0,0.0,0.0,0.0,0.0,0.0,0.0,0.0,0.0,0.0,0.0,0.0,0.0,0.0,0.0,2.7303,2.6971,2.6873,2.6791,2.6691,2.7283,2.7638,2.7807,2.7807,2.85,2.9871,3.004,3.0422,3.0995,3.0858,3.0617,3.0251,2.9518,2.9065,2.8826,2.8091,2.7785,2.7785,2.7635,2.76,0.0,0.0,0.0,0.0,0.0,0.0,0.0,2.4292,2.3738,2.3108,2.3108,2.3108,2.3195,2.369,2.4135,2.4407,2.4094,2.3767,2.3708,2.4492,2.3745,2.2627,2.1849,2.1116,2.0605,2.0605,2.0605,2.0684,2.1035,2.1543,2.2002,2.2334,2.2769,2.3091,2.3091,2.3091,2.3091,2.3091,2.3091,2.3091,2.3091,2.3091,2.3091,2.3091,2.3091,2.3091,2.3091,2.3091,2.3091,2.3091,2.3091,2.3091,2.3091,2.3091,2.3091,2.3091,2.3091,2.3091,2.3091,2.3091,2.3091,2.3091,2.3091,2.3091,2.3091,2.3091,2.3627,2.4414,2.4414,2.501,2.5766,0.0,0.0,0.0,0.0,0.0,0.0,0.0,0.0,0.0,0.0,0.0,0.0,0.0,0.0,0.0,0.0,0.0,0.0,0.0,0.0,2.721,2.7004,2.6988,2.706,2.7215,2.7604,2.8162,2.8889,2.8889,2.9311,3.0125,3.0463,3.0835,3.119,3.0898,3.058,3.0251,2.9651,2.9225,2.8873,2.8271,2.8018,2.7993,2.771,2.76,2.76,2.76,0.0,0.0,0.0,0.0,0.0,0.0,0.0,2.3679,2.3679,2.3395,2.3233,2.3841,2.4406,2.4878,2.5225,2.5118,2.5063,2.5581,2.4921,2.4072,2.3551,2.2675,2.1859,2.1375,2.126,2.1267,2.1202,2.1602,2.2031,2.2451,2.2828,2.3091,2.3091,2.3091,2.3091,2.3091,2.3091,2.3091,2.3091,2.3091,2.3091,2.3091,2.3091,2.3091,2.3091,2.3091,2.3091,2.3091,2.3091,2.3091,2.3091,2.3091,2.3091,2.3091,2.3091,2.3091,2.3091,2.3091,2.3091,2.3091,2.3091,2.3091,2.3091,2.3091,2.38,2.4787,2.4787,2.5504,2.6524,0.0,0.0,0.0,0.0,0.0,0.0,0.0,0.0,0.0,0.0,0.0,0.0,0.0,0.0,0.0,0.0,0.0,0.0,0.0,0.0,0.0,2.7494,2.7415,2.7585,2.801,2.8128,2.8821,3.0108,3.0243,3.0237,3.0159,3.0864,3.1151,3.1035,3.0638,3.0393,3.0251,2.9651,2.9406,2.9339,2.8614,2.8343,2.8286,2.7785,2.76,2.76,2.76,2.76,2.76,2.76,0.0,0.0,0.0,0.0,2.4481,2.4481,2.3943,2.3457,2.4128,2.469,2.5322,2.6273,2.6499,2.6499,2.6499,2.5873,2.5264,2.5264,2.4337,2.3257,2.2403,2.2253,2.2178,2.1909,2.2038,2.2332,2.2836,2.2997,2.3091,2.3091,2.3091,2.3091,2.3091,2.3091,2.3091,2.3091,2.3091,2.3091,2.3091,2.3091,2.3091,2.3091,2.3091,2.3091,2.3091,2.3091,2.3091,2.3091,2.3299,2.3517,2.3681,2.3681,2.3474,2.3091,2.3091,2.3222,2.3387,2.3387,2.3517,2.3681,2.3681,2.4382,2.5368,2.5368,2.6088,2.7058,0.0,0.0,0.0,0.0,0.0,0.0,0.0,0.0,0.0,0.0,0.0,0.0,0.0,0.0,0.0,0.0,0.0,0.0,2.8316,0.0,0.0,2.8241,2.7913,2.808,2.8824,2.9465,2.9886,3.0108,3.0734,3.0784,3.0303,3.0905,3.0918,3.0435,3.0878,3.0797,3.0251,2.9651,2.9406,2.9293,2.8174,2.771,2.771,2.7625,2.76,2.76,2.76,2.76,2.76,2.76,2.7111,0.0,0.0,0.0,2.5259,2.5259,2.4724,2.4341,2.5358,2.5967,2.6311,2.6461,2.6499,2.6499,2.6499,2.6383,2.6314,2.6314,2.4803,2.3441,2.3331,2.3294,2.3556,2.436,2.3729,2.3432,2.4377,2.3684,2.3091,2.3091,2.3091,2.3091,2.3091,2.3091,2.3091,2.3091,2.3091,2.3091,2.3091,2.3091,2.3091,2.3091,2.3091,2.3091,2.3091,2.3091,2.3091,2.3091,2.4082,2.5094,2.6069,2.6069,2.4978,2.3091,2.3091,2.3671,2.4585,2.4585,2.5168,2.6069,2.6069,2.6707,2.7683,2.7683,2.8398,2.9378,0.0,0.0,0.0,0.0,0.0,0.0,0.0,0.0,0.0,0.0,0.0,0.0,0.0,0.0,0.0,2.8143,2.8156,2.8335,2.8709,2.8429,2.8477,2.8986,2.8853,2.9022,2.9583,2.9939,3.0311,3.0717,3.1038,3.1055,3.0818,3.1092,3.0878,3.0314,3.0597,3.0539,3.0251,2.9651,2.9406,2.9316,2.8448,2.8091,2.8091,2.8091,2.7894,2.7635,2.7968,2.7885,2.76,2.76,2.7382,2.7126,2.7126,0.0,0.0,0.0,2.5408,2.4899,2.5537,2.6113,2.6499,2.6499,2.6499,2.6499,2.6499,2.6499,2.6499,2.6499,2.5791,2.5028,2.4445,2.4337,2.4489,2.4914,2.4602,2.4374,2.4735,2.4372,2.3844,2.3178,2.3091,2.3091,2.3091,2.3671,2.4049,2.4049,2.4638,2.502,2.502,2.502,2.4723,2.4082,2.4049,2.3757,2.3101,2.3091,2.3091,2.3091,2.4253,2.5041,2.5588,2.6224,2.5933,2.502,2.502,2.5305,2.5755,2.5755,2.6058,2.6524,2.6524,2.7168,2.8096,2.8096,2.8806,2.9792,0.0,0.0,0.0,0.0,0.0,0.0,0.0,0.0,0.0,0.0,0.0,0.0,0.0,0.0,0.0,0.0,2.8211,2.8639,2.9248,2.9178,2.9327,2.9764,2.9696,2.9879,3.0362,3.0378,3.0649,3.119,3.119,3.1131,3.0975,3.1131,3.0878,3.0293,3.0456,3.0456,3.0251,2.9651,2.9406,2.9339,2.8567,2.8271,2.8271,2.8271,2.7993,2.766,2.8116,2.7968,2.76,2.76,2.76,2.76,2.76,2.7229,0.0,0.0,0.0,2.6123,2.5968,2.637,2.6748,2.6555,2.6499,2.6499,2.6499,2.6499,2.6499,2.6499,2.6499,2.628,2.5511,2.537,2.5457,2.5718,2.5547,2.5459,2.5603,2.541,2.4925,2.4059,2.3973,2.3973,2.3973,2.4713,2.521,2.521,2.6016,2.6524,2.6524,2.6524,2.5975,2.483,2.4787,2.4372,2.3551,2.38,2.4092,2.4382,2.5241,2.5786,2.6119,2.6964,2.7354,2.7302,2.673,2.6637,2.6924,2.6924,2.7087,2.7354,2.7354,2.7827,2.8518,2.8518,2.9067,2.9792,0.0,0.0,0.0,0.0,0.0,0.0,0.0,0.0,0.0,0.0,0.0,0.0,2.842,2.8102,2.7926,2.7897,2.8211,2.8866,2.9969,2.9702,2.9799,3.0508,3.025,0.0,3.1123,3.114,3.1157,3.119,3.119,3.0898,3.0356,3.0918,3.0878,3.0314,3.0898,3.0838,3.0251,2.9651,2.9406,2.9293,2.8125,2.765,2.765,2.765,2.7625,2.7585,2.765,2.7625,2.76,2.76,2.76,2.76,2.76,2.7575,2.7669,0.0,0.0,0.0,2.7251,2.7236,2.7451,2.6679,2.6499,2.6499,2.6499,2.6499,2.6499,2.6499,2.6499,2.6487,2.6418,2.6418,2.6746,2.7776,2.7074,2.6777,2.7782,2.7035,2.6389,2.6348,2.6307,2.6307,2.6307,2.6389,2.6389,2.6389,2.6483,2.6524,2.6524,2.6524,2.5975,2.483,2.4787,2.4787,2.4702,2.5766,2.683,2.7844,2.7884,2.8478,2.9546,2.9585,2.9624,2.9495,2.7395,2.7087,2.8004,2.8004,2.8648,2.9624,2.9624,2.9663,2.9702,2.9702,2.9753,2.9792,0.0,0.0,0.0,0.0,0.0,0.0,0.0,0.0,0.0,0.0,0.0,0.0,0.0,2.8012,2.831,2.8579,2.9134,2.9748,3.0384,3.03,3.0436,3.0948,3.0881,3.092,3.119,3.119,3.119,3.119,3.119,3.1075,3.0878,3.0699,3.0497,3.0293,3.0123,3.0145,3.023,2.9248,2.9271,2.987,2.8662,2.84,2.8717,2.8319,2.7959,2.7635,2.8042,2.7919,2.76,2.76,2.76,2.7675,2.8124,2.8233,2.8364,2.8887,2.9189,2.902,2.7766,2.7545,2.7517,2.6679,2.6499,2.6499,2.6499,2.6499,2.6499,2.6499,2.6499,2.6499,2.6499,2.6499,2.6851,2.7921,2.7767,2.7664,2.8032,2.7763,2.7279,2.6595,2.6524,2.6524,2.6524,2.7116,2.7522,2.7522,2.8199,2.8633,2.8633,2.8633,2.8119,2.693,2.693,2.6573,2.5891,2.6307,2.6678,2.7075,2.7763,2.8295,2.8727,2.9456,2.9792,2.9753,2.8961,2.8831,2.9197,2.9197,2.9443,2.9792,2.9792,2.9792,2.9792,2.9792,2.9792,2.9792,0.0,0.0,0.0,0.0,0.0,0.0,0.0,0.0,0.0,2.7147,0.0,0.0,0.0,0.0,2.8914,2.9322,2.9827,3.03,3.0777,3.081,3.0919,3.1193,3.119,3.119,3.119,3.119,3.119,3.119,3.0995,3.0898,3.0878,3.0272,2.9995,2.9957,2.9361,2.9429,2.9935,2.8943,2.895,2.9607,2.8591,2.8578,2.9076,2.8697,2.842,2.831,2.8743,2.8617,2.8274,2.8274,2.8274,2.8349,2.8786,2.9071,2.9292,2.9606,2.9871,2.9825,2.8829,2.8556,2.8298,2.7196,2.7129,2.7196,2.6624,2.6714,2.685,2.6555,2.6499,2.6499,2.6499,2.6499,2.6851,2.7921,2.8109,2.8213,2.8609,2.8688,2.8398,2.7678,2.7597,2.7597,2.7597,2.8239,2.8688,2.8688,2.9365,2.9792,2.9792,2.9792,2.9287,2.8136,2.8096,2.7775,2.7046,2.7424,2.7597,2.7637,2.8319,2.8688,2.8688,2.9443,2.9792,2.9792,2.9792,2.9792,2.9792,2.9792,2.9792,2.9792,2.9792,2.9792,2.9792,2.9792,2.9792,2.9792,0.0,0.0,0.0,0.0,0.0,0.0,0.0,0.0,2.7904,2.7904,0.0,0.0,0.0,0.0,0.0,3.0112,3.0123,3.0446,3.114,3.119,3.119,3.119,3.119,3.119,3.119,3.119,3.119,3.1171,3.0597,3.0293,3.0251,2.9651,2.9361,2.9339,2.8732,2.8818,2.9348,2.8724,2.8503,2.847,2.7865,2.8034,2.8648,2.8622,2.9026,2.9606,2.9606,2.9606,2.9606,2.9606,2.9606,2.9606,2.9636,3.0028,3.0537,3.0537,3.0972,3.1322,0.0,0.0,0.0,2.8182,2.8363,2.8556,2.6905,2.7162,2.7517,2.6692,2.6521,2.6521,2.6499,2.6499,2.6851,2.7921,2.8109,2.8499,2.9628,2.9792,2.9792,2.9792,2.9792,2.9792,2.9792,2.9792,2.9792,2.9792,2.9792,2.9792,2.9792,2.9792,2.9275,2.8176,2.8136,2.8136,2.8136,2.9236,2.9792,2.9792,2.9792,2.9792,2.9792,2.9792,2.9792,2.9792,2.9792,2.9792,2.9792,2.9792,2.9792,2.9792,2.9792,2.9792,2.9792,2.9792,2.9792,2.9792,0.0,0.0,0.0,0.0,0.0,0.0,2.7019,2.7465,2.7842,0.0,0.0,0.0,2.9008,2.9551,3.0189,3.0855,3.0903,3.097,3.119,3.119,3.119,3.119,3.119,3.119,3.119,3.119,3.0995,3.0539,3.0393,3.0081,2.9629,2.9019,2.8756,2.8709,2.8116,2.8207,2.8783,2.8147,2.8366,2.9181,2.8576,2.8994,2.9935,2.9482,2.9457,2.9606,2.9606,2.9606,2.9606,2.9606,2.9606,2.9696,3.0103,3.0717,3.1212,3.1212,3.1346,0.0,3.0524,0.0,0.0,0.0,0.0,0.0,2.7604,2.8019,2.8247,2.6816,2.6973,2.7196,2.6624,2.6499,2.6851,2.7921,2.8109,2.8499,2.9628,2.9792,2.9792,2.9792,2.9792,2.9792,2.9792,2.9792,2.9792,2.9792,2.9792,2.9792,2.9792,2.9792,2.9663,2.9326,2.9326,2.9326,2.9326,2.9624,2.9792,2.9792,2.9792,2.9792,2.9792,2.9792,2.9792,2.9792,2.9792,2.9792,2.9792,2.9792,2.9792,2.9792,2.9792,2.9792,2.9792,2.9792,2.9792,2.9792,0.0,0.0,0.0,0.0,0.0,2.7165,2.7165,2.7596,2.792,0.0,0.0,0.0,2.9871,3.0294,3.0734,3.1157,3.119,3.1095,3.0838,3.0821,3.072,3.0456,3.0456,3.0456,3.0456,3.0456,3.0272,2.9913,2.9673,2.9361,2.8996,2.8415,2.8116,2.8131,2.8037,2.8218,2.8592,2.8483,2.8856,2.95,2.9155,2.961,3.0449,3.0117,3.0148,3.0387,3.0387,3.0387,3.0387,3.0387,3.0387,3.0447,3.0821,3.1182,3.1511,3.1511,3.1511,0.0,0.0,0.0,0.0,2.9766,0.0,0.0,2.8524,2.8652,2.862,2.7297,2.7095,2.7074,2.6589,2.6688,2.7115,2.7959,2.8298,2.8762,2.9666,2.9792,2.9792,2.9792,2.9792,2.9792,2.9792,2.9792,2.9792,2.9792,2.9792,2.9792,2.9792,2.9792,2.9792,2.9792,2.9792,2.9792,2.9792,2.9792,2.9792,2.9792,2.9792,2.9792,2.9792,2.9792,2.9792,2.9792,2.9792,2.9792,2.9792,2.9792,2.9792,2.9792,2.9792,2.9792,2.9792,2.9792,2.9792,2.9792,0.0,0.0,2.6826,2.6826,2.7452,2.7925,2.7925,2.8092,2.8227,0.0,2.8796,2.9687,3.0871,3.0995,3.0995,3.0995,3.0995,3.076,3.023,3.0208,2.9957,2.9429,2.9406,2.9406,2.9406,2.9406,2.9361,2.9293,2.8756,2.8479,2.8391,2.786,2.7645,2.7735,2.8323,2.8682,2.8846,2.9445,2.9729,2.9789,2.9714,3.0058,3.0612,3.0612,3.0972,3.1511,3.1511,3.1511,3.1511,3.1511,3.1511,3.1511,3.1511,3.1511,3.1511,3.1511,3.1511,0.0,0.0,0.0,0.0,3.0614,3.097,0.0,2.9504,2.9223,2.9002,2.8051,2.7351,2.6871,2.6816,2.724,2.7728,2.8178,2.871,2.924,2.9742,2.9792,2.9792,2.9792,2.9792,2.9792,2.9792,2.9792,2.9792,2.9792,2.9792,2.9792,2.9792,2.9792,2.9792,2.9792,2.9792,2.9792,2.9792,2.9792,2.9792,2.9792,2.9792,2.9792,2.9792,2.9792,2.9792,2.9792,2.9792,2.9792,2.9792,2.9792,2.9792,2.9792,2.9792,2.9792,2.9792,2.9792,2.9792,2.9792,0.0,2.7182,2.7587,2.7587,2.8247,2.8773,2.8773,2.8896,2.8992,2.8992,2.9183,2.9446,2.9723,2.9761,2.9761,2.9761,2.9761,2.9695,2.9585,2.9585,2.9518,2.9406,2.9406,2.9406,2.9406,2.9406,2.9157,2.8677,2.8559,2.8262,2.776,2.7675,2.7899,2.8412,2.8547,2.9175,3.0133,3.0268,3.0642,3.1077,3.0552,3.0731,3.1301,3.1301,3.1391,3.1511,3.1511,3.1511,3.1511,3.1511,3.1511,3.1511,3.1511,3.1511,3.1511,3.1511,3.1511,3.1511,3.1511,3.1511,3.1467,3.1307,3.138,0.0,3.0269,3.0554,3.0584,2.9066,2.9192,2.9348,2.8652,2.9046,2.941,2.9197,2.9693,3.0036,2.9819,2.9792,2.9792,2.9792,2.9792,2.9792,2.9792,2.9792,2.9792,2.9792,2.9792,2.9792,2.9792,2.9792,2.9792,2.9792,2.9792,2.9792,2.9792,2.9792,2.9792,2.9792,2.9792,2.9792,2.9792,2.9792,2.9792,2.9792,2.9792,2.9792,2.9792,2.9792,2.9792,2.9792,2.9792,2.9792,2.9792,2.9792,2.9792,2.9792,2.7859,2.7897,2.7948,2.7948,2.8337,2.8659,2.8659,2.8757,2.8856,2.8856,2.8912,2.9081,2.9361,2.9406,2.9406,2.9406,2.9406,2.9271,2.8966,2.8966,2.8826,2.8519,2.8496,2.8496,2.8496,2.8496,2.8352,2.8042,2.8393,2.8399,2.8124,2.8438,2.8783,2.9101,2.9415,2.9909,3.0522,3.0866,3.1182,3.1466,3.1122,3.1197,3.1511,3.1511,3.1511,3.1511,3.1511,3.1511,3.1511,3.1511,3.1511,3.1511,3.1511,3.1511,3.1511,3.1511,3.1511,3.1511,3.1511,3.1511,3.1511,3.1511,3.1511,0.0,0.0,3.0896,3.0644,2.9827,2.9659,2.9504,2.9097,2.9767,3.0339,3.0147,3.0499,3.09,3.1167,3.0394,2.9792,2.9792,2.9792,2.9792,2.9792,2.9792,2.9792,2.9792,2.9792,2.9792,2.9792,2.9792,2.9792,2.9792,2.9792,2.9792,2.9792,2.9792,2.9792,2.9792,2.9792,2.9792,2.9792,2.9792,2.9792,2.9779,2.949,2.9528,2.9767,2.9478,2.9528,2.9792,2.9792,2.9792,2.9792,2.9792,2.9792,2.9792,2.8695,2.8384,2.815,2.815,2.8349,2.852,2.852,2.8512,2.8479,2.8343,2.8334,2.8496,2.8996,2.9065,2.9065,2.9065,2.9065,2.8897,2.8543,2.8535,2.8351,2.8,2.7989,2.7989,2.7989,2.7989,2.7989,2.7989,2.8517,2.8786,2.8801,2.9367,2.9666,2.9774,3.0283,3.0567,3.0746,3.1271,3.1511,3.1511,3.1511,3.1511,3.1511,3.1511,3.1511,3.1511,3.1511,3.1511,3.1511,3.1511,3.1511,3.1511,3.1511,3.1511,3.1511,3.1511,3.1511,3.1511,3.1511,3.1511,3.1511,3.1511,3.1511,3.1511,0.0,0.0,0.0,3.0524,2.9981,2.9473,2.9473,3.0469,3.1236,3.0912,3.1354,3.1884,3.2335,3.1053,3.0075,3.0075,2.9895,2.9792,2.9792,2.9792,2.9792,2.9792,2.9792,2.9792,2.9792,2.9792,2.9792,2.9792,2.9792,2.9792,2.9792,2.9792,2.9792,2.9792,2.9792,2.9792,2.9792,2.9792,2.9792,2.9767,2.9176,2.9252,2.9741,2.9126,2.9277,2.9792,2.9792,2.9792,2.9792,2.9792,2.9792,2.9792,2.7671,2.787,2.8287,2.8287,2.8836,2.9294,2.9294,2.8826,2.831,2.776,2.771,2.7735,2.781,2.7795,2.7795,2.7795,2.7795,2.8017,2.8531,2.8576,2.882,2.9352,2.9382,2.9382,2.9382,2.9382,2.9382,2.9382,2.9457,2.9502,2.9502,2.9577,2.9906,3.0402,3.0477,3.0823,3.1391,3.1466,3.1511,3.1511,3.1511,3.1511,3.1511,3.1511,3.1511,3.1511,3.1511,3.1511,3.1511,3.1511,3.1511,3.1511,3.1511,3.1511,3.1511,3.1511,3.1511,3.1511,3.1511,3.1511,3.1511,3.1511,3.1511,3.1511,3.1511,0.0,3.1351,3.1351,0.0,3.1219,3.1219,0.0,0.0,3.1312,3.2535,3.3231,3.191,3.1324,3.1044,3.1044,3.0317,2.9792,2.9792,2.9792,2.9792,2.9792,2.9792,2.9792,2.9792,2.9792,2.9792,2.9792,2.9792,2.9792,2.9792,2.9792,2.9792,2.9792,2.9792,2.9792,2.9792,2.9792,2.9792,2.9767,2.9176,2.9252,2.9741,2.9126,2.9277,2.9792,2.9792,2.9792,2.9792,2.9792,2.9792,2.9792,2.8462,2.8433,2.841,2.841,2.8365,2.8352,2.8352,2.8125,2.7885,2.7625,2.76,2.775,2.8154,2.8173,2.8349,2.8738,2.8768,2.8888,2.9146,2.916,2.9322,2.9592,2.9606,2.9606,2.9606,2.9606,2.9606,2.9606,2.9939,3.0118,3.0118,3.0522,3.0823,3.1077,3.1077,3.1241,3.1511,3.1511,3.1511,3.1511,3.1511,3.1511,3.1511,3.1511,3.1511,3.1511,3.1511,3.1511,3.1511,3.1511,3.1511,3.1511,3.1511,3.1511,3.1511,3.1511,3.1511,3.1511,3.1511,3.1511,3.1511,3.1511,3.1511,3.1511,3.1511,3.1511,3.1511,3.1511,0.0,0.0,0.0,0.0,0.0,0.0,3.3576,3.3975,3.3878,3.2807,3.1815,3.1241,3.0381,2.9792,2.9792,2.9792,2.9792,2.9792,2.9792,2.9792,2.9792,2.9792,2.9792,2.9792,2.9792,2.9792,2.9792,2.9792,2.9792,2.9792,2.9792,2.9792,2.9792,2.9792,2.9792,2.9741,2.8837,2.8963,2.9729,2.8825,2.8976,2.9792,2.9792,2.9792,2.9792,2.9792,2.9792,2.9792,2.874,0.0,2.8262,2.8262,2.7894,2.7534,2.7331,2.7622,2.7793,2.7598,2.7916,2.8334,2.8816,2.8661,2.8705,2.9205,2.9042,2.8962,2.9138,2.9405,2.959,2.9768,2.9993,3.0118,3.0118,3.0118,3.0118,3.0118,3.0567,3.0763,3.0763,3.1271,3.1511,3.1511,3.1511,3.138,3.119,3.1409,3.138,3.1161,3.1161,3.1264,3.1412,3.1468,3.1511,3.1511,3.1511,3.1511,3.1525,3.1705,3.1765,3.1809,3.1989,3.2049,3.2049,3.2049,3.2049,3.2049,3.2049,3.2049,3.2049,3.2049,3.2049,3.2049,3.2049,3.2049,3.2049,3.2049,3.2452,0.0,0.0,0.0,0.0,0.0,0.0,3.4585,3.5138,3.3926,3.2749,3.2069,3.1119,3.057,3.057,3.0317,3.0177,3.0177,2.9934,2.9792,2.9792,2.9792,2.9792,2.9792,2.9792,2.9792,2.9792,2.9792,2.9792,2.9792,2.9792,2.9792,2.9792,2.9792,2.9792,2.9729,2.8599,2.8662,2.9478,2.8781,2.907,2.9974,3.0114,3.0177,3.0139,2.9895,2.9792,2.9792,2.7635,2.7635,2.7625,2.7625,2.761,2.7357,2.6642,2.7671,2.8311,2.7596,2.8682,2.9547,2.9577,2.8804,2.8311,2.8325,2.7562,2.7354,2.8005,2.8832,2.9593,3.0242,3.1028,3.1451,3.1451,3.1451,3.1451,3.1451,3.1466,3.1466,3.1466,3.1496,3.1511,3.1511,3.1511,3.1058,3.0389,3.1161,3.1058,3.0329,3.0329,3.0675,3.1215,3.1442,3.1511,3.1511,3.1511,3.1511,3.16,3.2243,3.2482,3.2587,3.323,3.344,3.344,3.344,3.344,3.344,3.344,3.344,3.344,3.344,3.344,3.344,3.344,3.344,3.344,3.344,3.344,3.3469,3.3469,0.0,0.0,0.0,0.0,0.0,0.0,3.42,3.3945,3.391,3.3066,3.25,3.25,3.1669,3.1143,3.1143,3.0317,2.9792,2.9792,2.9792,2.9792,2.9792,2.9792,2.9792,2.9792,2.9792,2.9792,2.9792,2.9792,2.9792,2.9792,2.9792,2.9792,2.9729,2.8599,2.8436,2.895,2.9324,2.9821,3.0441,3.0932,3.1143,3.1044,3.0139,2.9792,2.9792,0.0,0.0,2.7292,2.6925,2.6469,2.6181,2.6302,2.7004,2.7441,2.7211,2.7567,2.8052,2.8477,2.8282,2.8286,2.8722,2.8504,2.8433,2.8653,2.9485,2.9797,2.9459,3.0777,3.1248,3.0718,3.1219,3.1511,3.1511,3.1511,3.1511,3.1511,3.1511,3.1511,3.1467,3.094,3.0837,3.1029,3.0208,3.0011,3.0267,3.0048,3.0697,3.1815,3.2064,3.2452,3.2826,3.2826,3.2826,3.2871,3.3095,3.3155,3.32,3.3425,3.3499,3.3499,3.3499,3.3499,3.3499,3.3499,3.3499,3.3499,3.3499,3.3499,3.3499,3.3499,3.3499,3.3499,3.3499,3.3844,3.4174,3.4174,0.0,0.0,0.0,0.0,0.0,0.0,3.4664,3.4484,3.4942,3.3581,3.2593,3.2593,3.2321,3.1852,3.1254,3.0908,3.0733,3.0733,3.0139,3.0062,3.0696,3.0101,2.9792,2.9792,2.9792,2.9792,2.9792,2.9792,2.9792,2.9792,2.9792,2.9792,2.9729,2.8599,2.8411,2.8925,2.9311,2.9856,3.0523,3.1672,3.2141,3.1997,3.1082,3.0733,3.0809,2.7856,2.7281,2.6792,2.6793,2.6329,2.6014,2.6077,2.6813,2.7242,2.7013,2.7403,2.7875,2.8319,2.8079,2.8085,2.8497,2.8266,2.8117,2.8117,2.8907,2.9129,2.8556,2.9858,3.0359,2.9858,3.0359,3.0777,3.1058,3.1058,3.1219,3.1511,3.1219,3.1058,3.1073,3.0742,3.0425,3.0146,3.0139,2.9929,2.968,2.9969,3.0657,3.1539,3.2008,3.2518,3.2991,3.2991,3.3223,3.3529,3.3769,3.3874,3.3888,3.4143,3.4203,3.4203,3.4203,3.4203,3.4203,3.4203,3.4203,3.4203,3.4203,3.4203,3.4203,3.4203,3.4203,3.4203,3.4203,3.4547,3.4846,3.4846,0.0,0.0,0.0,0.0,0.0,0.0,3.513,3.5011,3.5444,3.3968,3.3118,3.3608,3.3127,3.2632,3.2236,3.1888,3.1706,3.1706,3.0809,3.0733,3.1669,3.0809,3.0457,3.0771,3.0822,3.0633,3.0317,3.0317,3.0101,2.9792,2.9792,2.9792,2.9767,2.8907,2.8747,2.9164,3.0086,3.0706,3.1191,3.257,3.3101,3.2996,3.2033,3.1706,3.1815,2.824,2.6998,2.6233,2.7117,2.7067,2.6684,2.5977,2.7041,2.7682,2.6982,2.8057,2.8876,2.8876,2.8149,2.7637,2.7637,2.6939,2.6499,2.6499,2.7263,2.767,2.7637,2.8524,2.8971,2.8939,2.8971,2.9442,3.0299,3.0299,3.0703,3.1467,3.0747,3.0372,3.0371,3.0945,2.9949,2.8014,3.0741,3.0632,2.872,2.9998,3.0481,3.051,3.1241,3.1732,3.2065,3.2098,3.2718,3.3555,3.4198,3.4422,3.4526,3.515,3.5359,3.5359,3.5359,3.5359,3.5359,3.5392,3.5439,3.5439,3.5504,3.5504,3.5504,3.5504,3.5504,3.5504,3.5504,3.5504,3.5504,3.5504,3.5504,0.0,0.0,0.0,0.0,0.0,3.5474,3.5474,3.5504,3.4322,3.4008,3.5325,3.4087,3.3412,3.3907,3.3157,3.2664,3.2664,3.1779,3.1706,3.2629,3.1742,3.1706,3.2593,3.2593,3.2141,3.1278,3.1278,3.0796,2.9934,2.9934,2.9934,2.9909,2.9598,2.9478,2.9666,3.1458,3.2234,3.2378,3.3585,3.4061,3.3959,3.3031,3.2713,3.289,2.7343,2.6887,2.6548,2.6668,2.6278,2.5903,2.5721,2.637,2.6822,2.6633,2.6917,2.7129,2.7129,2.6939,2.6816,2.6816,2.6624,2.6499,2.6499,2.7263,2.7417,2.685,2.8214,2.8716,2.8051,2.8684,2.9442,3.0299,3.0299,3.0703,3.1511,3.1812,3.154,3.0896,3.089,3.0513,2.9821,2.9319,2.9424,2.9878,2.9494,2.9993,3.0932,3.0451,3.0742,3.15,3.2207,3.2624,3.2873,3.3014,3.3071,3.3113,3.3303,3.3359,3.3359,3.3359,3.3359,3.3498,3.4211,3.4394,3.4576,3.5311,3.5504,3.5504,3.5504,3.5504,3.5504,3.5504,3.5504,3.5504,3.5504,3.5504,0.0,0.0,0.0,0.0,0.0,3.5055,3.4936,3.5444,3.4322,3.3829,3.4651,3.4371,3.3909,3.3384,3.3531,3.3636,3.3636,3.2749,3.2664,3.3602,3.2749,3.2357,3.2593,3.2593,3.25,3.2249,3.2249,3.2105,3.1865,3.1865,3.1865,3.1834,3.0854,3.0719,3.1227,3.1937,3.2479,3.3097,3.4563,3.51,3.4986,3.3993,3.4109,3.4773,2.7319,2.6933,2.6575,2.6492,2.6223,2.5975,2.5975,2.6285,2.6587,2.6826,2.665,2.6587,2.6826,2.6637,2.6587,2.6839,2.6851,2.6952,2.7168,2.7599,2.7668,2.7216,2.8092,2.8386,2.7898,2.8365,2.9033,2.9919,2.9919,3.0305,3.1089,3.1119,3.0857,3.0347,3.0528,3.0215,2.9465,2.8738,2.911,3.0068,2.9517,2.9809,0.0,2.9998,3.0139,3.0671,3.1206,3.1901,3.2593,3.2593,3.2593,3.2593,3.2593,3.289,3.3206,3.3206,3.3533,3.3973,3.4509,3.4658,3.4791,3.5359,3.5504,3.5504,3.5504,3.5504,3.5504,3.5504,3.5504,3.5504,3.5504,3.5504,0.0,0.0,0.0,0.0,0.0,3.5175,3.507,3.5459,3.4322,3.3649,3.4039,3.4339,3.4163,3.3343,3.3853,3.4204,3.4204,3.3339,3.338,3.461,3.3719,3.3429,3.3871,3.3871,3.365,3.3206,3.3206,3.2996,3.2593,3.2593,3.2593,3.256,3.173,3.1763,3.2399,3.2655,3.317,3.388,3.5058,3.5504,3.5424,3.4872,3.5019,3.5504,2.7537,2.7037,2.66,2.66,2.6663,2.6713,2.6713,2.6587,2.6688,2.7241,2.6901,2.6813,2.7331,2.7002,2.6901,2.7344,2.7394,2.7595,2.8072,2.8109,2.8109,2.8109,2.8109,2.8109,2.8109,2.8109,2.8543,2.9381,2.9381,2.9822,3.0609,2.9971,2.9627,2.9526,3.0204,2.9697,2.836,2.8837,2.934,2.9792,2.9792,2.9792,2.9792,2.9792,2.9792,2.9792,2.9792,3.0846,3.2213,3.2213,3.2213,3.2213,3.2213,3.2784,3.3463,3.3463,3.4056,3.4787,3.4887,3.4935,3.4968,3.51,3.5213,3.5311,3.5311,3.5407,3.5504,3.5504,3.5504,3.5504,3.5504,3.5504,0.0,0.0,0.0,0.0,3.5504,3.5504,3.5504,3.5504,3.4472,0.0,3.3634,3.3978,3.3978,3.341,3.3978,3.4414,3.4503,0.0,3.3948,3.5442,3.4658,3.461,3.5504,3.5504,3.5067,3.4211,3.4211,3.3774,3.2996,3.2996,3.2996,3.2961,3.2491,3.2703,3.3419,3.3472,3.3933,3.4698,3.5265,3.5504,3.5504,3.5504,3.5504,3.5504,2.6714,2.6955,2.7165,2.7165,2.7519,2.7821,2.7821,2.7077,2.6688,2.7241,2.7241,2.7344,2.7896,2.7871,2.7858,2.7946,2.7959,2.7996,2.8097,2.8109,2.8109,2.8109,2.8109,2.8109,2.8109,2.8109,2.8543,2.9381,2.9381,2.9822,3.0609,3.1034,3.0778,3.0082,3.0771,3.0501,2.9503,2.9591,2.9691,2.9792,2.9792,2.9792,2.9792,2.9792,2.9792,2.9792,2.9792,2.9998,3.0292,3.0292,3.0292,3.0292,3.0292,3.0394,3.0545,3.0545,3.0646,3.0972,3.1719,3.196,3.2141,3.2925,3.3685,3.4245,3.4245,3.4905,3.5504,3.5504,3.5504,3.5504,3.5504,3.5504,3.5504,0.0,3.5504,3.5504,3.5504,3.5504,3.5504,3.5504,3.5295,3.4936,3.4399,3.3425,3.2811,3.2691,3.3305,3.3934,3.4474,0.0,3.4626,0.0,3.5326,3.5326,0.0,3.5504,3.5392,3.5246,3.5246,3.5133,3.5001,3.5001,3.5001,3.4927,3.3771,3.3953,3.4993,3.3931,3.4218,3.534,3.5459,3.5504,3.5504,3.5504,3.5504,3.5504,2.7291,2.7532,2.7708,2.7708,2.7934,2.8109,2.8109,2.7657,2.7507,2.8059,2.7883,2.7921,2.8473,2.8285,2.8222,2.8511,2.8499,2.8662,2.8963,2.8976,2.8976,2.8976,2.8976,2.8976,2.8976,2.8976,2.9188,2.9609,2.9609,2.9818,3.0207,3.0519,3.0442,3.0021,3.0328,3.0203,2.9792,2.9792,2.9792,2.9792,2.9792,2.9792,2.9792,2.9792,2.9792,2.9792,2.9792,2.9792,2.9792,2.9792,2.9792,2.9792,2.9792,3.0139,3.052,3.052,3.0884,3.1341,3.1792,3.1924,3.2033,3.25,3.2961,3.3276,3.3276,3.365,3.4109,3.4624,3.4725,3.4872,3.5392,3.5504,3.5504,3.5504,3.5504,3.5504,3.5504,3.5504,3.5504,0.0,0.0,0.0,3.4533,3.3589,3.3021,3.3021,3.3006,3.3425,3.4459,0.0,3.4442,0.0,0.0,0.0,3.5504,0.0,3.5504,3.5504,3.5504,3.5504,3.5504,3.5504,3.5504,3.5444,3.4442,3.4577,3.5459,3.4801,3.4921,3.5504,3.5504,3.5504,3.5504,3.5504,3.5504,3.5504,2.8058,2.8197,2.8285,2.8285,2.8386,2.8461,2.8461,2.8461,2.8574,2.885,2.8512,2.8499,2.9013,2.8725,2.8637,2.9038,2.9076,2.9302,2.9767,2.9792,2.9792,2.9792,2.9792,2.9792,2.9792,2.9792,2.9792,2.9792,2.9792,2.9729,2.9616,2.9729,2.9792,2.9792,2.9792,2.9792,2.9792,2.9792,2.9792,2.9792,2.9792,2.9792,2.9792,2.9792,2.9792,2.9792,2.9792,2.9792,2.9792,2.9792,2.9792,2.9792,2.9792,3.0317,3.0895,3.0895,3.1439,3.201,3.201,3.201,3.201,3.201,3.2141,3.2321,3.2321,3.2593,3.3101,3.3842,3.4177,3.4543,3.5359,3.5504,3.5504,3.5504,3.5504,3.5504,3.5504,3.5504,3.5504,0.0,0.0,0.0,3.4728,3.4098,3.3769,3.3903,3.3185,3.317,3.4234,0.0,0.0,0.0,3.5504,3.5504,3.5504,0.0,3.5504,3.5504,3.5504,3.5504,3.5504,3.5504,3.5504,3.5474,3.4771,3.4786,3.5295,3.5444,3.5504,3.5504,3.5504,3.5504,3.5504,3.5504,3.5504,3.5504,2.8266,2.8511,2.8813,2.8813,2.9289,2.9628,2.9628,2.9628,2.9465,2.895,2.885,2.9026,2.9641,2.9666,2.9654,2.9704,2.9716,2.9729,2.9792,2.9792,2.9792,2.9792,2.9792,2.9792,2.9792,2.9792,2.9792,2.9792,2.9792,2.9528,2.8988,2.9553,2.9792,2.9792,2.9792,2.9792,2.9792,2.9792,2.9792,2.9792,2.9792,2.9792,2.9792,2.9792,2.9792,2.9792,2.9792,2.9792,2.9792,2.9792,2.9792,2.9792,2.9792,2.9869,2.9934,2.9934,3.0011,3.0075,3.0075,3.0075,3.0075,3.0075,3.0696,3.1315,3.1315,3.2629,3.3876,3.3993,3.4725,3.5392,3.5472,3.5504,3.5504,3.5504,3.5504,3.5504,3.5504,3.5504,3.5504,3.5504,0.0,0.0,3.5415,3.4786,3.4668,3.5265,3.4128,3.3455,3.3589,0.0,0.0,3.5489,3.5504,3.5504,3.5504,3.5504,3.5504,3.5504,3.5504,3.5504,3.5504,3.5504,3.5504,3.5474,3.4771,3.4548,3.4653,3.525,3.5504,3.5504,3.5504,3.5504,3.5504,3.5504,3.5504,3.5504,2.9114,2.9302,2.9453,2.9453,2.9641,2.9792,2.9792,2.9792,2.9704,2.9478,2.9453,2.9528,2.9767,2.9792,2.9792,2.9792,2.9792,2.9792,2.9792,2.9792,2.9792,2.9792,2.9792,2.9792,2.9792,2.9792,2.9792,2.9792,2.9792,2.9679,2.9453,2.9679,2.9792,2.9792,2.9792,2.9792,2.9792,2.9792,2.9792,2.9792,2.9792,2.9792,2.9792,2.9792,2.9792,2.9792,2.9792,2.9792,2.9792,2.9792,2.9792,2.9792,2.9792,2.9792,2.9792,2.9792,2.9792,2.9792,2.9792,2.9792,2.9792,2.9792,3.0075,3.0343,3.0343,3.0959,3.1623,3.2213,3.3547,3.4758,3.5392,3.5504,3.5504,3.5504,3.5504,3.5504,3.5504,3.5504,0.0,3.5504,0.0,3.5504,3.5504,3.525,3.504,3.4906,3.4023,3.3844,3.4651,3.4562,3.4801,3.5489,0.0,3.5504,3.5504,3.5504,3.5504,3.5504,3.5504,3.5504,3.5504,3.5504,3.5504,3.5489,3.522,3.51,3.5115,3.5385,3.5504,3.5504,3.5504,3.5504,3.5504,3.5504,3.5504,3.5504,2.9781,2.9792,2.9792,2.9792,2.9792,2.9792,2.9792,2.9792,2.9792,2.9792,2.9792,2.9792,2.9792,2.9792,2.9792,2.9792,2.9792,2.9792,2.9792,2.9792,2.9792,2.9792,2.9792,2.9792,2.9792,2.9792,2.9792,2.9792,2.9792,2.9704,2.9541,2.9541,2.9628,2.9792,2.9792,2.9792,2.9792,2.9792,2.9792,2.9792,2.9792,2.9792,2.9792,2.9792,2.9792,2.9792,2.9792,2.9792,2.9792,2.9792,2.9792,2.9792,2.9792,2.9792,2.9792,2.9792,2.9792,2.9792,2.9792,2.9792,2.9792,2.9792,2.9792,2.9792,2.9792,2.9998,3.0558,3.1792,3.3066,3.4312,3.5311,3.5504,3.5504,3.5504,3.5504,3.5504,3.5504,3.5504,0.0,3.5504,3.5504,3.5504,3.5504,3.5504,3.5295,3.4816,3.4352,3.4412,3.516,3.4936,3.4996,3.5489,0.0,0.0,3.5504,3.5504,3.5504,3.5504,3.5504,3.5504,3.5504,3.5504,3.5504,3.5504,3.5504,3.5504,3.5504,3.5504,3.5504,3.5504,3.5504,3.5504,3.5504,3.5504,3.5504,3.5504,2.996,2.9792,2.9792,2.9792,2.9792,2.9792,2.9792,2.9792,2.9792,2.9792,2.9792,2.9792,2.9792,2.9792,2.9792,2.9792,2.9792,2.9792,2.9792,2.9792,2.9792,2.9792,2.9792,2.9792,2.9792,2.9792,2.9792,2.9792,2.9792,2.9503,2.89,2.89,2.9252,2.9792,2.9792,2.9792,2.9792,2.9792,2.9792,2.9792,2.9792,2.9792,2.9792,2.9792,2.9792,2.9792,2.9792,2.9792,2.9792,2.9792,2.9792,2.9792,2.9792,2.9792,2.9792,2.9792,2.9792,2.9792,2.9792,2.9792,2.9792,2.9792,2.9792,2.9792,2.9792,3.052,3.1706,3.3602,3.3993,3.4312,3.5311,3.5504,3.5504,3.5504,3.5504,3.5504,3.5504,3.5504,0.0,3.5504,3.5504,3.5504,3.5504,3.5504,3.5504,3.5489,3.5489,3.519,3.4563,3.513,3.5489,3.5504,3.5504,3.5504,3.5504,3.5504,3.5504,3.5504,3.5504,3.5504,3.5504,3.5504,3.5504,3.5504,3.5504,3.5504,3.5504,3.5504,3.5504,3.5504,3.5504,3.5504,3.5504,3.5504,3.5504,3.5504,2.9869,2.9792,2.9792,2.9792,2.9792,2.9917,3.0294,3.0357,3.0482,3.0834,3.0884,3.0884,3.0884,3.0231,2.9792,2.9792,2.9792,2.9792,2.9792,2.9792,2.9792,2.9792,2.9792,2.9792,2.9792,2.9792,2.9792,2.9792,2.9792,2.9691,2.9515,2.9515,2.9616,2.9792,2.9792,2.9792,2.9792,2.9792,2.9792,2.9792,2.9792,2.9792,2.9792,2.9792,2.9792,2.9792,2.9792,2.9792,2.9792,2.9792,2.9792,2.9792,2.9792,2.9792,2.9792,2.9792,2.9792,2.9792,2.9792,2.9792,2.9792,2.9792,2.9792,2.9792,2.9792,3.0037,3.0595,3.1829,3.2593,3.3345,3.4293,3.5019,3.5504,3.5504,3.5504,3.5504,3.5504,3.5504,3.5504,3.5504,3.5504,3.5504,3.5504,3.5504,3.5504,3.5504,3.5504,3.5415,3.519,3.5385,3.5504,3.5504,3.5504,3.5504,3.5504,3.5504,3.5504,3.5504,3.5504,3.5504,3.5504,3.5504,3.5504,3.5504,3.5504,3.5504,3.5504,3.5504,3.5504,3.5504,3.5504,3.5504,3.5504,3.5504,3.5504,3.5504,3.1574,3.1613,3.1613,3.1613,3.1293,3.1111,3.147,3.1177,3.1022,3.1348,3.1386,3.1386,3.1386,3.0796,3.0319,3.0118,3.0105,3.0018,2.9804,2.9792,2.9792,2.9792,2.9792,2.9792,2.9792,2.9792,2.9792,2.9792,2.9792,2.9792,2.9792,2.9792,2.9792,2.9792,2.9792,2.9792,2.9792,2.9792,2.9792,2.9792,2.9792,2.9792,2.9792,2.9792,2.9792,2.9792,2.9792,2.9792,2.9792,2.9792,2.9792,2.9792,2.9792,2.9792,2.9792,2.9792,2.9792,2.9792,2.9792,2.9792,2.9792,2.9792,2.9792,2.9792,2.9792,2.9792,3.0075,3.1007,3.196,3.289,3.3842,3.4839,3.5504,3.5504,3.5504,3.5504,3.5504,3.5504,3.5504,3.5504,3.5504,3.5504,3.5504,3.5504,3.5504,3.5504,3.5504,3.5504,3.5504,3.5504,3.5504,3.5504,3.5504,3.5504,3.5504,3.5504,3.5504,3.5504,3.5504,3.5504,3.5504,3.5504,3.5504,3.5504,3.5504,3.5504,3.5504,3.5504,3.5504,3.5504,3.5504,3.5504,3.5504,3.5504,3.5504,3.5504,3.4483,3.4594,3.4594,3.4594,3.3774,3.3105,3.3144,3.234,3.1693,3.1731,3.1731,3.1731,3.1731,3.1731,3.1516,3.0998,3.0763,3.0432,2.988,2.9854,2.9829,2.9792,2.9792,2.9792,2.9792,2.9792,2.9792,2.9792,2.9792,2.9792,2.9792,2.9792,2.9792,2.9792,2.9792,2.9792,2.9792,2.9792,2.9792,2.9792,2.9792,2.9792,2.9792,2.9792,2.9792,2.9792,2.9792,2.9792,2.9792,2.9792,2.9792,2.9792,2.9792,2.9792,2.9792,2.9792,2.9792,2.9792,2.9792,2.9792,2.9792,2.9792,2.9792,2.9792,2.9792,2.9869,3.0139,3.1007,3.1997,3.2961,3.3842,3.4839,3.5504,3.5504,3.5504,3.5504,3.5504,3.5504,3.5504,3.5504,3.5504,3.5504,3.5504,3.5504,3.5504,3.5504,3.5504,3.5504,3.5504,3.5504,3.5504,3.5504,3.5504,3.5504,3.5504,3.5504,3.5504,3.5504,3.5504,3.5504,3.5504,3.5504,3.5504,3.5504,3.5504,3.5504,3.5504,3.5504,3.5504,3.5504,3.5504,3.5504,3.5504,3.5504,3.5504,3.5504,3.4566,3.4594,3.4594,3.4594,3.4369,3.4382,3.4758,3.4633,3.4587,3.502,3.5074,3.5074,3.5074,3.5074,3.4844,3.4328,3.2407,3.0984,3.0457,3.0419,3.0231,2.9817,2.9792,2.9792,2.9792,2.9792,2.9792,2.9792,2.9792,2.9792,2.9792,2.9792,2.9792,2.9792,2.9792,2.9792,2.9792,2.9792,2.9792,2.9792,2.9792,2.9792,2.9792,2.9792,2.9792,2.9792,2.9792,2.9792,2.9792,2.9792,2.9792,2.9792,2.9792,2.9792,2.9792,2.9792,2.9792,2.9792,2.9792,2.9792,2.9792,2.9792,2.9792,2.9792,2.9792,3.0343,3.0932,3.1143,3.2522,3.3739,3.3959,3.4839,3.5504,3.5504,3.5504,3.5504,3.5504,3.5504,3.5504,3.5504,3.5504,3.5504,3.5504,3.5504,3.5504,3.5504,3.5504,3.5504,3.5504,3.5504,3.5504,3.5504,3.5504,3.5504,3.5504,3.5504,3.5504,3.5504,3.5504,3.5504,3.5504,3.5504,3.5504,3.5504,3.5504,3.5504,3.5504,3.5504,3.5504,3.5504,3.5504,3.5504,3.5504,3.5504,3.5504,3.5504,3.6712,3.6769,3.6769,3.6769,3.6385,3.616,3.6447,3.6066,3.5892,3.6156,3.6198,3.6198,3.6198,3.6198,3.6073,3.5809,3.423,3.3001,3.2474,3.1954,3.1447,3.092,3.0429,3.0043,2.9804,2.9792,2.9792,2.9792,3.0241,3.0203,2.9792,3.0241,3.0216,2.9792,2.9792,2.9792,2.983,3.0241,3.0177,2.983,3.0279,3.0177,2.9792,2.9792,2.9792,2.9792,2.9792,3.0075,3.0381,2.9934,3.0113,3.0381,2.9934,2.9792,2.9792,2.9792,2.9792,2.9792,2.9792,2.9792,2.9792,2.9792,2.9792,2.9895,3.0343,3.0833,3.1315,3.1742,3.2996,3.3993,3.3993,3.4839,3.5504,3.5504,3.5504,3.5504,3.5504,3.5504,3.5504,3.5504,3.5504,3.5504,3.5504,3.5504,3.5504,3.5504,3.5504,3.5504,3.5504,3.5504,3.5504,3.5504,3.5504,3.5504,3.5504,3.5504,3.5504,3.5504,3.5504,3.5504,3.5504,3.5504,3.5504,3.5504,3.5504,3.5504,3.5504,3.5504,3.5504,3.5504,3.5504,3.5504,3.5504,3.5504,3.5504,3.5504,3.9305,3.9388,3.9388,3.9388,3.8671,3.8032,3.8032,3.7252,3.6682,3.6682,3.6682,3.6682,3.6682,3.6682,3.6682,3.6682,3.6273,3.5651,3.4774,3.3871,3.3114,3.2579,3.1565,3.0828,3.0394,3.0151,2.9998,2.9998,3.0658,3.0595,2.983,3.0633,3.0558,2.9792,2.9934,2.9998,3.0075,3.1007,3.0945,3.0292,3.0945,3.0809,3.0216,3.0075,2.9998,2.9998,2.9998,3.052,3.1068,3.0279,3.052,3.1082,3.0279,2.9998,2.9998,2.9998,3.0101,3.0177,3.0037,2.9998,2.9972,2.983,2.9792,3.0037,3.097,3.1315,3.1669,3.2629,3.3567,3.4245,3.4245,3.4905,3.5504,3.5504,3.5504,3.5504,3.5504,3.5504,3.5504,3.5504,3.5504,3.5504,3.5504,3.5504,3.5504,3.5504,3.5504,3.5504,3.5504,3.5504,3.5504,3.5504,3.5504,3.5504,3.5504,3.5504,3.5504,3.5504,3.5504,3.5504,3.5504,3.5504,3.5504,3.5504,3.5504,3.5504,3.5504,3.5504,3.5504,3.5504,3.5504,3.5504,3.5504,3.5619,3.5668,3.5668,3.9394,3.9388,3.9388,3.9388,3.9265,3.9141,3.9141,3.9017,3.8892,3.8892,3.8892,3.8892,3.8892,3.8892,3.8892,3.8892,3.8818,3.7775,3.5436,3.5126,3.4788,3.4258,3.3536,3.3096,3.3001,3.1692,3.097,3.097,3.0317,2.9934,2.9792,2.9934,2.9934,2.983,3.062,3.097,3.1044,3.1997,3.2285,3.2105,3.1462,3.1573,3.2083,3.1291,3.097,3.097,3.097,3.1068,3.118,3.1044,3.1068,3.118,3.1044,3.097,3.097,3.097,3.1536,3.1997,3.118,3.097,3.0796,2.9998,2.9792,3.0037,3.097,3.1815,3.2629,3.3602,3.4576,3.5279,3.5279,3.5392,3.5504,3.5504,3.5504,3.5504,3.5504,3.5504,3.5504,3.5504,3.5504,3.5504,3.5504,3.5504,3.5504,3.5504,3.5504,3.5504,3.5504,3.5504,3.5504,3.5504,3.5504,3.5504,3.5504,3.5504,3.5504,3.5504,3.5504,3.5504,3.5504,3.5504,3.5504,3.5504,3.5504,3.5504,3.5504,3.5504,3.5504,3.5504,3.5504,3.5504,3.5587,3.6196,3.6446,3.6446,3.9388,3.9388,3.9388,3.9388,3.9388,3.9388,3.9388,3.9388,3.9388,3.9388,3.9388,3.9388,3.9388,3.9388,3.9388,3.9388,3.9388,3.8862,3.7649,3.7006,3.6458,3.5923,3.5027,3.4256,3.3614,3.2864,3.2322,3.196,3.2046,3.1806,3.1304,3.1842,3.1806,3.1304,3.1217,3.1217,3.1217,3.1669,3.1852,3.1852,3.1924,3.2213,3.2558,3.2141,3.196,3.196,3.196,3.2285,3.2629,3.2141,3.2285,3.2629,3.2105,3.196,3.196,3.196,3.2249,3.25,3.2069,3.196,3.1852,3.1415,3.1304,3.1549,3.25,3.3031,3.3636,3.4624,3.518,3.5504,3.5504,3.5504,3.5504,3.5504,3.5504,3.5504,3.5504,3.5504,3.5504,3.5504,3.5504,3.5504,3.5504,3.5504,3.5504,3.5504,3.5504,3.5504,3.5504,3.5504,3.5504,3.5504,3.5504,3.5504,3.5504,3.5504,3.5504,3.5504,3.5504,3.5504,3.5504,3.5504,3.5504,3.5504,3.5504,3.5504,3.5504,3.5504,3.5504,3.5504,3.5504,3.5504,3.5537,3.5894,3.6006,3.6006,3.9388,3.9388,3.9388,3.9388,3.9388,3.9388,3.9388,3.9388,3.9388,3.9388,3.9388,3.9388,3.9388,3.9388,3.9388,3.9388,3.9388,3.9388,3.9388,3.862,3.7978,3.7558,3.6616,3.5582,3.4503,3.4259,3.382,3.317,3.3662,3.3452,3.2629,3.3345,3.3276,3.2558,3.2069,3.1852,3.1852,3.2119,3.2177,3.2249,3.2749,3.3066,3.3255,3.3031,3.2925,3.2925,3.2925,3.338,3.3876,3.3171,3.338,3.3876,3.3136,3.2925,3.2925,3.2925,3.3101,3.3185,3.2713,3.2749,3.289,3.2629,3.2593,3.2855,3.3774,3.3993,3.4279,3.5279,3.5504,3.5504,3.5504,3.5504,3.5504,3.5504,3.5504,3.5504,3.5504,3.5504,3.5504,3.5504,3.5504,3.5504,3.5504,3.5504,3.5504,3.5504,3.5504,3.5504,3.5504,3.5504,3.5504,3.5504,3.5504,3.5504,3.5504,3.5504,3.5504,3.5504,3.5504,3.5504,3.5504,3.5504,3.5504,3.5504,3.5504,3.5504,3.5504,3.5504,3.5504,3.5504,3.5504,3.5504,3.5537,3.5701,3.575,3.575,3.9388,3.9388,3.9388,3.9388,3.9388,3.9388,3.9388,3.9388,3.9388,3.9388,3.9388,3.9388,3.9388,3.9388,3.9388,3.9388,3.9388,3.9388,3.9388,3.9337,3.9235,3.9226,3.8543,3.7838,3.7124,3.6283,3.5489,3.4821,3.4014,3.329,3.2593,3.2664,3.2664,3.2629,3.3449,3.3774,3.3842,3.4773,3.518,3.51,3.4245,3.4461,3.518,3.4245,3.391,3.391,3.391,3.3945,3.3993,3.391,3.3945,3.3993,3.391,3.391,3.391,3.391,3.4543,3.4887,3.3066,3.3241,3.3705,3.282,3.2593,3.2855,3.3774,3.3993,3.4279,3.5279,3.5504,3.5504,3.5504,3.5504,3.5504,3.5504,3.5504,3.5504,3.5504,3.5504,3.5504,3.5504,3.5504,3.5504,3.5504,3.5504,3.5504,3.5504,3.5504,3.5504,3.5504,3.5504,3.5504,3.5504,3.5504,3.5504,3.5504,3.5504,3.5504,3.5504,3.5504,3.5504,3.5504,3.5504,3.5504,3.5504,3.5504,3.5504,3.5504,3.5504,3.5504,3.5504,3.5504,3.5504,3.5587,3.6275,3.6523,3.6523,3.9388,3.9388,3.9388,3.9388,3.9388,3.9388,3.9388,3.9388,3.9388,3.9388,3.9388,3.9388,3.9388,3.9388,3.9388,3.9388,3.9388,3.9388,3.9388,3.9388,3.9388,3.9388,3.917,3.8721,3.8033,3.7673,3.7172,3.6473,3.6146,3.584,3.5592,3.5179,3.5005,3.499,3.4317,3.3993,3.3993,3.3788,3.4041,3.4543,3.4143,3.461,3.5472,3.5067,3.4953,3.4953,3.4953,3.4953,3.4953,3.4953,3.4953,3.4953,3.4953,3.4953,3.4953,3.4953,3.5213,3.5326,3.4591,3.4658,3.4839,3.4476,3.4409,3.4476,3.4839,3.4953,3.5019,3.5424,3.5504,3.5504,3.5504,3.5504,3.5504,3.5504,3.5504,3.5504,3.5504,3.5504,3.5504,3.5504,3.5504,3.5504,3.5504,3.5504,3.5504,3.5504,3.5504,3.5504,3.5504,3.5504,3.5504,3.5504,3.5504,3.5504,3.5504,3.5504,3.5504,3.5504,3.5504,3.5504,3.5504,3.5504,3.5504,3.5504,3.5504,3.5504,3.5504,3.5504,3.5504,3.5504,3.5504,3.5504,3.5537,3.5799,3.5926,3.5926,3.9388,3.9388,3.9388,3.9388,3.9388,3.9388,3.9388,3.9388,3.9388,3.9388,3.9388,3.9388,3.9388,3.9388,3.9388,3.9388,3.9388,3.9388,3.9388,3.9388,3.9388,3.9388,3.9388,3.92,3.8721,3.8706,3.8392,3.7719,3.7719,3.7614,3.7404,3.6971,3.6776,3.6712,3.5585,3.4942,3.4733,3.4088,3.4077,3.4461,3.4461,3.4872,3.5504,3.5504,3.5504,3.5504,3.5504,3.5504,3.5504,3.5504,3.5504,3.5504,3.5504,3.5504,3.5504,3.5504,3.5504,3.5504,3.5504,3.5504,3.5504,3.5504,3.5504,3.5504,3.5504,3.5504,3.5504,3.5504,3.5504,3.5504,3.5504,3.5504,3.5504,3.5504,3.5504,3.5504,3.5504,3.5504,3.5504,3.5504,3.5504,3.5504,3.5504,3.5504,3.5504,3.5504,3.5504,3.5504,3.5504,3.5504,3.5504,3.5504,3.5504,3.5504,3.5504,3.5504,3.5504,3.5504,3.5504,3.5504,3.5504,3.5504,3.5504,3.5504,3.5504,3.5504,3.5504,3.5504,3.5504,3.5504,3.5504,3.5504,3.5504,3.5504,3.5504,3.5504,3.9388,3.9388,3.9388,3.9388,3.9388,3.9388,3.9388,3.9388,3.9388,3.9388,3.9388,3.9388,3.9388,3.9388,3.9388,3.9388,3.9388,3.9388,3.9388,3.9388,3.9388,3.9388,3.9388,3.9388,3.9388,3.9388,3.908,3.8407,3.8407,3.8063,3.7419,3.7419,3.7419,3.7419,3.7404,3.706,3.6492,3.6492,3.6118,3.5519,3.5519,3.5519,3.5519,3.5504,3.5504,3.5504,3.5504,3.5504,3.5504,3.5504,3.5504,3.5504,3.5504,3.5504,3.5504,3.5504,3.5504,3.5504,3.5504,3.5504,3.5504,3.5504,3.5504,3.5504,3.5504,3.5504,3.5504,3.5504,3.5504,3.5504,3.5504,3.5504,3.5504,3.5504,3.5504,3.5504,3.5504,3.5504,3.5504,3.5504,3.5504,3.5504,3.5504,3.5504,3.5504,3.5504,3.5504,3.5504,3.5504,3.5504,3.5504,3.5504,3.5504,3.5504,3.5504,3.5504,3.5504,3.5504,3.5504,3.5504,3.5504,3.5504,3.5504,3.5504,3.5504,3.5504,3.5504,3.5504,3.5504,3.5504,3.5504,3.5504,3.5504,3.5504,3.5504,3.5504,3.9388,3.9388,3.9388,3.9388,3.9388,3.9388,3.9388,3.9388,3.9388,3.9388,3.9388,3.9388,3.9388,3.9388,3.9388,3.9388,3.9388,3.9388,3.9388,3.9388,3.9388,3.9388,3.9388,3.9388,3.9388,3.9388,3.932,3.911,3.911,3.9005,3.8811,3.8317,3.8093,3.8078,3.7614,3.73,3.7135,3.7135,3.703,3.6806,3.6372,3.6193,3.6148,3.5684,3.5504,3.5504,3.5504,3.5504,3.5504,3.5504,3.5504,3.5504,3.5504,3.5504,3.5504,3.5504,3.5504,3.5504,3.5504,3.5504,3.5504,3.5504,3.5504,3.5504,3.5504,3.5504,3.5504,3.5504,3.5504,3.5504,3.5504,3.5504,3.5504,3.5504,3.5504,3.5504,3.5504,3.5504,3.5504,3.5504,3.5504,3.5504,3.5504,3.5504,3.5504,3.5504,3.5504,3.5504,3.5504,3.5504,3.5504,3.5504,3.5504,3.5504,3.5504,3.5504,3.5504,3.5504,3.5504,3.5504,3.5504,3.5504,3.5504,3.5504,3.5504,3.5504,3.5504,3.5504,3.5504,3.5504,3.5504,3.5504,3.5504,3.5504,3.5504,3.5564,3.9388,3.9388,3.9388,3.9388,3.9388,3.9388,3.9388,3.9388,3.9388,3.9388,3.9388,3.9388,3.9388,3.9388,3.9388,3.9388,3.9388,3.9388,3.9388,3.9388,3.9388,3.9388,3.9388,3.9388,3.9388,3.9388,3.9388,3.9388,3.9388,3.9388,3.9373,3.899,3.8796,3.8781,3.8377,3.8048,3.7808,3.7808,3.7644,3.7375,3.7,3.6851,3.6806,3.6417,3.6252,3.6222,3.5983,3.5893,3.5848,3.5594,3.5504,3.5504,3.5504,3.5504,3.5504,3.5504,3.5504,3.5504,3.5504,3.5504,3.5504,3.5504,3.5504,3.5504,3.5504,3.5504,3.5504,3.5504,3.5504,3.5504,3.5504,3.5504,3.5504,3.5504,3.5504,3.5504,3.5504,3.5504,3.5504,3.5504,3.5504,3.5504,3.5504,3.5504,3.5504,3.5504,3.5504,3.5504,3.5504,3.5504,3.5504,3.5504,3.5504,3.5504,3.5504,3.5504,3.5504,3.5504,3.5504,3.5504,3.5504,3.5504,3.5504,3.5504,3.5504,3.5504,3.5504,3.5504,3.5504,3.5504,3.5504,3.5668,3.5973,3.6246,3.6578,3.6891,3.9388,3.9388,3.9388,3.9388,3.9388,3.9388,3.9388,3.9388,3.9388,3.9388,3.9388,3.9388,3.9388,3.9388,3.9388,3.9388,3.9388,3.9388,3.9388,3.9388,3.9388,3.9388,3.9388,3.9388,3.9388,3.9388,3.9388,3.9388,3.9388,3.9388,3.9388,3.9388,3.9388,3.9388,3.9388,3.9065,3.8482,3.8482,3.8138,3.7584,3.7524,3.7494,3.7494,3.7434,3.7404,3.7345,3.6776,3.6567,3.6477,3.5878,3.5639,3.5594,3.5594,3.5549,3.5504,3.5504,3.5504,3.5504,3.5504,3.5504,3.5504,3.5504,3.5504,3.5504,3.5504,3.5504,3.5504,3.5504,3.5504,3.5504,3.5504,3.5504,3.5504,3.5504,3.5504,3.5504,3.5504,3.5504,3.5504,3.5504,3.5504,3.5504,3.5504,3.5504,3.5504,3.5504,3.5504,3.5504,3.5504,3.5504,3.5504,3.5504,3.5504,3.5504,3.5504,3.5504,3.5504,3.5504,3.5504,3.5504,3.5504,3.5504,3.5504,3.5504,3.5554,3.5587,3.5587,3.5587,3.5651,3.5668,3.5554,3.6037,3.6893,3.7468,3.8244,3.8992,3.9388,3.9388,3.9388,3.9388,3.9388,3.9388,3.9388,3.9388,3.9388,3.9388,3.9388,3.9388,3.9388,3.9388,3.9388,3.9388,3.9388,3.9388,3.9388,3.9388,3.9388,3.9388,3.9388,3.9388,3.9388,3.9388,3.9388,3.9388,3.9388,3.9388,3.9388,3.9388,3.9388,3.9388,3.9388,3.9298,3.9185,3.9185,3.911,3.8931,3.8392,3.8182,3.8123,3.7599,3.7404,3.7389,3.7255,3.721,3.718,3.7045,3.6671,3.6267,3.6267,3.5923,3.5504,3.5504,3.5504,3.5504,3.5504,3.5504,3.5504,3.5504,3.5504,3.5504,3.5504,3.5504,3.5504,3.5504,3.5504,3.5504,3.5504,3.5504,3.5504,3.5504,3.5504,3.5504,3.5504,3.5504,3.5504,3.5504,3.5504,3.5504,3.5504,3.5504,3.5504,3.5504,3.5504,3.5504,3.5504,3.5504,3.5504,3.5504,3.5504,3.5504,3.5504,3.5504,3.5504,3.5504,3.5504,3.5504,3.5504,3.5504,3.5504,3.5537,3.6117,3.6353,3.6353,3.6353,3.6722,3.7175,3.5973,3.669,3.8354,3.7888,3.8574,3.9832,3.9388,3.9388,3.9388,3.9388,3.9388,3.9388,3.9388,3.9388,3.9388,3.9388,3.9388,3.9388,3.9388,3.9388,3.9388,3.9388,3.9388,3.9388,3.9388,3.9388,3.9388,3.9388,3.9388,3.9388,3.9388,3.9388,3.9388,3.9388,3.9388,3.9388,3.9388,3.9388,3.9388,3.9388,3.9388,3.9388,3.9388,3.9388,3.9388,3.9394,3.9035,3.8886,3.8841,3.8497,3.8362,3.8317,3.7988,3.7674,3.7404,3.7404,3.7195,3.6926,3.6926,3.6492,3.5968,3.5968,3.5744,3.5504,3.5504,3.5504,3.5504,3.5504,3.5504,3.5504,3.5504,3.5504,3.5504,3.5504,3.5504,3.5504,3.5504,3.5504,3.5504,3.5504,3.5504,3.5504,3.5504,3.5504,3.5504,3.5504,3.5504,3.5504,3.5504,3.5504,3.5504,3.5504,3.5504,3.5504,3.5504,3.5504,3.5504,3.5504,3.5504,3.5504,3.5504,3.5504,3.5504,3.5504,3.5504,3.5504,3.5504,3.5504,3.5701,3.607,3.6446,3.6813,3.7174,3.7174,3.7646,3.8243,3.7435,3.8285,3.9982,3.9921,4.0621,4.1634,3.9388,3.9388,3.9388,3.9388,3.9388,3.9388,3.9388,3.9388,3.9388,3.9388,3.9388,3.9388,3.9388,3.9388,3.9388,3.9388,3.9388,3.9388,3.9388,3.9388,3.9388,3.9388,3.9388,3.9388,3.9388,3.9388,3.9388,3.9388,3.9388,3.9388,3.9388,3.9388,3.9388,3.9388,3.9388,3.9388,3.9388,3.9388,3.9388,3.9388,3.9388,3.9388,3.9388,3.9388,3.9388,3.9349,3.8766,3.8212,3.7749,3.7749,3.7674,3.7584,3.7584,3.715,3.6641,3.6641,3.6193,3.5669,3.5669,3.5594,3.5504,3.5504,3.5504,3.5504,3.5504,3.5504,3.5504,3.5504,3.5504,3.5504,3.5504,3.5504,3.5504,3.5504,3.5504,3.5504,3.5504,3.5504,3.5504,3.5504,3.5504,3.5504,3.5504,3.5504,3.5504,3.5504,3.5504,3.5504,3.5504,3.5504,3.5504,3.5504,3.5504,3.5504,3.5504,3.5504,3.5504,3.5504,3.5651,3.5701,3.5701,3.5701,3.6086,3.6813,3.6934,3.7445,3.8184,3.8184,3.8718,3.9447,3.9184,4.0105,4.1669,4.2427,4.3044,4.3532,3.9388,3.9388,3.9388,3.9388,3.9388,3.9388,3.9388,3.9388,3.9388,3.9388,3.9388,3.9388,3.9388,3.9388,3.9388,3.9388,3.9388,3.9388,3.9388,3.9388,3.9388,3.9388,3.9388,3.9388,3.9388,3.9388,3.9388,3.9388,3.9388,3.9388,3.9388,3.9388,3.9388,3.9388,3.9388,3.9388,3.9388,3.9388,3.9388,3.9388,3.9388,3.9388,3.9388,3.9388,3.9388,3.9373,3.932,3.923,3.9155,3.9155,3.8751,3.8257,3.8257,3.7808,3.7285,3.7285,3.6836,3.6357,3.6357,3.5938,3.5504,3.5504,3.5504,3.5504,3.5504,3.5504,3.5504,3.5504,3.5504,3.5504,3.5504,3.5504,3.5504,3.5504,3.5504,3.5504,3.5504,3.5504,3.5504,3.5504,3.5504,3.5504,3.5504,3.5504,3.5504,3.5504,3.5504,3.5504,3.5504,3.5504,3.5504,3.5504,3.5504,3.5504,3.5504,3.5504,3.5504,3.5504,3.6134,3.6446,3.6446,3.6446,3.6889,3.7661,3.8314,3.9051,3.9796,3.9796,4.0602,4.1724,4.0382,4.1189,4.3215,4.4018,4.4356,4.4412,3.9388,3.9793,3.9955,3.9481,3.9793,3.9955,3.9481,3.9388,3.9388,3.9388,3.9388,3.9388,3.9388,3.9388,3.9388,3.9388,3.9388,3.9388,3.9388,3.9388,3.9388,3.9388,3.9388,3.9388,3.9388,3.9388,3.9388,3.9388,3.9388,3.9388,3.9388,3.9388,3.9388,3.9388,3.9388,3.9388,3.9388,3.9388,3.9388,3.9388,3.9388,3.9388,3.9388,3.9388,3.9388,3.9388,3.9388,3.9388,3.9388,3.9388,3.9215,3.896,3.896,3.8497,3.7958,3.7958,3.7509,3.7,3.7,3.6791,3.6492,3.6133,3.6058,3.5953,3.5594,3.5504,3.5504,3.5504,3.5504,3.5504,3.5504,3.5504,3.5504,3.5504,3.5504,3.5504,3.5504,3.5504,3.5504,3.5504,3.5504,3.5504,3.5504,3.5504,3.5504,3.5504,3.5504,3.5504,3.5504,3.5504,3.5504,3.5504,3.5504,3.5504,3.5504,3.5504,3.5504,3.5504,3.6244,3.6615,3.6615,3.707,3.7926,3.9088,3.9424,4.0237,4.1335,4.1335,4.195,4.2858,4.2182,4.279,4.4113,4.4479,4.4615,4.4615]}]]